LiveATC.Net - Listen to live air traffic control over the Internet!
Airport/ARTCC Code
Frequency Search
(e.g., 124.400, 128.75)
Site-wide search
 


Browse Feeds
Top 50 Feeds
HF Oceanic Feeds
Coverage Map
Bad Weather Areas

LiveATC FAQ

Increase Coverage

Contact LiveATC.net
Press Inquiries

LiveATC on iPhone
LiveATC on Android

LiveATC Mobile
(Mobile browser)

ATC Audio Archives
Interesting Recordings

LiveATC Forums

Home Page
About LiveATC.net


Terms of Use
Privacy Policy

AIRMETs/SIGMETs

FAA Airport Status
NAS Status
Arrival Demand


Server Software By:
Icecast.org
Liquidsoap

Select an area of interest:
U.S. Feeds: Class B Airports | Class C Airports | Class D/Other Airports | ARTCC (Centers)
International Feeds: Canada | Europe | Oceania | Asia | South America | North/Central America | Africa
Misc Feeds: HF Feeds
Search by ICAO/IATA airport code:   (e.g., kbos, kjfk, lax, eham, etc.)


Currently Available Live Feeds: 3178
Status Updated: Wed Jul 17 2024 18:53:21 UTC


NOTICE

Unauthorized use prohibited. See LiveATC.net Terms of Service

U.S. Class C Airport Feeds

 

KABE App/Dep (Archives)
Allentown, Pennsylvania, United States

Feed Status: UP
Listen in your browser - HTML5 player(in browser, HTML5)
Click here to listen with your own player(launches your MP3 player)

KABE 171828Z 24009KT 10SM FEW047 FEW060 32/22 A2980 RMK AO2 LTG DSNT NE TSB07E13E22 T03220217

KABE Airport Info (Airnav.com)

KABE Flight Activity (Flightaware)

Listeners: 0 out of 2022 total

Allentown Approach/Departure (Above 3000'): 124.450
Allentown Approach/Departure (Below 3000'): 119.650

KABE App/Dep (Above 3000') (Archives)
Allentown, Pennsylvania, United States

Feed Status: UP
Listen in your browser - HTML5 player(in browser, HTML5)
Click here to listen with your own player(launches your MP3 player)

KABE 171828Z 24009KT 10SM FEW047 FEW060 32/22 A2980 RMK AO2 LTG DSNT NE TSB07E13E22 T03220217

KABE Airport Info (Airnav.com)

KABE Flight Activity (Flightaware)

Listeners: 0 out of 2022 total

Allentown Approach/Departure (Above 3000'): 124.450

KABE App/Dep (Below 3000') (Archives)
Allentown, Pennsylvania, United States

Feed Status: UP
Listen in your browser - HTML5 player(in browser, HTML5)
Click here to listen with your own player(launches your MP3 player)

KABE 171828Z 24009KT 10SM FEW047 FEW060 32/22 A2980 RMK AO2 LTG DSNT NE TSB07E13E22 T03220217

KABE Airport Info (Airnav.com)

KABE Flight Activity (Flightaware)

Listeners: 0 out of 2022 total

Allentown Approach/Departure (Below 3000'): 119.650

KABE ATIS (Archives)
Allentown, Pennsylvania, United States

Feed Status: UP
Listen in your browser - HTML5 player(in browser, HTML5)
Click here to listen with your own player(launches your MP3 player)

KABE 171828Z 24009KT 10SM FEW047 FEW060 32/22 A2980 RMK AO2 LTG DSNT NE TSB07E13E22 T03220217

KABE Airport Info (Airnav.com)

KABE Flight Activity (Flightaware)

Listeners: 0 out of 2022 total

Allentown ATIS: 126.975

KABE Clearance Delivery (Archives)
Allentown, Pennsylvania, United States

Feed Status: UP
Listen in your browser - HTML5 player(in browser, HTML5)
Click here to listen with your own player(launches your MP3 player)

KABE 171828Z 24009KT 10SM FEW047 FEW060 32/22 A2980 RMK AO2 LTG DSNT NE TSB07E13E22 T03220217

KABE Airport Info (Airnav.com)

KABE Flight Activity (Flightaware)

Listeners: 0 out of 2022 total

Allentown Clearance Delivery: 124.050

KABE Del/Gnd/Twr (Archives)
Allentown, Pennsylvania, United States

Feed Status: UP
Listen in your browser - HTML5 player(in browser, HTML5)
Click here to listen with your own player(launches your MP3 player)

KABE 171828Z 24009KT 10SM FEW047 FEW060 32/22 A2980 RMK AO2 LTG DSNT NE TSB07E13E22 T03220217

KABE Airport Info (Airnav.com)

KABE Flight Activity (Flightaware)

Listeners: 0 out of 2022 total

Allentown Clearance Delivery: 124.050
Allentown Ground: 121.900
Allentown Tower: 120.500

KABE Del/Gnd/Twr/App (Archives)
Allentown, Pennsylvania, United States

Feed Status: UP
Listen in your browser - HTML5 player(in browser, HTML5)
Click here to listen with your own player(launches your MP3 player)

KABE 171828Z 24009KT 10SM FEW047 FEW060 32/22 A2980 RMK AO2 LTG DSNT NE TSB07E13E22 T03220217

KABE Airport Info (Airnav.com)

KABE Flight Activity (Flightaware)

Listeners: 0 out of 2022 total

Allentown Approach/Departure (Above 3000'): 124.450
Allentown Approach/Departure (Below 3000'): 119.650
Allentown Clearance Delivery: 124.050
Allentown Ground: 121.900
Allentown Tower: 120.500

KABE Ground (Archives)
Allentown, Pennsylvania, United States

Feed Status: UP
Listen in your browser - HTML5 player(in browser, HTML5)
Click here to listen with your own player(launches your MP3 player)

KABE 171828Z 24009KT 10SM FEW047 FEW060 32/22 A2980 RMK AO2 LTG DSNT NE TSB07E13E22 T03220217

KABE Airport Info (Airnav.com)

KABE Flight Activity (Flightaware)

Listeners: 0 out of 2022 total

Allentown Ground: 121.900

KABE Tower (Archives)
Allentown, Pennsylvania, United States

Feed Status: UP
Listen in your browser - HTML5 player(in browser, HTML5)
Click here to listen with your own player(launches your MP3 player)

KABE 171828Z 24009KT 10SM FEW047 FEW060 32/22 A2980 RMK AO2 LTG DSNT NE TSB07E13E22 T03220217

KABE Airport Info (Airnav.com)

KABE Flight Activity (Flightaware)

Listeners: 0 out of 2022 total

Allentown Tower: 120.500

KABE Twr/App/Dep (Archives)
Allentown, Pennsylvania, United States

Feed Status: UP
Listen in your browser - HTML5 player(in browser, HTML5)
Click here to listen with your own player(launches your MP3 player)

KABE 171828Z 24009KT 10SM FEW047 FEW060 32/22 A2980 RMK AO2 LTG DSNT NE TSB07E13E22 T03220217

KABE Airport Info (Airnav.com)

KABE Flight Activity (Flightaware)

Listeners: 0 out of 2022 total

Allentown Approach/Departure (Above 3000'): 124.450
Allentown Approach/Departure (Below 3000'): 119.650
Allentown Tower: 120.500

KABQ App/Dep (Main) (Archives)
Albuquerque, New Mexico, United States

Feed Status: UP
Listen in your browser - HTML5 player(in browser, HTML5)
Click here to listen with your own player(launches your MP3 player)

KABQ 171752Z 11007G16KT 10SM FEW080 FEW150 30/11 A3026 RMK AO2 SLP146 T03000106 10311 20239 50001

KABQ Airport Info (Airnav.com)

KABQ Flight Activity (Flightaware)

Listeners: 1 out of 2022 total

Albuquerque Approach/Departure (S of V12): 123.900

KABQ App/Dep (Other) (Archives)
Albuquerque, New Mexico, United States

Feed Status: UP
Listen in your browser - HTML5 player(in browser, HTML5)
Click here to listen with your own player(launches your MP3 player)

KABQ 171752Z 11007G16KT 10SM FEW080 FEW150 30/11 A3026 RMK AO2 SLP146 T03000106 10311 20239 50001

KABQ Airport Info (Airnav.com)

KABQ Flight Activity (Flightaware)

Listeners: 0 out of 2022 total

Albuquerque Approach/Departure (N of V12): 127.400

KABQ Del/Gnd (Archives)
Albuquerque, New Mexico, United States

Feed Status: UP
Listen in your browser - HTML5 player(in browser, HTML5)
Click here to listen with your own player(launches your MP3 player)

KABQ 171752Z 11007G16KT 10SM FEW080 FEW150 30/11 A3026 RMK AO2 SLP146 T03000106 10311 20239 50001

KABQ Airport Info (Airnav.com)

KABQ Flight Activity (Flightaware)

Listeners: 2 out of 2022 total

Albuquerque Clearance Delivery: 119.200
Albuquerque Ground: 121.900

KABQ Tower (Archives)
Albuquerque, New Mexico, United States

Feed Status: UP
Listen in your browser - HTML5 player(in browser, HTML5)
Click here to listen with your own player(launches your MP3 player)

KABQ 171752Z 11007G16KT 10SM FEW080 FEW150 30/11 A3026 RMK AO2 SLP146 T03000106 10311 20239 50001

KABQ Airport Info (Airnav.com)

KABQ Flight Activity (Flightaware)

Listeners: 2 out of 2022 total

Albuquerque Tower: 120.300

KABQ Tower #2 (Archives)
Albuquerque, New Mexico, United States

Feed Status: UP
Listen in your browser - HTML5 player(in browser, HTML5)
Click here to listen with your own player(launches your MP3 player)

KABQ 171752Z 11007G16KT 10SM FEW080 FEW150 30/11 A3026 RMK AO2 SLP146 T03000106 10311 20239 50001

KABQ Airport Info (Airnav.com)

KABQ Flight Activity (Flightaware)

Listeners: 0 out of 2022 total

Albuquerque Tower: 120.300

KABQ Twr/App/ZAB (Archives)
Albuquerque, New Mexico, United States

Feed Status: UP
Listen in your browser - HTML5 player(in browser, HTML5)
Click here to listen with your own player(launches your MP3 player)

KABQ 171752Z 11007G16KT 10SM FEW080 FEW150 30/11 A3026 RMK AO2 SLP146 T03000106 10311 20239 50001

KABQ Airport Info (Airnav.com)

KABQ Flight Activity (Flightaware)

Listeners: 2 out of 2022 total

Albuquerque Approach (South): 126.300
Albuquerque Approach/Departure (N of V12): 127.400
Albuquerque Approach/Departure (S of V12): 123.900
Albuquerque Clearance Delivery: 119.200
Albuquerque Tower: 120.300
Albuquerque Tower (South): 123.775
Albuquerque UNICOM: 122.950
ZAB Albuquerque Center Sector 16 SAN-L: 132.800
ZAB Albuquerque Center Sector 17 LAVA-L: 124.325
ZAB Albuquerque Center Sector 94 CNX-LH: 133.650

KACY App/Dep (Archives)
Atlantic City, New Jersey, United States

Feed Status: UP
Listen in your browser - HTML5 player(in browser, HTML5)
Click here to listen with your own player(launches your MP3 player)

KACY 171754Z 18008KT 10SM FEW038 33/24 A2983 RMK AO2 SLP102 T03280244 10339 20256 56010

KACY Airport Info (Airnav.com)

KACY Flight Activity (Flightaware)

Listeners: 1 out of 2022 total

Atlantic City Approach/Departure: 124.600
Atlantic City Approach/Departure: 134.250
Atlantic City Approach/Departure: 385.500
Atlantic City Approach/Departure: 327.125

KACY ATIS (Archives)
Atlantic City, New Jersey, United States

Feed Status: UP
Listen in your browser - HTML5 player(in browser, HTML5)
Click here to listen with your own player(launches your MP3 player)

KACY 171754Z 18008KT 10SM FEW038 33/24 A2983 RMK AO2 SLP102 T03280244 10339 20256 56010

KACY Airport Info (Airnav.com)

KACY Flight Activity (Flightaware)

Listeners: 0 out of 2022 total

Atlantic City ATIS: 125.725

KACY Clearance Delivery (Archives)
Atlantic City, New Jersey, United States

Feed Status: UP
Listen in your browser - HTML5 player(in browser, HTML5)
Click here to listen with your own player(launches your MP3 player)

KACY 171754Z 18008KT 10SM FEW038 33/24 A2983 RMK AO2 SLP102 T03280244 10339 20256 56010

KACY Airport Info (Airnav.com)

KACY Flight Activity (Flightaware)

Listeners: 0 out of 2022 total

Atlantic City Clearance: 127.850

KACY GIANT KILLER (Archives)
Atlantic City, New Jersey, United States

Feed Status: UP
Listen in your browser - HTML5 player(in browser, HTML5)
Click here to listen with your own player(launches your MP3 player)

KACY 171754Z 18008KT 10SM FEW038 33/24 A2983 RMK AO2 SLP102 T03280244 10339 20256 56010

KACY Airport Info (Airnav.com)

KACY Flight Activity (Flightaware)

Listeners: 0 out of 2022 total

GIANT KILLER Common Area (Air-Air): 337.225
GIANT KILLER W-105/W-106 Check In/Out: 135.225
GIANT KILLER W-105/W-106 Check In/Out: 338.100
GIANT KILLER W-105/W-106 Common Area: 305.250
GIANT KILLER W-107 Check In/Out: 135.725
GIANT KILLER W-107 Check In/Out: 255.000
GIANT KILLER W-107 Common Area: 339.725
GIANT KILLER W-386 Common Area (A through F): 312.200
GIANT KILLER W-386 Common Area (G through J): 350.050
GIANT KILLER W-386 Common Area (K) and W-387 Common Area (All): 346.600
GIANT KILLER W-386/W-387 Check In/Out: 118.125
GIANT KILLER W-386/W-387 Check In/Out (Primary): 238.100
GIANT KILLER W-386/W-387 Check In/Out (Secondary): 249.800

KACY Ground (Archives)
Atlantic City, New Jersey, United States

Feed Status: UP
Listen in your browser - HTML5 player(in browser, HTML5)
Click here to listen with your own player(launches your MP3 player)

KACY 171754Z 18008KT 10SM FEW038 33/24 A2983 RMK AO2 SLP102 T03280244 10339 20256 56010

KACY Airport Info (Airnav.com)

KACY Flight Activity (Flightaware)

Listeners: 0 out of 2022 total

Atlantic City Ground: 121.900

KACY Tower (Archives)
Atlantic City, New Jersey, United States

Feed Status: UP
Listen in your browser - HTML5 player(in browser, HTML5)
Click here to listen with your own player(launches your MP3 player)

KACY 171754Z 18008KT 10SM FEW038 33/24 A2983 RMK AO2 SLP102 T03280244 10339 20256 56010

KACY Airport Info (Airnav.com)

KACY Flight Activity (Flightaware)

Listeners: 0 out of 2022 total

Atlantic City Tower: 120.300

KALB Approach/Departure (Archives)
Albany, New York, United States

Feed Status: UP
Listen in your browser - HTML5 player(in browser, HTML5)
Click here to listen with your own player(launches your MP3 player)

KALB 171751Z 08003KT 8SM -RA FEW007 BKN047CB BKN080 BKN250 24/22 A2981 RMK AO2 WSHFT 1648 LTG DSNT NE TSE44 SLP092 CB NE-SE MOV NE P0045 60045 T02440217 10311 20233 50001

KALB Airport Info (Airnav.com)

KALB Flight Activity (Flightaware)

Listeners: 1 out of 2022 total

Albany Approach/Departure: 132.825
Albany Approach/Departure: 118.050
Albany Approach/Departure: 127.150

KALB ATIS (Archives)
Albany, New York, United States

Feed Status: UP
Listen in your browser - HTML5 player(in browser, HTML5)
Click here to listen with your own player(launches your MP3 player)

KALB 171751Z 08003KT 8SM -RA FEW007 BKN047CB BKN080 BKN250 24/22 A2981 RMK AO2 WSHFT 1648 LTG DSNT NE TSE44 SLP092 CB NE-SE MOV NE P0045 60045 T02440217 10311 20233 50001

KALB Airport Info (Airnav.com)

KALB Flight Activity (Flightaware)

Listeners: 1 out of 2022 total

Albany ATIS: 120.450

KALB Ground (Archives)
Albany, New York, United States

Feed Status: UP
Listen in your browser - HTML5 player(in browser, HTML5)
Click here to listen with your own player(launches your MP3 player)

KALB 171751Z 08003KT 8SM -RA FEW007 BKN047CB BKN080 BKN250 24/22 A2981 RMK AO2 WSHFT 1648 LTG DSNT NE TSE44 SLP092 CB NE-SE MOV NE P0045 60045 T02440217 10311 20233 50001

KALB Airport Info (Airnav.com)

KALB Flight Activity (Flightaware)

Listeners: 1 out of 2022 total

Albany Ground: 121.700

KALB Ground/Tower (Archives)
Albany, New York, United States

Feed Status: UP
Listen in your browser - HTML5 player(in browser, HTML5)
Click here to listen with your own player(launches your MP3 player)

KALB 171751Z 08003KT 8SM -RA FEW007 BKN047CB BKN080 BKN250 24/22 A2981 RMK AO2 WSHFT 1648 LTG DSNT NE TSE44 SLP092 CB NE-SE MOV NE P0045 60045 T02440217 10311 20233 50001

KALB Airport Info (Airnav.com)

KALB Flight Activity (Flightaware)

Listeners: 2 out of 2022 total

Albany Ground: 121.700
Albany Tower: 119.500

KALB Tower (Archives)
Albany, New York, United States

Feed Status: UP
Listen in your browser - HTML5 player(in browser, HTML5)
Click here to listen with your own player(launches your MP3 player)

KALB 171751Z 08003KT 8SM -RA FEW007 BKN047CB BKN080 BKN250 24/22 A2981 RMK AO2 WSHFT 1648 LTG DSNT NE TSE44 SLP092 CB NE-SE MOV NE P0045 60045 T02440217 10311 20233 50001

KALB Airport Info (Airnav.com)

KALB Flight Activity (Flightaware)

Listeners: 0 out of 2022 total

Albany Tower: 119.500

KAMA Twr/App/Center (Archives)
Amarillo, Texas, United States

Feed Status: UP
Listen in your browser - HTML5 player(in browser, HTML5)
Click here to listen with your own player(launches your MP3 player)

KAMA 171753Z 04013G20KT 10SM CLR 29/17 A3021 RMK AO2 SLP174 T02940167 10300 20206 50007

KAMA Airport Info (Airnav.com)

KAMA Flight Activity (Flightaware)

Listeners: 2 out of 2022 total

Albuquerque Center: 127.850
Amarillo Approach: 119.500
Amarillo Tower: 118.300

Portland Approach (AUG Area) (Archives)
Augusta, Maine, United States

Feed Status: UP
Listen in your browser - HTML5 player(in browser, HTML5)
Click here to listen with your own player(launches your MP3 player)

KAUG 171753Z AUTO 20007KT 170V250 10SM SCT036 BKN047 31/22 A2978 RMK AO2 SLP083 6//// T03060222 10306 20250 58008

KAUG Airport Info (Airnav.com)

KAUG Flight Activity (Flightaware)

Listeners: 0 out of 2022 total

Portland Approach (Augusta): 128.350

KAUS App/Dep #1 (Archives)
Austin, Texas, United States

Feed Status: UP
Listen in your browser - HTML5 player(in browser, HTML5)
Click here to listen with your own player(launches your MP3 player)

KAUS 171753Z 19006KT 10SM FEW044 SCT200 SCT300 33/22 A3001 RMK AO2 SLP149 T03330222 10339 20228 58002

KAUS Airport Info (Airnav.com)

KAUS Flight Activity (Flightaware)

Listeners: 2 out of 2022 total

Austin Approach (Final): 125.325
Austin Approach (West): 119.000
Austin Approach/Departure (East): 127.225
Austin Approach/Departure (SE): 118.150
Austin Approach/Departure (South): 120.875

KAUS App/Dep (East) #1 (Archives)
Austin, Texas, United States

Feed Status: UP
Listen in your browser - HTML5 player(in browser, HTML5)
Click here to listen with your own player(launches your MP3 player)

KAUS 171753Z 19006KT 10SM FEW044 SCT200 SCT300 33/22 A3001 RMK AO2 SLP149 T03330222 10339 20228 58002

KAUS Airport Info (Airnav.com)

KAUS Flight Activity (Flightaware)

Listeners: 1 out of 2022 total

Austin Approach/Departure (East): 127.225

KAUS App/Dep (SE) (Archives)
Austin, Texas, United States

Feed Status: UP
Listen in your browser - HTML5 player(in browser, HTML5)
Click here to listen with your own player(launches your MP3 player)

KAUS 171753Z 19006KT 10SM FEW044 SCT200 SCT300 33/22 A3001 RMK AO2 SLP149 T03330222 10339 20228 58002

KAUS Airport Info (Airnav.com)

KAUS Flight Activity (Flightaware)

Listeners: 0 out of 2022 total

Austin Approach/Departure (SE): 118.150

KAUS App/Dep (South) #1 (Archives)
Austin, Texas, United States

Feed Status: UP
Listen in your browser - HTML5 player(in browser, HTML5)
Click here to listen with your own player(launches your MP3 player)

KAUS 171753Z 19006KT 10SM FEW044 SCT200 SCT300 33/22 A3001 RMK AO2 SLP149 T03330222 10339 20228 58002

KAUS Airport Info (Airnav.com)

KAUS Flight Activity (Flightaware)

Listeners: 0 out of 2022 total

Austin Approach/Departure (South): 120.875

KAUS App/Dep (West) #1 (Archives)
Austin, Texas, United States

Feed Status: UP
Listen in your browser - HTML5 player(in browser, HTML5)
Click here to listen with your own player(launches your MP3 player)

KAUS 171753Z 19006KT 10SM FEW044 SCT200 SCT300 33/22 A3001 RMK AO2 SLP149 T03330222 10339 20228 58002

KAUS Airport Info (Airnav.com)

KAUS Flight Activity (Flightaware)

Listeners: 0 out of 2022 total

Austin Approach (West): 119.000

KAUS ATIS (Archives)
Austin, Texas, United States

Feed Status: UP
Listen in your browser - HTML5 player(in browser, HTML5)
Click here to listen with your own player(launches your MP3 player)

KAUS 171753Z 19006KT 10SM FEW044 SCT200 SCT300 33/22 A3001 RMK AO2 SLP149 T03330222 10339 20228 58002

KAUS Airport Info (Airnav.com)

KAUS Flight Activity (Flightaware)

Listeners: 0 out of 2022 total

Austin ATIS: 124.400

KAUS Clearance Delivery #1 (Archives)
Austin, Texas, United States

Feed Status: UP
Listen in your browser - HTML5 player(in browser, HTML5)
Click here to listen with your own player(launches your MP3 player)

KAUS 171753Z 19006KT 10SM FEW044 SCT200 SCT300 33/22 A3001 RMK AO2 SLP149 T03330222 10339 20228 58002

KAUS Airport Info (Airnav.com)

KAUS Flight Activity (Flightaware)

Listeners: 0 out of 2022 total

Austin Clearance Delivery: 125.500

KAUS FBO (Atlantic Aviation) (Archives)
Austin, Texas, United States

Feed Status: UP
Listen in your browser - HTML5 player(in browser, HTML5)
Click here to listen with your own player(launches your MP3 player)

KAUS 171753Z 19006KT 10SM FEW044 SCT200 SCT300 33/22 A3001 RMK AO2 SLP149 T03330222 10339 20228 58002

KAUS Airport Info (Airnav.com)

KAUS Flight Activity (Flightaware)

Listeners: 0 out of 2022 total

Atlantic Aviation FBO: 130.225

KAUS FBO (Millionair) (Archives)
Austin, Texas, United States

Feed Status: UP
Listen in your browser - HTML5 player(in browser, HTML5)
Click here to listen with your own player(launches your MP3 player)

KAUS 171753Z 19006KT 10SM FEW044 SCT200 SCT300 33/22 A3001 RMK AO2 SLP149 T03330222 10339 20228 58002

KAUS Airport Info (Airnav.com)

KAUS Flight Activity (Flightaware)

Listeners: 0 out of 2022 total

Millionair FBO: 130.600

KAUS FBO (Signature) (Archives)
Austin, Texas, United States

Feed Status: UP
Listen in your browser - HTML5 player(in browser, HTML5)
Click here to listen with your own player(launches your MP3 player)

KAUS 171753Z 19006KT 10SM FEW044 SCT200 SCT300 33/22 A3001 RMK AO2 SLP149 T03330222 10339 20228 58002

KAUS Airport Info (Airnav.com)

KAUS Flight Activity (Flightaware)

Listeners: 0 out of 2022 total

Signature Aviation FBO: 130.375

KAUS Ground #1 (Archives)
Austin, Texas, United States

Feed Status: UP
Listen in your browser - HTML5 player(in browser, HTML5)
Click here to listen with your own player(launches your MP3 player)

KAUS 171753Z 19006KT 10SM FEW044 SCT200 SCT300 33/22 A3001 RMK AO2 SLP149 T03330222 10339 20228 58002

KAUS Airport Info (Airnav.com)

KAUS Flight Activity (Flightaware)

Listeners: 0 out of 2022 total

Austin Ground: 121.900

KAUS Ground (Secondary) #1 (Archives)
Austin, Texas, United States

Feed Status: UP
Listen in your browser - HTML5 player(in browser, HTML5)
Click here to listen with your own player(launches your MP3 player)

KAUS 171753Z 19006KT 10SM FEW044 SCT200 SCT300 33/22 A3001 RMK AO2 SLP149 T03330222 10339 20228 58002

KAUS Airport Info (Airnav.com)

KAUS Flight Activity (Flightaware)

Listeners: 0 out of 2022 total

KAUS Ground (Secondary) #1: 121.700

KAUS Helicopter (Archives)
Austin, Texas, United States

Feed Status: UP
Listen in your browser - HTML5 player(in browser, HTML5)
Click here to listen with your own player(launches your MP3 player)

KAUS 171753Z 19006KT 10SM FEW044 SCT200 SCT300 33/22 A3001 RMK AO2 SLP149 T03330222 10339 20228 58002

KAUS Airport Info (Airnav.com)

KAUS Flight Activity (Flightaware)

Listeners: 0 out of 2022 total

KAUS Helicopter: 119.850

KAUS Tower #1 (Archives)
Austin, Texas, United States

Feed Status: UP
Listen in your browser - HTML5 player(in browser, HTML5)
Click here to listen with your own player(launches your MP3 player)

KAUS 171753Z 19006KT 10SM FEW044 SCT200 SCT300 33/22 A3001 RMK AO2 SLP149 T03330222 10339 20228 58002

KAUS Airport Info (Airnav.com)

KAUS Flight Activity (Flightaware)

Listeners: 2 out of 2022 total

Austin Tower: 121.000

KAUS Tower (Emergency) (Archives)
Austin, Texas, United States

Feed Status: UP
Listen in your browser - HTML5 player(in browser, HTML5)
Click here to listen with your own player(launches your MP3 player)

KAUS 171753Z 19006KT 10SM FEW044 SCT200 SCT300 33/22 A3001 RMK AO2 SLP149 T03330222 10339 20228 58002

KAUS Airport Info (Airnav.com)

KAUS Flight Activity (Flightaware)

Listeners: 0 out of 2022 total

Austin Tower (Emergency): 128.350

KAUS Tower (Secondary) #1 (Archives)
Austin, Texas, United States

Feed Status: UP
Listen in your browser - HTML5 player(in browser, HTML5)
Click here to listen with your own player(launches your MP3 player)

KAUS 171753Z 19006KT 10SM FEW044 SCT200 SCT300 33/22 A3001 RMK AO2 SLP149 T03330222 10339 20228 58002

KAUS Airport Info (Airnav.com)

KAUS Flight Activity (Flightaware)

Listeners: 0 out of 2022 total

KAUS Tower (Secondary) #1: 118.225

KAVL Approach/Departure (Archives)
Asheville, North Carolina, United States

Feed Status: UP
Listen in your browser - HTML5 player(in browser, HTML5)
Click here to listen with your own player(launches your MP3 player)

KAVL 171754Z VRB03KT 10SM SCT055 SCT085 29/20 A3006 RMK AO2 LTG DSNT SW SLP149 T02890200 10306 20217 58007

KAVL Airport Info (Airnav.com)

KAVL Flight Activity (Flightaware)

Listeners: 0 out of 2022 total

Asheville Approach/Departure: 125.800
Asheville Approach/Departure: 124.650

KAVL ATIS (Archives)
Asheville, North Carolina, United States

Feed Status: UP
Listen in your browser - HTML5 player(in browser, HTML5)
Click here to listen with your own player(launches your MP3 player)

KAVL 171754Z VRB03KT 10SM SCT055 SCT085 29/20 A3006 RMK AO2 LTG DSNT SW SLP149 T02890200 10306 20217 58007

KAVL Airport Info (Airnav.com)

KAVL Flight Activity (Flightaware)

Listeners: 0 out of 2022 total

KAVL ATIS: 120.100

KAVL Gnd/Twr (Archives)
Asheville, North Carolina, United States

Feed Status: UP
Listen in your browser - HTML5 player(in browser, HTML5)
Click here to listen with your own player(launches your MP3 player)

KAVL 171754Z VRB03KT 10SM SCT055 SCT085 29/20 A3006 RMK AO2 LTG DSNT SW SLP149 T02890200 10306 20217 58007

KAVL Airport Info (Airnav.com)

KAVL Flight Activity (Flightaware)

Listeners: 0 out of 2022 total

Asheville Ground: 121.900
Asheville Tower: 121.100

KAVL Gnd/Twr/App (Archives)
Asheville, North Carolina, United States

Feed Status: UP
Listen in your browser - HTML5 player(in browser, HTML5)
Click here to listen with your own player(launches your MP3 player)

KAVL 171754Z VRB03KT 10SM SCT055 SCT085 29/20 A3006 RMK AO2 LTG DSNT SW SLP149 T02890200 10306 20217 58007

KAVL Airport Info (Airnav.com)

KAVL Flight Activity (Flightaware)

Listeners: 0 out of 2022 total

Asheville Approach/Departure: 124.650
Asheville Approach/Departure: 125.800
Asheville Ground: 121.900
Asheville Tower/CTAF: 121.100
Signature Aviation (FBO): 130.275

KAVL Ground (Archives)
Asheville, North Carolina, United States

Feed Status: UP
Listen in your browser - HTML5 player(in browser, HTML5)
Click here to listen with your own player(launches your MP3 player)

KAVL 171754Z VRB03KT 10SM SCT055 SCT085 29/20 A3006 RMK AO2 LTG DSNT SW SLP149 T02890200 10306 20217 58007

KAVL Airport Info (Airnav.com)

KAVL Flight Activity (Flightaware)

Listeners: 0 out of 2022 total

Asheville Ground: 121.900

KAVL Tower (Archives)
Asheville, North Carolina, United States

Feed Status: UP
Listen in your browser - HTML5 player(in browser, HTML5)
Click here to listen with your own player(launches your MP3 player)

KAVL 171754Z VRB03KT 10SM SCT055 SCT085 29/20 A3006 RMK AO2 LTG DSNT SW SLP149 T02890200 10306 20217 58007

KAVL Airport Info (Airnav.com)

KAVL Flight Activity (Flightaware)

Listeners: 0 out of 2022 total

Asheville Tower: 121.100

KBTL/KAZO Gnd/Twr/App (Archives)
Kalamazoo, Michigan, United States

Feed Status: UP
Listen in your browser - HTML5 player(in browser, HTML5)
Click here to listen with your own player(launches your MP3 player)

KBTL Airport Info (Airnav.com)

KBTL Flight Activity (Flightaware)

Listeners: 1 out of 2022 total

Battle Creek Ground: 121.700
Battle Creek Tower: 126.825
Kalamazoo Approach/Departure: 119.200
Kalamazoo Ground: 121.900
Kalamazoo Tower: 118.300

KBDL Approach/ANG (Archives)
Windsor Locks, Connecticut, United States

Feed Status: UP
Listen in your browser - HTML5 player(in browser, HTML5)
Click here to listen with your own player(launches your MP3 player)

KBDL 171751Z 18008KT 10SM FEW040 FEW090 SCT250 33/23 A2981 RMK AO2 SLP091 T03330228 10333 20256 58021

KBDL Airport Info (Airnav.com)

KBDL Flight Activity (Flightaware)

Listeners: 2 out of 2022 total

Bradley Approach (South): 127.800
Bradley Approach (South): 269.325
Bradley Approach (Spare): 127.225
Bradley Approach/Departure (North): 125.350
Bradley Approach/Departure (North): 281.500
Bradley Approach/Departure (West): 123.950
Bradley Approach/Departure (West): 290.550
Bradley Departure (South): 327.100
Bradley Departure (South): 323.200
CT ANG FURY Ops: 41.900
CT ANG FURY Ops: 139.200
CT ANG FURY Ops: 139.400
CT ANG FURY Ops: 243.900
CT ANG FURY Ops: 265.600
CT ANG SHARK Ops: 138.550
CT ANG SHARK Ops: 349.700
Emergency/Guard: 121.500
Emergency/Guard: 243.000

KBDL ATIS (Archives)
Windsor Locks, Connecticut, United States

Feed Status: UP
Listen in your browser - HTML5 player(in browser, HTML5)
Click here to listen with your own player(launches your MP3 player)

KBDL 171751Z 18008KT 10SM FEW040 FEW090 SCT250 33/23 A2981 RMK AO2 SLP091 T03330228 10333 20256 58021

KBDL Airport Info (Airnav.com)

KBDL Flight Activity (Flightaware)

Listeners: 0 out of 2022 total

Bradley ATIS: 118.150

KBDL Del/Gnd (Archives)
Windsor Locks, Connecticut, United States

Feed Status: UP
Listen in your browser - HTML5 player(in browser, HTML5)
Click here to listen with your own player(launches your MP3 player)

KBDL 171751Z 18008KT 10SM FEW040 FEW090 SCT250 33/23 A2981 RMK AO2 SLP091 T03330228 10333 20256 58021

KBDL Airport Info (Airnav.com)

KBDL Flight Activity (Flightaware)

Listeners: 1 out of 2022 total

Bradley Clearance Delivery: 121.750
Bradley Ground: 121.900
Emergency/Guard: 121.500

KBDL Tower (Archives)
Windsor Locks, Connecticut, United States

Feed Status: UP
Listen in your browser - HTML5 player(in browser, HTML5)
Click here to listen with your own player(launches your MP3 player)

KBDL 171751Z 18008KT 10SM FEW040 FEW090 SCT250 33/23 A2981 RMK AO2 SLP091 T03330228 10333 20256 58021

KBDL Airport Info (Airnav.com)

KBDL Flight Activity (Flightaware)

Listeners: 0 out of 2022 total

Bradley Tower: 120.300

KBDL Twr/App (Archives)
Windsor Locks, Connecticut, United States

Feed Status: UP
Listen in your browser - HTML5 player(in browser, HTML5)
Click here to listen with your own player(launches your MP3 player)

KBDL 171751Z 18008KT 10SM FEW040 FEW090 SCT250 33/23 A2981 RMK AO2 SLP091 T03330228 10333 20256 58021

KBDL Airport Info (Airnav.com)

KBDL Flight Activity (Flightaware)

Listeners: 3 out of 2022 total

Bradley Approach (South): 127.800
Bradley Approach (South): 269.325
Bradley Approach (Spare): 127.225
Bradley Approach/Departure (North): 125.350
Bradley Approach/Departure (North): 281.500
Bradley Approach/Departure (West): 290.550
Bradley Approach/Departure (West): 123.950
Bradley Tower: 120.300
CT ANG FURY Ops: 41.900
CT ANG FURY Ops: 265.600
CT ANG FURY Ops: 243.900
CT ANG FURY Ops: 139.400
CT ANG FURY Ops: 139.200
CT ANG SHARK Ops: 349.700
CT ANG SHARK Ops: 138.550
Emergency/Guard: 243.000
Emergency/Guard: 121.500

KBGR App/Dep (Archives)
Bangor, Maine, United States

Feed Status: UP
Listen in your browser - HTML5 player(in browser, HTML5)
Click here to listen with your own player(launches your MP3 player)

KBGR 171753Z 23012G17KT 10SM SCT045 BKN055 31/21 A2976 RMK AO2 SLP074 T03110206 10311 20244 56005

KBGR Airport Info (Airnav.com)

KBGR Flight Activity (Flightaware)

Listeners: 0 out of 2022 total

Bangor Approach: 118.925
Bangor Approach: 124.500
Bangor Approach: 133.600
Bangor Approach: 239.300

KBGR ATIS (Archives)
Bangor, Maine, United States

Feed Status: UP
Listen in your browser - HTML5 player(in browser, HTML5)
Click here to listen with your own player(launches your MP3 player)

KBGR 171753Z 23012G17KT 10SM SCT045 BKN055 31/21 A2976 RMK AO2 SLP074 T03110206 10311 20244 56005

KBGR Airport Info (Airnav.com)

KBGR Flight Activity (Flightaware)

Listeners: 0 out of 2022 total

Bangor ATIS: 127.750

KBGR Del/Gnd/Twr (Archives)
Bangor, Maine, United States

Feed Status: UP
Listen in your browser - HTML5 player(in browser, HTML5)
Click here to listen with your own player(launches your MP3 player)

KBGR 171753Z 23012G17KT 10SM SCT045 BKN055 31/21 A2976 RMK AO2 SLP074 T03110206 10311 20244 56005

KBGR Airport Info (Airnav.com)

KBGR Flight Activity (Flightaware)

Listeners: 0 out of 2022 total

Bangor Clearance Delivery: 135.900
Bangor Ground: 121.900
Bangor Tower: 120.700

KBHM Del/Gnd/Twr/App (Archives)
Birmingham, Alabama, United States

Feed Status: UP
Listen in your browser - HTML5 player(in browser, HTML5)
Click here to listen with your own player(launches your MP3 player)

KBHM 171821Z 31005KT 10SM VCTS SCT050TCU 31/21 A3004 RMK AO2 LTG DSNT ALQDS CB DSNT N-E-SE TCU W T03110206

KBHM Airport Info (Airnav.com)

KBHM Flight Activity (Flightaware)

Listeners: 2 out of 2022 total

Birmingham Approach/Departure: 127.675
Birmingham Approach/Departure: 123.800
Birmingham Clearance Delivery: 125.675
Birmingham Ground: 121.700
Birmingham Tower: 118.250
Birmingham Tower: 119.900

KBIL Approach (West) (Archives)
Billings, Montana, United States

Feed Status: UP
Listen in your browser - HTML5 player(in browser, HTML5)
Click here to listen with your own player(launches your MP3 player)

KBIL 171753Z 09006KT 10SM CLR 29/12 A3019 RMK AO2 SLP185 T02890122 10289 20178 58004

KBIL Airport Info (Airnav.com)

KBIL Flight Activity (Flightaware)

Listeners: 1 out of 2022 total

Billing Approach (West): 120.500

KBIL Ground (Archives)
Billings, Montana, United States

Feed Status: UP
Listen in your browser - HTML5 player(in browser, HTML5)
Click here to listen with your own player(launches your MP3 player)

KBIL 171753Z 09006KT 10SM CLR 29/12 A3019 RMK AO2 SLP185 T02890122 10289 20178 58004

KBIL Airport Info (Airnav.com)

KBIL Flight Activity (Flightaware)

Listeners: 0 out of 2022 total

Billings Ground: 121.900

KBIL Tower (Archives)
Billings, Montana, United States

Feed Status: UP
Listen in your browser - HTML5 player(in browser, HTML5)
Click here to listen with your own player(launches your MP3 player)

KBIL 171753Z 09006KT 10SM CLR 29/12 A3019 RMK AO2 SLP185 T02890122 10289 20178 58004

KBIL Airport Info (Airnav.com)

KBIL Flight Activity (Flightaware)

Listeners: 2 out of 2022 total

Billings Tower: 127.200

KBNA App/Dep (Archives)
Nashville, Tennessee, United States

Feed Status: UP
Listen in your browser - HTML5 player(in browser, HTML5)
Click here to listen with your own player(launches your MP3 player)

KBNA 171753Z 28013G20KT 10SM SCT044TCU SCT060 BKN170 BKN250 34/20 A2996 RMK AO2 LTG DSNT N SLP138 TCU ALQDS T03390200 10344 20261 58004

KBNA Airport Info (Airnav.com)

KBNA Flight Activity (Flightaware)

Listeners: 2 out of 2022 total

Nashville App/Dep (East): 118.400
Nashville App/Dep (West): 119.350
Nashville Approach (Final): 124.750

KBNA App/Dep (East) (Archives)
Nashville, Tennessee, United States

Feed Status: UP
Listen in your browser - HTML5 player(in browser, HTML5)
Click here to listen with your own player(launches your MP3 player)

KBNA 171753Z 28013G20KT 10SM SCT044TCU SCT060 BKN170 BKN250 34/20 A2996 RMK AO2 LTG DSNT N SLP138 TCU ALQDS T03390200 10344 20261 58004

KBNA Airport Info (Airnav.com)

KBNA Flight Activity (Flightaware)

Listeners: 0 out of 2022 total

Nashville App/Dep (East): 118.400

KBOI Del/Gnd (Archives)
Boise, Idaho, United States

Feed Status: UP
Listen in your browser - HTML5 player(in browser, HTML5)
Click here to listen with your own player(launches your MP3 player)

KBOI 171753Z 31014G21KT 10SM CLR 34/06 A3004 RMK AO2 SLP135 T03390061 10339 20217 53009

KBOI Airport Info (Airnav.com)

KBOI Flight Activity (Flightaware)

Listeners: 0 out of 2022 total

Boise Clearance Delivery: 125.900
Boise Ground: 121.700

KBOI Twr/App (Archives)
Boise, Idaho, United States

Feed Status: UP
Listen in your browser - HTML5 player(in browser, HTML5)
Click here to listen with your own player(launches your MP3 player)

KBOI 171753Z 31014G21KT 10SM CLR 34/06 A3004 RMK AO2 SLP135 T03390061 10339 20217 53009

KBOI Airport Info (Airnav.com)

KBOI Flight Activity (Flightaware)

Listeners: 11 out of 2022 total

Boise Approach/Departure (North): 126.900
Boise Approach/Departure (South): 119.600
Boise Tower: 118.100

KBTR/KHZR/L38 Del/Gnd/Twr/App/CTAF
Baton Rouge, Louisiana, United States

Feed Status: DOWN
Offline since: 2023-10-29 21:18:22 UTC

KBTR 171807Z 30019G30KT 10SM VCTS FEW028 BKN043 BKN060 28/20 A3006 RMK AO2 PK WND 28032/1756 WSHFT 1752 LTG DSNT ALQDS T02780200

KBTR Airport Info (Airnav.com)

Baton Rouge Approach/Departure (East): 126.500
Baton Rouge Approach/Departure (Military): 278.300
Baton Rouge Approach/Departure (West): 120.300
Baton Rouge Clearance Delivery: 119.400
Baton Rouge Ground: 121.900
Baton Rouge Tower (Military): 257.800
Baton Rouge Tower/CTAF: 118.450
Baton Rouge UNICOM: 122.950
Houston Center (App/Dep when Approach closed): 338.250
Houston Center (App/Dep when Approach closed): 126.350
Louisiana Regional L38 CTAF: 123.000
United Airlines: 129.925

KBTV App/Dep (Archives)
Burlington, Vermont, United States

Feed Status: UP
Listen in your browser - HTML5 player(in browser, HTML5)
Click here to listen with your own player(launches your MP3 player)

KBTV 171754Z 19006KT 10SM VCTS FEW050 BKN060 OVC200 28/22 A2976 RMK AO2 LTG DSNT W TSE51 SLP074 BINOVC T02830217 10283 20228 58010

KBTV Airport Info (Airnav.com)

KBTV Flight Activity (Flightaware)

Listeners: 1 out of 2022 total

Burlington Approach/Departure: 278.800
Burlington Approach/Departure: 121.100

KBTV ATIS (Archives)
Burlington, Vermont, United States

Feed Status: UP
Listen in your browser - HTML5 player(in browser, HTML5)
Click here to listen with your own player(launches your MP3 player)

KBTV 171754Z 19006KT 10SM VCTS FEW050 BKN060 OVC200 28/22 A2976 RMK AO2 LTG DSNT W TSE51 SLP074 BINOVC T02830217 10283 20228 58010

KBTV Airport Info (Airnav.com)

KBTV Flight Activity (Flightaware)

Listeners: 0 out of 2022 total

Burlington ATIS: 123.800

KBTV Del/Gnd/Twr (Archives)
Burlington, Vermont, United States

Feed Status: UP
Listen in your browser - HTML5 player(in browser, HTML5)
Click here to listen with your own player(launches your MP3 player)

KBTV 171754Z 19006KT 10SM VCTS FEW050 BKN060 OVC200 28/22 A2976 RMK AO2 LTG DSNT W TSE51 SLP074 BINOVC T02830217 10283 20228 58010

KBTV Airport Info (Airnav.com)

KBTV Flight Activity (Flightaware)

Listeners: 3 out of 2022 total

Burlington Clearance Delivery: 119.150
Burlington Ground: 126.300
Burlington Ground: 348.600
Burlington Tower: 118.300
Burlington Tower: 257.800

KBTV Del/Gnd/Twr/App #1 (Archives)
Burlington, Vermont, United States

Feed Status: UP
Listen in your browser - HTML5 player(in browser, HTML5)
Click here to listen with your own player(launches your MP3 player)

KBTV 171754Z 19006KT 10SM VCTS FEW050 BKN060 OVC200 28/22 A2976 RMK AO2 LTG DSNT W TSE51 SLP074 BINOVC T02830217 10283 20228 58010

KBTV Airport Info (Airnav.com)

KBTV Flight Activity (Flightaware)

Listeners: 1 out of 2022 total

Burlington Approach/Departure: 278.800
Burlington Approach/Departure: 121.100
Burlington Clearance Delivery: 119.150
Burlington Ground: 126.300
Burlington Ground: 348.600
Burlington Tower: 257.800
Burlington Tower: 118.300

KBTV Del/Gnd/Twr/App #2 (Archives)
Burlington, Vermont, United States

Feed Status: UP
Listen in your browser - HTML5 player(in browser, HTML5)
Click here to listen with your own player(launches your MP3 player)

KBTV 171754Z 19006KT 10SM VCTS FEW050 BKN060 OVC200 28/22 A2976 RMK AO2 LTG DSNT W TSE51 SLP074 BINOVC T02830217 10283 20228 58010

KBTV Airport Info (Airnav.com)

KBTV Flight Activity (Flightaware)

Listeners: 0 out of 2022 total

Burlington Clearance Delivery: 119.150
Burlington Ground: 126.300
Burlington Tower: 118.300

KBUF Gnd/Twr/App (Archives)
Buffalo, New York, United States

Feed Status: UP
Listen in your browser - HTML5 player(in browser, HTML5)
Click here to listen with your own player(launches your MP3 player)

KBUF 171754Z 26006KT 10SM FEW042 FEW085 BKN130 25/13 A2986 RMK AO2 SLP106 60000 T02500133 10250 20222 52001

KBUF Airport Info (Airnav.com)

KBUF Flight Activity (Flightaware)

Listeners: 2 out of 2022 total

Buffalo Approach: 126.500
Buffalo Approach: 126.150
Buffalo Ground: 133.200
Buffalo Tower: 120.500

KBUR Ground/Tower
Burbank, California, United States

Feed Status: DOWN
Offline since: 2024-06-24 19:29:05 UTC

KBUR 171753Z 00000KT 10SM CLR 24/16 A3000 RMK AO2 SLP145 T02390156 10244 20183 53000

KBUR Airport Info (Airnav.com)

KBUR Ground: 123.900
KBUR Tower: 118.700

KCAK App/Dep (Archives)
Akron, Ohio, United States

Feed Status: UP
Listen in your browser - HTML5 player(in browser, HTML5)
Click here to listen with your own player(launches your MP3 player)

KCAK 171813Z 30012KT 6SM HZ FEW030 SCT080 BKN095 23/20 A2989 RMK AO2 RAE07 P0001 T02330200

KCAK Airport Info (Airnav.com)

KCAK Flight Activity (Flightaware)

Listeners: 0 out of 2022 total

Cleveland Approach (Final): 126.400
Cleveland Approach/Departure: 118.600
Cleveland Approach/Departure: 125.500
Cleveland Approach/Departure (backup): 127.050

KCAK ATIS (Archives)
Akron, Ohio, United States

Feed Status: UP
Listen in your browser - HTML5 player(in browser, HTML5)
Click here to listen with your own player(launches your MP3 player)

KCAK 171813Z 30012KT 6SM HZ FEW030 SCT080 BKN095 23/20 A2989 RMK AO2 RAE07 P0001 T02330200

KCAK Airport Info (Airnav.com)

KCAK Flight Activity (Flightaware)

Listeners: 0 out of 2022 total

Akron-Canton ATIS: 121.050

KCAK Del/Gnd/Twr (Archives)
Akron, Ohio, United States

Feed Status: UP
Listen in your browser - HTML5 player(in browser, HTML5)
Click here to listen with your own player(launches your MP3 player)

KCAK 171813Z 30012KT 6SM HZ FEW030 SCT080 BKN095 23/20 A2989 RMK AO2 RAE07 P0001 T02330200

KCAK Airport Info (Airnav.com)

KCAK Flight Activity (Flightaware)

Listeners: 0 out of 2022 total

Akron-Canton Clearance: 132.050
Akron-Canton Ground: 121.700
Akron-Canton Tower: 134.750
Emergency/Guard: 121.500

KCHA Twr/App (Archives)
Chattanooga, Tennessee, United States

Feed Status: UP
Listen in your browser - HTML5 player(in browser, HTML5)
Click here to listen with your own player(launches your MP3 player)

KCHA 171753Z 26007G14KT 10SM SCT045CB SCT050TCU SCT080 BKN250 34/22 A2999 RMK AO2 LTG DSNT W SLP145 CB E-SE MOV E CB DSNT W-NW TCU NE NW DSNT S T03390222 10339 20244 58017

KCHA Airport Info (Airnav.com)

KCHA Flight Activity (Flightaware)

Listeners: 0 out of 2022 total

Chattanooga Approach/Departure: 119.200
Chattanooga Approach/Departure: 125.100
Chattanooga Tower: 118.300

KCHS Gnd/Twr/App (Archives)
Charleston, South Carolina, United States

Feed Status: UP
Listen in your browser - HTML5 player(in browser, HTML5)
Click here to listen with your own player(launches your MP3 player)

KCHS 171756Z 24010KT 10SM SCT040 BKN250 34/24 A3000 RMK AO2 SLP160 T03440239 10344 20278 58013

KCHS Airport Info (Airnav.com)

KCHS Flight Activity (Flightaware)

Listeners: 1 out of 2022 total

Charleston Approach/Departure: 306.925
Charleston Approach/Departure: 120.700
Charleston Approach/Departure: 379.925
Charleston Approach/Departure: 121.275
Charleston Ground: 121.900
Charleston Ground: 348.600
Charleston Tower: 239.000
Charleston Tower: 126.000
Emergency/Guard: 121.500
Emergency/Guard: 243.000

KCID Gnd/Twr/App/KIOW (Archives)
Cedar Rapids, Iowa, United States

Feed Status: UP
Listen in your browser - HTML5 player(in browser, HTML5)
Click here to listen with your own player(launches your MP3 player)

KCID 171752Z 34011KT 10SM FEW047 SCT055 24/16 A3009 RMK AO2 SLP185 T02440156 10256 20178 51012

KCID Airport Info (Airnav.com)

KCID Flight Activity (Flightaware)

Listeners: 0 out of 2022 total

Cedar Rapids Approach (091-269): 119.700
Cedar Rapids Approach (270-090): 134.050
Cedar Rapids Clearance Delivery: 125.450
Cedar Rapids Ground (0500-2330): 121.600
Cedar Rapids Tower (0500-2330): 118.700
UNICOM C17 (Marion) and surrounding area: 122.700
UNICOM IA24 Green Castle: 122.900
UNICOM KIOW (Iowa City) and surrounding area: 122.800

KCMH App/Dep (118.0) (Archives)
Columbus, Ohio, United States

Feed Status: UP
Listen in your browser - HTML5 player(in browser, HTML5)
Click here to listen with your own player(launches your MP3 player)

KCMH 171751Z VRB04KT 10SM FEW015 SCT023 BKN055 26/21 A2989 RMK AO2 LTG DSNT NE RAB10E40 SLP113 P0039 60039 T02610211 10306 20233 58004

KCMH Airport Info (Airnav.com)

KCMH Flight Activity (Flightaware)

Listeners: 0 out of 2022 total

Columbus Approach (Backup): 118.000

KCMH App/Dep (118.2) (Archives)
Columbus, Ohio, United States

Feed Status: UP
Listen in your browser - HTML5 player(in browser, HTML5)
Click here to listen with your own player(launches your MP3 player)

KCMH 171751Z VRB04KT 10SM FEW015 SCT023 BKN055 26/21 A2989 RMK AO2 LTG DSNT NE RAB10E40 SLP113 P0039 60039 T02610211 10306 20233 58004

KCMH Airport Info (Airnav.com)

KCMH Flight Activity (Flightaware)

Listeners: 0 out of 2022 total

Columbus Approach (Backup): 118.200

KCMH App/Dep (119.65) (Archives)
Columbus, Ohio, United States

Feed Status: UP
Listen in your browser - HTML5 player(in browser, HTML5)
Click here to listen with your own player(launches your MP3 player)

KCMH 171751Z VRB04KT 10SM FEW015 SCT023 BKN055 26/21 A2989 RMK AO2 LTG DSNT NE RAB10E40 SLP113 P0039 60039 T02610211 10306 20233 58004

KCMH Airport Info (Airnav.com)

KCMH Flight Activity (Flightaware)

Listeners: 0 out of 2022 total

Columbus Approach (Backup): 119.650

KCMH App/Dep (120.2) (Archives)
Columbus, Ohio, United States

Feed Status: UP
Listen in your browser - HTML5 player(in browser, HTML5)
Click here to listen with your own player(launches your MP3 player)

KCMH 171751Z VRB04KT 10SM FEW015 SCT023 BKN055 26/21 A2989 RMK AO2 LTG DSNT NE RAB10E40 SLP113 P0039 60039 T02610211 10306 20233 58004

KCMH Airport Info (Airnav.com)

KCMH Flight Activity (Flightaware)

Listeners: 0 out of 2022 total

Columbus Approach (North Satellite): 120.200

KCMH App/Dep (125.95) (Archives)
Columbus, Ohio, United States

Feed Status: UP
Listen in your browser - HTML5 player(in browser, HTML5)
Click here to listen with your own player(launches your MP3 player)

KCMH 171751Z VRB04KT 10SM FEW015 SCT023 BKN055 26/21 A2989 RMK AO2 LTG DSNT NE RAB10E40 SLP113 P0039 60039 T02610211 10306 20233 58004

KCMH Airport Info (Airnav.com)

KCMH Flight Activity (Flightaware)

Listeners: 3 out of 2022 total

Columbus Approach/Departure (North): 125.950

KCMH App/Dep (132.3) (Archives)
Columbus, Ohio, United States

Feed Status: UP
Listen in your browser - HTML5 player(in browser, HTML5)
Click here to listen with your own player(launches your MP3 player)

KCMH 171751Z VRB04KT 10SM FEW015 SCT023 BKN055 26/21 A2989 RMK AO2 LTG DSNT NE RAB10E40 SLP113 P0039 60039 T02610211 10306 20233 58004

KCMH Airport Info (Airnav.com)

KCMH Flight Activity (Flightaware)

Listeners: 0 out of 2022 total


KCMH App/Dep (134.0) (Archives)
Columbus, Ohio, United States

Feed Status: UP
Listen in your browser - HTML5 player(in browser, HTML5)
Click here to listen with your own player(launches your MP3 player)

KCMH 171751Z VRB04KT 10SM FEW015 SCT023 BKN055 26/21 A2989 RMK AO2 LTG DSNT NE RAB10E40 SLP113 P0039 60039 T02610211 10306 20233 58004

KCMH Airport Info (Airnav.com)

KCMH Flight Activity (Flightaware)

Listeners: 2 out of 2022 total

Columbus Approach (South): 134.000

KCMH App/Dep (South/UHF)
Columbus, Ohio, United States

Feed Status: DOWN
Offline since: 2024-01-16 18:27:05 UTC

KCMH 171751Z VRB04KT 10SM FEW015 SCT023 BKN055 26/21 A2989 RMK AO2 LTG DSNT NE RAB10E40 SLP113 P0039 60039 T02610211 10306 20233 58004

KCMH Airport Info (Airnav.com)

Columbus Approach/Departure (South/Mil): 279.600

KCMH ATIS #1 (Archives)
Columbus, Ohio, United States

Feed Status: UP
Listen in your browser - HTML5 player(in browser, HTML5)
Click here to listen with your own player(launches your MP3 player)

KCMH 171751Z VRB04KT 10SM FEW015 SCT023 BKN055 26/21 A2989 RMK AO2 LTG DSNT NE RAB10E40 SLP113 P0039 60039 T02610211 10306 20233 58004

KCMH Airport Info (Airnav.com)

KCMH Flight Activity (Flightaware)

Listeners: 0 out of 2022 total

Columbus ATIS: 124.600

KCMH ATIS #2 (Archives)
Columbus, Ohio, United States

Feed Status: UP
Listen in your browser - HTML5 player(in browser, HTML5)
Click here to listen with your own player(launches your MP3 player)

KCMH 171751Z VRB04KT 10SM FEW015 SCT023 BKN055 26/21 A2989 RMK AO2 LTG DSNT NE RAB10E40 SLP113 P0039 60039 T02610211 10306 20233 58004

KCMH Airport Info (Airnav.com)

KCMH Flight Activity (Flightaware)

Listeners: 0 out of 2022 total

Columbus ATIS: 124.600

KCMH Clearance Delivery #1 (Archives)
Columbus, Ohio, United States

Feed Status: UP
Listen in your browser - HTML5 player(in browser, HTML5)
Click here to listen with your own player(launches your MP3 player)

KCMH 171751Z VRB04KT 10SM FEW015 SCT023 BKN055 26/21 A2989 RMK AO2 LTG DSNT NE RAB10E40 SLP113 P0039 60039 T02610211 10306 20233 58004

KCMH Airport Info (Airnav.com)

KCMH Flight Activity (Flightaware)

Listeners: 0 out of 2022 total

Columbus Clearance Delivery: 126.300

KCMH Clearance Delivery #2 (Archives)
Columbus, Ohio, United States

Feed Status: UP
Listen in your browser - HTML5 player(in browser, HTML5)
Click here to listen with your own player(launches your MP3 player)

KCMH 171751Z VRB04KT 10SM FEW015 SCT023 BKN055 26/21 A2989 RMK AO2 LTG DSNT NE RAB10E40 SLP113 P0039 60039 T02610211 10306 20233 58004

KCMH Airport Info (Airnav.com)

KCMH Flight Activity (Flightaware)

Listeners: 0 out of 2022 total

Columbus Clearance Delivery: 126.300

KCMH De-Ice (Archives)
Columbus, Ohio, United States

Feed Status: UP
Listen in your browser - HTML5 player(in browser, HTML5)
Click here to listen with your own player(launches your MP3 player)

KCMH 171751Z VRB04KT 10SM FEW015 SCT023 BKN055 26/21 A2989 RMK AO2 LTG DSNT NE RAB10E40 SLP113 P0039 60039 T02610211 10306 20233 58004

KCMH Airport Info (Airnav.com)

KCMH Flight Activity (Flightaware)

Listeners: 0 out of 2022 total

Columbus De-Ice: 122.775

KCMH Del/Gnd/Twr (Archives)
Columbus, Ohio, United States

Feed Status: UP
Listen in your browser - HTML5 player(in browser, HTML5)
Click here to listen with your own player(launches your MP3 player)

KCMH 171751Z VRB04KT 10SM FEW015 SCT023 BKN055 26/21 A2989 RMK AO2 LTG DSNT NE RAB10E40 SLP113 P0039 60039 T02610211 10306 20233 58004

KCMH Airport Info (Airnav.com)

KCMH Flight Activity (Flightaware)

Listeners: 0 out of 2022 total

Columbus Clearance Delivery: 126.300
Columbus Ground: 121.900
Columbus Tower: 132.700
Columbus Tower: 257.800

KCMH Emergency/Guard #1 (Archives)
Columbus, Ohio, United States

Feed Status: UP
Listen in your browser - HTML5 player(in browser, HTML5)
Click here to listen with your own player(launches your MP3 player)

KCMH 171751Z VRB04KT 10SM FEW015 SCT023 BKN055 26/21 A2989 RMK AO2 LTG DSNT NE RAB10E40 SLP113 P0039 60039 T02610211 10306 20233 58004

KCMH Airport Info (Airnav.com)

KCMH Flight Activity (Flightaware)

Listeners: 0 out of 2022 total

Emergency/Guard: 121.500

KCMH Emergency/Guard #2 (Archives)
Columbus, Ohio, United States

Feed Status: UP
Listen in your browser - HTML5 player(in browser, HTML5)
Click here to listen with your own player(launches your MP3 player)

KCMH 171751Z VRB04KT 10SM FEW015 SCT023 BKN055 26/21 A2989 RMK AO2 LTG DSNT NE RAB10E40 SLP113 P0039 60039 T02610211 10306 20233 58004

KCMH Airport Info (Airnav.com)

KCMH Flight Activity (Flightaware)

Listeners: 0 out of 2022 total

Emergency/Guard: 121.500

KCMH Ground #1 (Archives)
Columbus, Ohio, United States

Feed Status: UP
Listen in your browser - HTML5 player(in browser, HTML5)
Click here to listen with your own player(launches your MP3 player)

KCMH 171751Z VRB04KT 10SM FEW015 SCT023 BKN055 26/21 A2989 RMK AO2 LTG DSNT NE RAB10E40 SLP113 P0039 60039 T02610211 10306 20233 58004

KCMH Airport Info (Airnav.com)

KCMH Flight Activity (Flightaware)

Listeners: 0 out of 2022 total

Columbus Ground: 121.900

KCMH Ground #2 (Archives)
Columbus, Ohio, United States

Feed Status: UP
Listen in your browser - HTML5 player(in browser, HTML5)
Click here to listen with your own player(launches your MP3 player)

KCMH 171751Z VRB04KT 10SM FEW015 SCT023 BKN055 26/21 A2989 RMK AO2 LTG DSNT NE RAB10E40 SLP113 P0039 60039 T02610211 10306 20233 58004

KCMH Airport Info (Airnav.com)

KCMH Flight Activity (Flightaware)

Listeners: 0 out of 2022 total

Columbus Ground: 121.900

KCMH Tower #1 (Archives)
Columbus, Ohio, United States

Feed Status: UP
Listen in your browser - HTML5 player(in browser, HTML5)
Click here to listen with your own player(launches your MP3 player)

KCMH 171751Z VRB04KT 10SM FEW015 SCT023 BKN055 26/21 A2989 RMK AO2 LTG DSNT NE RAB10E40 SLP113 P0039 60039 T02610211 10306 20233 58004

KCMH Airport Info (Airnav.com)

KCMH Flight Activity (Flightaware)

Listeners: 0 out of 2022 total

Columbus Tower: 132.700

KCMH Tower #2 (Archives)
Columbus, Ohio, United States

Feed Status: UP
Listen in your browser - HTML5 player(in browser, HTML5)
Click here to listen with your own player(launches your MP3 player)

KCMH 171751Z VRB04KT 10SM FEW015 SCT023 BKN055 26/21 A2989 RMK AO2 LTG DSNT NE RAB10E40 SLP113 P0039 60039 T02610211 10306 20233 58004

KCMH Airport Info (Airnav.com)

KCMH Flight Activity (Flightaware)

Listeners: 0 out of 2022 total

Columbus Tower: 132.700
Columbus Tower: 257.800

KCMH Twr/App/Dep (Archives)
Columbus, Ohio, United States

Feed Status: UP
Listen in your browser - HTML5 player(in browser, HTML5)
Click here to listen with your own player(launches your MP3 player)

KCMH 171751Z VRB04KT 10SM FEW015 SCT023 BKN055 26/21 A2989 RMK AO2 LTG DSNT NE RAB10E40 SLP113 P0039 60039 T02610211 10306 20233 58004

KCMH Airport Info (Airnav.com)

KCMH Flight Activity (Flightaware)

Listeners: 0 out of 2022 total

Columbus Approach: 125.950
Columbus Approach (Backup): 118.000
Columbus Approach (Backup): 118.200
Columbus Approach (Backup): 119.650
Columbus Approach (South Satellite): 132.300
Columbus Approach (South): 134.000
Columbus Approach/Departure (North): 125.950
Columbus Tower: 132.700
Columbus Tower: 257.800

KCMI Del/Gnd/Twr/App/Misc (Archives)
Champaign/Urbana, Illinois, United States

Feed Status: UP
Listen in your browser - HTML5 player(in browser, HTML5)
Click here to listen with your own player(launches your MP3 player)

KCMI 171753Z 31010KT 10SM SCT030 28/19 A3000 RMK AO2 SLP152 T02780194 10283 20233 51011

KCMI Airport Info (Airnav.com)

KCMI Flight Activity (Flightaware)

Listeners: 0 out of 2022 total

C16 Frasca Airport CTAF: 123.000
Champaign Approach/Departure (North): 121.350
Champaign Approach/Departure (South): 132.850
Champaign Clearance Delivery (Chicago Center, after hours): 128.750
Champaign Departure (Secondary): 133.975
Champaign Ground: 121.800
Champaign Tower: 120.400
Champaign UNICOM: 122.950

KCOS Gnd/Twr/App/Dep (Archives)
Colorado Springs, Colorado, United States

Feed Status: UP
Listen in your browser - HTML5 player(in browser, HTML5)
Click here to listen with your own player(launches your MP3 player)

KCOS 171754Z VRB06G14KT 10SM SCT080 SCT130 BKN220 27/08 A3037 RMK AO2 SLP196 CB DSNT W-NW STNRY VCSH W-NW T02670083 10272 20150 56004

KCOS Airport Info (Airnav.com)

KCOS Flight Activity (Flightaware)

Listeners: 1 out of 2022 total

Springs Approach/Departure: 120.600
Springs Approach/Departure (East): 124.000
Springs Ground: 121.700
Springs Tower: 119.900
Springs Tower (East): 133.150

KCRP App/Dep (Archives)
Corpus Christi, Texas, United States

Feed Status: UP
Listen in your browser - HTML5 player(in browser, HTML5)
Click here to listen with your own player(launches your MP3 player)

KCRP 171751Z 14008KT 10SM FEW034 FEW042 FEW150 BKN200 BKN250 33/25 A2999 RMK AO2 SLP153 T03330250 10333 20267 58000

KCRP Airport Info (Airnav.com)

KCRP Flight Activity (Flightaware)

Listeners: 0 out of 2022 total

Corpus Christi Approach: 120.900
Corpus Christi Approach: 124.800
Corpus Christi Approach: 125.400

KCRP Del/Gnd/Twr (Archives)
Corpus Christi, Texas, United States

Feed Status: UP
Listen in your browser - HTML5 player(in browser, HTML5)
Click here to listen with your own player(launches your MP3 player)

KCRP 171751Z 14008KT 10SM FEW034 FEW042 FEW150 BKN200 BKN250 33/25 A2999 RMK AO2 SLP153 T03330250 10333 20267 58000

KCRP Airport Info (Airnav.com)

KCRP Flight Activity (Flightaware)

Listeners: 0 out of 2022 total

Corpus Christi Clearance Delivery: 118.550
Corpus Christi Ground: 121.900
Corpus Christi Tower: 119.400

KCRW Tower/Approach (Archives)
Charleston, West Virginia, United States

Feed Status: UP
Listen in your browser - HTML5 player(in browser, HTML5)
Click here to listen with your own player(launches your MP3 player)

KCRW 171754Z 22008KT 10SM SCT030 BKN060 BKN180 29/19 A2994 RMK AO2 SLP129 60000 T02940194 10300 20211 55004

KCRW Airport Info (Airnav.com)

KCRW Flight Activity (Flightaware)

Listeners: 1 out of 2022 total

Charleston Approach/Departure: 128.500
Charleston Approach/Departure (North): 124.100
Charleston Approach/Departure (South): 119.200
Charleston Clearance Delivery: 118.550
Charleston Ground: 121.800
Charleston Tower: 125.700
Emergency/Guard: 121.500

KDAB App/Dep (Archives)
Daytona Beach, Florida, United States

Feed Status: UP
Listen in your browser - HTML5 player(in browser, HTML5)
Click here to listen with your own player(launches your MP3 player)

KDAB 171753Z VRB04KT 10SM SCT033 SCT250 33/24 A3009 RMK AO2 SLP189 T03280244 10333 20233 58005

KDAB Airport Info (Airnav.com)

KDAB Flight Activity (Flightaware)

Listeners: 1 out of 2022 total

Daytona Approach (East/Low): 123.900
Daytona Approach (North/High): 118.850
Daytona Approach (South/High): 127.075
Daytona Approach (West 8000-10000'): 125.725
Daytona Approach (West SFC-3500): 126.550
Daytona Approach/Departure (South): 125.350

KDAB App/Dep (All) (Archives)
Daytona Beach, Florida, United States

Feed Status: UP
Listen in your browser - HTML5 player(in browser, HTML5)
Click here to listen with your own player(launches your MP3 player)

KDAB 171753Z VRB04KT 10SM SCT033 SCT250 33/24 A3009 RMK AO2 SLP189 T03280244 10333 20233 58005

KDAB Airport Info (Airnav.com)

KDAB Flight Activity (Flightaware)

Listeners: 3 out of 2022 total

Daytona Approach (East/Low): 123.900
Daytona Approach (North/High): 118.850
Daytona Approach (North/Low): 125.800
Daytona Approach (South/High): 127.075
Daytona Approach (West 8000-10000'): 125.725
Daytona Approach (West SFC-3500): 126.550
Daytona Approach/Departure (South): 125.350

KDAB Approach (North/Low) (Archives)
Daytona Beach, Florida, United States

Feed Status: UP
Listen in your browser - HTML5 player(in browser, HTML5)
Click here to listen with your own player(launches your MP3 player)

KDAB 171753Z VRB04KT 10SM SCT033 SCT250 33/24 A3009 RMK AO2 SLP189 T03280244 10333 20233 58005

KDAB Airport Info (Airnav.com)

KDAB Flight Activity (Flightaware)

Listeners: 0 out of 2022 total

Daytona Approach (North/Low): 125.800

KDAB ATIS (Archives)
Daytona Beach, Florida, United States

Feed Status: UP
Listen in your browser - HTML5 player(in browser, HTML5)
Click here to listen with your own player(launches your MP3 player)

KDAB 171753Z VRB04KT 10SM SCT033 SCT250 33/24 A3009 RMK AO2 SLP189 T03280244 10333 20233 58005

KDAB Airport Info (Airnav.com)

KDAB Flight Activity (Flightaware)

Listeners: 0 out of 2022 total

Daytona Beach ATIS: 132.875

KDAB Clearance/Ground (Archives)
Daytona Beach, Florida, United States

Feed Status: UP
Listen in your browser - HTML5 player(in browser, HTML5)
Click here to listen with your own player(launches your MP3 player)

KDAB 171753Z VRB04KT 10SM SCT033 SCT250 33/24 A3009 RMK AO2 SLP189 T03280244 10333 20233 58005

KDAB Airport Info (Airnav.com)

KDAB Flight Activity (Flightaware)

Listeners: 0 out of 2022 total

Daytona Clearance: 119.300
Daytona Ground: 121.900

KDAB Tower (120.7) (Archives)
Daytona Beach, Florida, United States

Feed Status: UP
Listen in your browser - HTML5 player(in browser, HTML5)
Click here to listen with your own player(launches your MP3 player)

KDAB 171753Z VRB04KT 10SM SCT033 SCT250 33/24 A3009 RMK AO2 SLP189 T03280244 10333 20233 58005

KDAB Airport Info (Airnav.com)

KDAB Flight Activity (Flightaware)

Listeners: 0 out of 2022 total

Daytona Tower (Primary 7L/25R): 120.700

KDAY Del/Gnd/Twr/App (Archives)
Dayton, Ohio, United States

Feed Status: UP
Listen in your browser - HTML5 player(in browser, HTML5)
Click here to listen with your own player(launches your MP3 player)

KDAY 171756Z 26011KT 10SM -RA FEW033 BKN070 BKN110 BKN230 28/22 A2992 RMK AO2 LTG DSNT N RAB49 SLP123 MDT CU SW-E P0000 60000 T02830217 10300 20233 50001

KDAY Airport Info (Airnav.com)

KDAY Flight Activity (Flightaware)

Listeners: 0 out of 2022 total

Aero Enroute Dayton: 129.200
Aero Enroute Dayton: 129.150
Aero Enroute Dayton: 131.025
Air-To-Air: 123.450
Air-to-Air: 122.750
Columbus Approach/Departure (Backup): 118.000
Columbus Approach/Departure (Backup): 370.875
Columbus Approach/Departure (Backup): 269.225
Columbus Approach/Departure (Backup): 127.225
Columbus Approach/Departure (Backup): 353.700
Columbus Approach/Departure (Northeast): 323.150
Columbus Approach/Departure (Northeast): 118.425
Columbus Approach/Departure (South Satellite): 327.125
Columbus Approach/Departure (South Satellite): 126.500
Columbus Approach/Departure (Southeast): 118.850
Columbus Approach/Departure (Southeast): 269.275
Columbus Approach/Departure (West): 305.200
Columbus Approach/Departure (West): 134.450
Dayton Clearance Delivery: 121.750
Dayton Ground: 121.900
Dayton Heli-to-Heli: 123.025
Dayton Tower: 257.700
Dayton Tower: 119.900
Emergency/Guard: 243.000
Emergency/Guard: 121.500
UNICOM: 122.950

KDMA/KTUS Twr/Ops/ZAB (Archives)
Tucson, Arizona, United States

Feed Status: UP
Listen in your browser - HTML5 player(in browser, HTML5)
Click here to listen with your own player(launches your MP3 player)

KTUS 171753Z 34010G16KT 10SM CLR 36/14 A3003 RMK AO2 SLP112 T03560139 10356 20261 58007

KTUS Airport Info (Airnav.com)

KTUS Flight Activity (Flightaware)

Listeners: 4 out of 2022 total

357FS Ops: 139.725
358FS Ops: 138.500
Albuquerque Center (Sector 47 Silver City/Low/UHF): 327.150
Albuquerque Center (Sector 90 San Simon/High/UHF): 281.500
AWACS: 364.200
BigFoot: 234.800
BigFoot: 271.000
Davis-Monthan AFB: 253.500
Tucson 162FW SOS IOPS: 392.200
Tucson Tower (UHF): 257.800

KTUS Del/Gnd/Twr/App/KDMA (Archives)
Tucson, Arizona, United States

Feed Status: UP
Listen in your browser - HTML5 player(in browser, HTML5)
Click here to listen with your own player(launches your MP3 player)

KTUS 171753Z 34010G16KT 10SM CLR 36/14 A3003 RMK AO2 SLP112 T03560139 10356 20261 58007

KTUS Airport Info (Airnav.com)

KTUS Flight Activity (Flightaware)

Listeners: 1 out of 2022 total

KDMA Tower: 118.850
Tucson Approach (alt): 124.000
Tucson Approach (East/South): 125.100
Tucson Approach (Mil): 269.550
Tucson Approach (North): 119.400
Tucson Approach (Practice Areas): 125.900
Tucson Clearance Delivery: 126.650
Tucson Ground: 120.025
Tucson Tower: 118.300
Tucson Tower (alt): 119.000

KDSM App/Dep (Archives)
Des Moines, Iowa, United States

Feed Status: UP
Listen in your browser - HTML5 player(in browser, HTML5)
Click here to listen with your own player(launches your MP3 player)

KDSM 171754Z 31007KT 10SM FEW050 26/15 A3014 RMK AO2 SLP199 T02610150 10267 20200 51011

KDSM Airport Info (Airnav.com)

KDSM Flight Activity (Flightaware)

Listeners: 1 out of 2022 total

Des Moines Approach/Departure: 123.900

KDSM ATIS (Archives)
Des Moines, Iowa, United States

Feed Status: UP
Listen in your browser - HTML5 player(in browser, HTML5)
Click here to listen with your own player(launches your MP3 player)

KDSM 171754Z 31007KT 10SM FEW050 26/15 A3014 RMK AO2 SLP199 T02610150 10267 20200 51011

KDSM Airport Info (Airnav.com)

KDSM Flight Activity (Flightaware)

Listeners: 0 out of 2022 total

Des Moines ATIS: 119.550

KDSM Ground (Archives)
Des Moines, Iowa, United States

Feed Status: UP
Listen in your browser - HTML5 player(in browser, HTML5)
Click here to listen with your own player(launches your MP3 player)

KDSM 171754Z 31007KT 10SM FEW050 26/15 A3014 RMK AO2 SLP199 T02610150 10267 20200 51011

KDSM Airport Info (Airnav.com)

KDSM Flight Activity (Flightaware)

Listeners: 1 out of 2022 total

Des Moines Ground: 121.900

KDSM Tower (Archives)
Des Moines, Iowa, United States

Feed Status: UP
Listen in your browser - HTML5 player(in browser, HTML5)
Click here to listen with your own player(launches your MP3 player)

KDSM 171754Z 31007KT 10SM FEW050 26/15 A3014 RMK AO2 SLP199 T02610150 10267 20200 51011

KDSM Airport Info (Airnav.com)

KDSM Flight Activity (Flightaware)

Listeners: 1 out of 2022 total

Des Moines Tower: 118.300

KELP App/Dep (North) (Archives)
El Paso, Texas, United States

Feed Status: UP
Listen in your browser - HTML5 player(in browser, HTML5)
Click here to listen with your own player(launches your MP3 player)

KELP 171751Z VRB06KT 10SM SCT080 34/13 A3011 RMK AO2 SLP108 T03440133 10344 20244 58001

KELP Airport Info (Airnav.com)

KELP Flight Activity (Flightaware)

Listeners: 0 out of 2022 total

El Paso Approach/Departure (North): 124.250

KELP Approach (Archives)
El Paso, Texas, United States

Feed Status: UP
Listen in your browser - HTML5 player(in browser, HTML5)
Click here to listen with your own player(launches your MP3 player)

KELP 171751Z VRB06KT 10SM SCT080 34/13 A3011 RMK AO2 SLP108 T03440133 10344 20244 58001

KELP Airport Info (Airnav.com)

KELP Flight Activity (Flightaware)

Listeners: 0 out of 2022 total

El Paso Approach/Departure: 119.150

KELP Gnd/Twr/App/Dep (Archives)
El Paso, Texas, United States

Feed Status: UP
Listen in your browser - HTML5 player(in browser, HTML5)
Click here to listen with your own player(launches your MP3 player)

KELP 171751Z VRB06KT 10SM SCT080 34/13 A3011 RMK AO2 SLP108 T03440133 10344 20244 58001

KELP Airport Info (Airnav.com)

KELP Flight Activity (Flightaware)

Listeners: 0 out of 2022 total

El Paso Approach/Departure: 119.150
El Paso Approach/Departure: 124.250
El Paso Ground: 121.900
El Paso Tower: 118.300
El Paso Tower: 126.050

KELP Ground (Archives)
El Paso, Texas, United States

Feed Status: UP
Listen in your browser - HTML5 player(in browser, HTML5)
Click here to listen with your own player(launches your MP3 player)

KELP 171751Z VRB06KT 10SM SCT080 34/13 A3011 RMK AO2 SLP108 T03440133 10344 20244 58001

KELP Airport Info (Airnav.com)

KELP Flight Activity (Flightaware)

Listeners: 0 out of 2022 total

El Paso Ground: 121.900

KELP Tower (Archives)
El Paso, Texas, United States

Feed Status: UP
Listen in your browser - HTML5 player(in browser, HTML5)
Click here to listen with your own player(launches your MP3 player)

KELP 171751Z VRB06KT 10SM SCT080 34/13 A3011 RMK AO2 SLP108 T03440133 10344 20244 58001

KELP Airport Info (Airnav.com)

KELP Flight Activity (Flightaware)

Listeners: 0 out of 2022 total

El Paso Tower: 118.300

KEVV Del/Gnd/Twr/App (Archives)
Evansville, Indiana, United States

Feed Status: UP
Listen in your browser - HTML5 player(in browser, HTML5)
Click here to listen with your own player(launches your MP3 player)

KEVV 171754Z 25009KT 10SM SCT030 BKN042 29/22 A2997 RMK AO2 SLP145 T02940217 10294 20222 50004

KEVV Airport Info (Airnav.com)

KEVV Flight Activity (Flightaware)

Listeners: 1 out of 2022 total

Evansville Approach: 124.025
Evansville Approach: 127.350
Evansville Clearance Delivery : 126.600
Evansville Ground : 121.900
Evansville Tower: 118.700

KFAT App/Dep (Archives)
Fresno, California, United States

Feed Status: UP
Listen in your browser - HTML5 player(in browser, HTML5)
Click here to listen with your own player(launches your MP3 player)

KFAT 171753Z VRB03KT 10SM FEW080 FEW200 27/12 A3000 RMK AO2 SLP154 FU DSNT N-E-S T02670122 10267 20178 50001

KFAT Airport Info (Airnav.com)

KFAT Flight Activity (Flightaware)

Listeners: 0 out of 2022 total

Fresno Approach/Departure: 118.500
Fresno Approach/Departure: 132.350
Fresno Approach/Departure (IFR pickup KFCH): 119.000
Fresno Approach/Departure (North): 119.600

KFAT ATIS (Archives)
Fresno, California, United States

Feed Status: UP
Listen in your browser - HTML5 player(in browser, HTML5)
Click here to listen with your own player(launches your MP3 player)

KFAT 171753Z VRB03KT 10SM FEW080 FEW200 27/12 A3000 RMK AO2 SLP154 FU DSNT N-E-S T02670122 10267 20178 50001

KFAT Airport Info (Airnav.com)

KFAT Flight Activity (Flightaware)

Listeners: 0 out of 2022 total

Fresno ATIS: 121.350

KFAT Del/Gnd/Twr (Archives)
Fresno, California, United States

Feed Status: UP
Listen in your browser - HTML5 player(in browser, HTML5)
Click here to listen with your own player(launches your MP3 player)

KFAT 171753Z VRB03KT 10SM FEW080 FEW200 27/12 A3000 RMK AO2 SLP154 FU DSNT N-E-S T02670122 10267 20178 50001

KFAT Airport Info (Airnav.com)

KFAT Flight Activity (Flightaware)

Listeners: 0 out of 2022 total

Fresno Clearance Delivery: 124.350
Fresno Ground: 121.700
Fresno Ground (UHF): 348.600
Fresno Tower: 118.200
Fresno Tower (backup): 128.100
Fresno Tower (UHF): 251.100

KFAT Del/Gnd/Twr/App (Archives)
Fresno, California, United States

Feed Status: UP
Listen in your browser - HTML5 player(in browser, HTML5)
Click here to listen with your own player(launches your MP3 player)

KFAT 171753Z VRB03KT 10SM FEW080 FEW200 27/12 A3000 RMK AO2 SLP154 FU DSNT N-E-S T02670122 10267 20178 50001

KFAT Airport Info (Airnav.com)

KFAT Flight Activity (Flightaware)

Listeners: 1 out of 2022 total

Fresno Approach/Departure: 132.350
Fresno Approach/Departure: 118.500
Fresno Approach/Departure (IFR pickup KFCH): 119.000
Fresno Approach/Departure (North): 119.600
Fresno Clearance Delivery: 124.350
Fresno Ground: 121.700
Fresno Ground (UHF): 348.600
Fresno Tower: 118.200
Fresno Tower (backup): 128.100
Fresno Tower (UHF): 251.100

KFAY App/Dep (Archives)
Fayetteville, North Carolina, United States

Feed Status: UP
Listen in your browser - HTML5 player(in browser, HTML5)
Click here to listen with your own player(launches your MP3 player)

KFAY 171753Z 21008KT 10SM FEW047 34/23 A2994 RMK AO2 SLP132 T03390233 10339 20261 58010

KFAY Airport Info (Airnav.com)

KFAY Flight Activity (Flightaware)

Listeners: 1 out of 2022 total

Fayetteville Approach/Departure (North): 125.175
Fayetteville Approach/Departure (South): 133.000
Fayetteville Approach/Departure (Spare): 127.800

KFAY ATIS (Archives)
Fayetteville, North Carolina, United States

Feed Status: UP
Listen in your browser - HTML5 player(in browser, HTML5)
Click here to listen with your own player(launches your MP3 player)

KFAY 171753Z 21008KT 10SM FEW047 34/23 A2994 RMK AO2 SLP132 T03390233 10339 20261 58010

KFAY Airport Info (Airnav.com)

KFAY Flight Activity (Flightaware)

Listeners: 0 out of 2022 total

Fayetteville ATIS: 121.250

KFAY Emergency/Guard (Archives)
Fayetteville, North Carolina, United States

Feed Status: UP
Listen in your browser - HTML5 player(in browser, HTML5)
Click here to listen with your own player(launches your MP3 player)

KFAY 171753Z 21008KT 10SM FEW047 34/23 A2994 RMK AO2 SLP132 T03390233 10339 20261 58010

KFAY Airport Info (Airnav.com)

KFAY Flight Activity (Flightaware)

Listeners: 0 out of 2022 total

Emergency/Guard: 121.500

KFAY Ground (Archives)
Fayetteville, North Carolina, United States

Feed Status: UP
Listen in your browser - HTML5 player(in browser, HTML5)
Click here to listen with your own player(launches your MP3 player)

KFAY 171753Z 21008KT 10SM FEW047 34/23 A2994 RMK AO2 SLP132 T03390233 10339 20261 58010

KFAY Airport Info (Airnav.com)

KFAY Flight Activity (Flightaware)

Listeners: 0 out of 2022 total

Fayetteville Ground: 121.700

KFAY Tower (Archives)
Fayetteville, North Carolina, United States

Feed Status: UP
Listen in your browser - HTML5 player(in browser, HTML5)
Click here to listen with your own player(launches your MP3 player)

KFAY 171753Z 21008KT 10SM FEW047 34/23 A2994 RMK AO2 SLP132 T03390233 10339 20261 58010

KFAY Airport Info (Airnav.com)

KFAY Flight Activity (Flightaware)

Listeners: 0 out of 2022 total

Fayetteville Tower: 118.300

KFNT App/Dep (Archives)
Flint, Michigan, United States

Feed Status: UP
Listen in your browser - HTML5 player(in browser, HTML5)
Click here to listen with your own player(launches your MP3 player)

KFNT 171753Z 30008KT 10SM CLR 27/17 A2989 RMK AO2 LTG DSNT S RAB08E27 SLP117 P0000 60000 T02670167 10272 20206 58002

KFNT Airport Info (Airnav.com)

KFNT Flight Activity (Flightaware)

Listeners: 0 out of 2022 total

Great Lakes Approach: 118.800

KFNT Tower (Archives)
Flint, Michigan, United States

Feed Status: UP
Listen in your browser - HTML5 player(in browser, HTML5)
Click here to listen with your own player(launches your MP3 player)

KFNT 171753Z 30008KT 10SM CLR 27/17 A2989 RMK AO2 LTG DSNT S RAB08E27 SLP117 P0000 60000 T02670167 10272 20206 58002

KFNT Airport Info (Airnav.com)

KFNT Flight Activity (Flightaware)

Listeners: 0 out of 2022 total

Flint Tower: 126.300

KFWA App/Dep (Archives)
Fort Wayne, Indiana, United States

Feed Status: UP
Listen in your browser - HTML5 player(in browser, HTML5)
Click here to listen with your own player(launches your MP3 player)

KFWA 171754Z 31006KT 10SM FEW045 SCT055 SCT300 28/19 A2994 RMK AO2 SLP131 T02780189 10278 20228 51001

KFWA Airport Info (Airnav.com)

KFWA Flight Activity (Flightaware)

Listeners: 0 out of 2022 total

Fort Wayne Approach/Departure: 127.200
Fort Wayne Approach/Departure: 132.150
Fort Wayne Approach/Departure: 135.325

KFWA ATIS (Archives)
Fort Wayne, Indiana, United States

Feed Status: UP
Listen in your browser - HTML5 player(in browser, HTML5)
Click here to listen with your own player(launches your MP3 player)

KFWA 171754Z 31006KT 10SM FEW045 SCT055 SCT300 28/19 A2994 RMK AO2 SLP131 T02780189 10278 20228 51001

KFWA Airport Info (Airnav.com)

KFWA Flight Activity (Flightaware)

Listeners: 0 out of 2022 total

Fort Wayne ATIS: 121.250

KFWA Del/Ground (Archives)
Fort Wayne, Indiana, United States

Feed Status: UP
Listen in your browser - HTML5 player(in browser, HTML5)
Click here to listen with your own player(launches your MP3 player)

KFWA 171754Z 31006KT 10SM FEW045 SCT055 SCT300 28/19 A2994 RMK AO2 SLP131 T02780189 10278 20228 51001

KFWA Airport Info (Airnav.com)

KFWA Flight Activity (Flightaware)

Listeners: 0 out of 2022 total

Fort Wayne Clearance Delivery: 124.750
Fort Wayne Ground: 121.900

KFWA Emergency/Guard (Archives)
Fort Wayne, Indiana, United States

Feed Status: UP
Listen in your browser - HTML5 player(in browser, HTML5)
Click here to listen with your own player(launches your MP3 player)

KFWA 171754Z 31006KT 10SM FEW045 SCT055 SCT300 28/19 A2994 RMK AO2 SLP131 T02780189 10278 20228 51001

KFWA Airport Info (Airnav.com)

KFWA Flight Activity (Flightaware)

Listeners: 0 out of 2022 total

Emergency/Guard: 121.500

KFWA Tower (Archives)
Fort Wayne, Indiana, United States

Feed Status: UP
Listen in your browser - HTML5 player(in browser, HTML5)
Click here to listen with your own player(launches your MP3 player)

KFWA 171754Z 31006KT 10SM FEW045 SCT055 SCT300 28/19 A2994 RMK AO2 SLP131 T02780189 10278 20228 51001

KFWA Airport Info (Airnav.com)

KFWA Flight Activity (Flightaware)

Listeners: 0 out of 2022 total

Fort Wayne Tower: 119.100

KGEG Del/Gnd/Twr/App (Archives)
Spokane, Washington, United States

Feed Status: UP
Listen in your browser - HTML5 player(in browser, HTML5)
Click here to listen with your own player(launches your MP3 player)

KGEG 171753Z 00000KT 10SM FEW120 SCT160 BKN220 31/12 A3004 RMK AO2 SLP146 T03110122 10311 20211 50003

KGEG Airport Info (Airnav.com)

KGEG Flight Activity (Flightaware)

Listeners: 4 out of 2022 total

Air to Air: 123.950
Emergency/Guard: 121.500
Seattle Handoff: 126.100
Spokane Approach/Departure: 123.750
Spokane Approach/Departure: 133.350
Spokane Clearance Delivery: 127.550
Spokane Ground: 121.900
Spokane Tower: 118.300

KGRB App/Dep (Archives)
Green Bay, Wisconsin, United States

Feed Status: UP
Listen in your browser - HTML5 player(in browser, HTML5)
Click here to listen with your own player(launches your MP3 player)

KGRB 171753Z 34010G20KT 10SM FEW045 BKN055 22/11 A3001 RMK AO2 SLP160 T02220106 10233 20178 53010

KGRB Airport Info (Airnav.com)

KGRB Flight Activity (Flightaware)

Listeners: 0 out of 2022 total

Green Bay Approach/Departure: 119.400

KGRB ATIS (Archives)
Green Bay, Wisconsin, United States

Feed Status: UP
Listen in your browser - HTML5 player(in browser, HTML5)
Click here to listen with your own player(launches your MP3 player)

KGRB 171753Z 34010G20KT 10SM FEW045 BKN055 22/11 A3001 RMK AO2 SLP160 T02220106 10233 20178 53010

KGRB Airport Info (Airnav.com)

KGRB Flight Activity (Flightaware)

Listeners: 0 out of 2022 total

Green Bay ATIS: 124.100

KGRB Gnd/Twr (Archives)
Green Bay, Wisconsin, United States

Feed Status: UP
Listen in your browser - HTML5 player(in browser, HTML5)
Click here to listen with your own player(launches your MP3 player)

KGRB 171753Z 34010G20KT 10SM FEW045 BKN055 22/11 A3001 RMK AO2 SLP160 T02220106 10233 20178 53010

KGRB Airport Info (Airnav.com)

KGRB Flight Activity (Flightaware)

Listeners: 0 out of 2022 total

Green Bay Ground: 121.900
Green Bay Tower: 118.700

KGRR App/Dep (Archives)
Grand Rapids, Michigan, United States

Feed Status: UP
Listen in your browser - HTML5 player(in browser, HTML5)
Click here to listen with your own player(launches your MP3 player)

KGRR 171753Z 31010G21KT 10SM BKN050 26/15 A2993 RMK AO2 SLP129 T02610150 10272 20206 53004

KGRR Airport Info (Airnav.com)

KGRR Flight Activity (Flightaware)

Listeners: 3 out of 2022 total

Grand Rapids Approach (North): 124.600
Grand Rapids Approach (South): 128.400

KGRR App/Dep (North) (Archives)
Grand Rapids, Michigan, United States

Feed Status: UP
Listen in your browser - HTML5 player(in browser, HTML5)
Click here to listen with your own player(launches your MP3 player)

KGRR 171753Z 31010G21KT 10SM BKN050 26/15 A2993 RMK AO2 SLP129 T02610150 10272 20206 53004

KGRR Airport Info (Airnav.com)

KGRR Flight Activity (Flightaware)

Listeners: 0 out of 2022 total

Grand Rapids Approach (North): 124.600

KGRR App/Dep (South) (Archives)
Grand Rapids, Michigan, United States

Feed Status: UP
Listen in your browser - HTML5 player(in browser, HTML5)
Click here to listen with your own player(launches your MP3 player)

KGRR 171753Z 31010G21KT 10SM BKN050 26/15 A2993 RMK AO2 SLP129 T02610150 10272 20206 53004

KGRR Airport Info (Airnav.com)

KGRR Flight Activity (Flightaware)

Listeners: 0 out of 2022 total

Grand Rapids Approach (South): 128.400

KGRR Clearance Delivery (Archives)
Grand Rapids, Michigan, United States

Feed Status: UP
Listen in your browser - HTML5 player(in browser, HTML5)
Click here to listen with your own player(launches your MP3 player)

KGRR 171753Z 31010G21KT 10SM BKN050 26/15 A2993 RMK AO2 SLP129 T02610150 10272 20206 53004

KGRR Airport Info (Airnav.com)

KGRR Flight Activity (Flightaware)

Listeners: 0 out of 2022 total

Grand Rapids Clearance Delivery: 119.300

KGRR Del/Gnd/Twr (Archives)
Grand Rapids, Michigan, United States

Feed Status: UP
Listen in your browser - HTML5 player(in browser, HTML5)
Click here to listen with your own player(launches your MP3 player)

KGRR 171753Z 31010G21KT 10SM BKN050 26/15 A2993 RMK AO2 SLP129 T02610150 10272 20206 53004

KGRR Airport Info (Airnav.com)

KGRR Flight Activity (Flightaware)

Listeners: 0 out of 2022 total

Grand Rapids Clearance Delivery: 119.300
Grand Rapids Ground: 121.800
Grand Rapids Tower: 135.650

KGRR Del/Gnd/Twr/App (Archives)
Grand Rapids, Michigan, United States

Feed Status: UP
Listen in your browser - HTML5 player(in browser, HTML5)
Click here to listen with your own player(launches your MP3 player)

KGRR 171753Z 31010G21KT 10SM BKN050 26/15 A2993 RMK AO2 SLP129 T02610150 10272 20206 53004

KGRR Airport Info (Airnav.com)

KGRR Flight Activity (Flightaware)

Listeners: 1 out of 2022 total

Grand Rapids Approach (North): 124.600
Grand Rapids Approach (South): 128.400
Grand Rapids Clearance Delivery: 119.300
Grand Rapids Ground: 121.800
Grand Rapids Tower: 135.650

KGRR Emergency/Guard (Archives)
Grand Rapids, Michigan, United States

Feed Status: UP
Listen in your browser - HTML5 player(in browser, HTML5)
Click here to listen with your own player(launches your MP3 player)

KGRR 171753Z 31010G21KT 10SM BKN050 26/15 A2993 RMK AO2 SLP129 T02610150 10272 20206 53004

KGRR Airport Info (Airnav.com)

KGRR Flight Activity (Flightaware)

Listeners: 0 out of 2022 total

Emergency/Guard: 121.500

KGRR Gnd/Twr/App (Archives)
Grand Rapids, Michigan, United States

Feed Status: UP
Listen in your browser - HTML5 player(in browser, HTML5)
Click here to listen with your own player(launches your MP3 player)

KGRR 171753Z 31010G21KT 10SM BKN050 26/15 A2993 RMK AO2 SLP129 T02610150 10272 20206 53004

KGRR Airport Info (Airnav.com)

KGRR Flight Activity (Flightaware)

Listeners: 1 out of 2022 total

Grand Rapids Approach (North): 124.600
Grand Rapids Approach (South): 128.400
Grand Rapids Ground: 121.800
Grand Rapids Tower: 135.650

KGRR Ground (Archives)
Grand Rapids, Michigan, United States

Feed Status: UP
Listen in your browser - HTML5 player(in browser, HTML5)
Click here to listen with your own player(launches your MP3 player)

KGRR 171753Z 31010G21KT 10SM BKN050 26/15 A2993 RMK AO2 SLP129 T02610150 10272 20206 53004

KGRR Airport Info (Airnav.com)

KGRR Flight Activity (Flightaware)

Listeners: 0 out of 2022 total

Grand Rapids Ground: 121.800

KGRR Tower (Archives)
Grand Rapids, Michigan, United States

Feed Status: UP
Listen in your browser - HTML5 player(in browser, HTML5)
Click here to listen with your own player(launches your MP3 player)

KGRR 171753Z 31010G21KT 10SM BKN050 26/15 A2993 RMK AO2 SLP129 T02610150 10272 20206 53004

KGRR Airport Info (Airnav.com)

KGRR Flight Activity (Flightaware)

Listeners: 1 out of 2022 total

Grand Rapids Tower: 135.650

KGSO Approach/Departure (Archives)
Greensboro, North Carolina, United States

Feed Status: UP
Listen in your browser - HTML5 player(in browser, HTML5)
Click here to listen with your own player(launches your MP3 player)

KGSO 171754Z 28005KT 10SM SCT050 BKN250 33/21 A2994 RMK AO2 SLP124 T03330206 10333 20239 58016

KGSO Airport Info (Airnav.com)

KGSO Flight Activity (Flightaware)

Listeners: 1 out of 2022 total

Greensboro Approach/Departure (South): 126.600
Greensboro Approach/Departure (West): 124.350

KGSO Approach/Departure (South) (Archives)
Greensboro, North Carolina, United States

Feed Status: UP
Listen in your browser - HTML5 player(in browser, HTML5)
Click here to listen with your own player(launches your MP3 player)

KGSO 171754Z 28005KT 10SM SCT050 BKN250 33/21 A2994 RMK AO2 SLP124 T03330206 10333 20239 58016

KGSO Airport Info (Airnav.com)

KGSO Flight Activity (Flightaware)

Listeners: 0 out of 2022 total

Greensboro Approach/Departure (South): 126.600

KGSO Approach/Departure (West) (Archives)
Greensboro, North Carolina, United States

Feed Status: UP
Listen in your browser - HTML5 player(in browser, HTML5)
Click here to listen with your own player(launches your MP3 player)

KGSO 171754Z 28005KT 10SM SCT050 BKN250 33/21 A2994 RMK AO2 SLP124 T03330206 10333 20239 58016

KGSO Airport Info (Airnav.com)

KGSO Flight Activity (Flightaware)

Listeners: 0 out of 2022 total

Greensboro Approach/Departure (West): 124.350

KGSO ATIS (Archives)
Greensboro, North Carolina, United States

Feed Status: UP
Listen in your browser - HTML5 player(in browser, HTML5)
Click here to listen with your own player(launches your MP3 player)

KGSO 171754Z 28005KT 10SM SCT050 BKN250 33/21 A2994 RMK AO2 SLP124 T03330206 10333 20239 58016

KGSO Airport Info (Airnav.com)

KGSO Flight Activity (Flightaware)

Listeners: 0 out of 2022 total

Greensboro ATIS: 128.550

KGSO Del/Gnd (Archives)
Greensboro, North Carolina, United States

Feed Status: UP
Listen in your browser - HTML5 player(in browser, HTML5)
Click here to listen with your own player(launches your MP3 player)

KGSO 171754Z 28005KT 10SM SCT050 BKN250 33/21 A2994 RMK AO2 SLP124 T03330206 10333 20239 58016

KGSO Airport Info (Airnav.com)

KGSO Flight Activity (Flightaware)

Listeners: 0 out of 2022 total

Greensboro Clearance Delivery: 121.750
Greensboro Ground: 121.900

KGSO Tower (Archives)
Greensboro, North Carolina, United States

Feed Status: UP
Listen in your browser - HTML5 player(in browser, HTML5)
Click here to listen with your own player(launches your MP3 player)

KGSO 171754Z 28005KT 10SM SCT050 BKN250 33/21 A2994 RMK AO2 SLP124 T03330206 10333 20239 58016

KGSO Airport Info (Airnav.com)

KGSO Flight Activity (Flightaware)

Listeners: 1 out of 2022 total

Greensboro Tower: 119.100

KGSP App/Dep (East) (Archives)
Greer, South Carolina, United States

Feed Status: UP
Listen in your browser - HTML5 player(in browser, HTML5)
Click here to listen with your own player(launches your MP3 player)

KGMU 171753Z 23008KT 10SM FEW049 SCT075 SCT100 33/21 A3000 RMK AO2 LTG DSNT W SLP144 T03330211 10339 20239 58012

KGMU Airport Info (Airnav.com)

KGMU Flight Activity (Flightaware)

Listeners: 0 out of 2022 total

Greer Approach (East): 119.400

KGSP App/Dep (West) (Archives)
Greer, South Carolina, United States

Feed Status: UP
Listen in your browser - HTML5 player(in browser, HTML5)
Click here to listen with your own player(launches your MP3 player)

KGMU 171753Z 23008KT 10SM FEW049 SCT075 SCT100 33/21 A3000 RMK AO2 LTG DSNT W SLP144 T03330211 10339 20239 58012

KGMU Airport Info (Airnav.com)

KGMU Flight Activity (Flightaware)

Listeners: 0 out of 2022 total

Greer Approach (West): 118.800

KGSP ATIS (Archives)
Greer, South Carolina, United States

Feed Status: UP
Listen in your browser - HTML5 player(in browser, HTML5)
Click here to listen with your own player(launches your MP3 player)

KGMU 171753Z 23008KT 10SM FEW049 SCT075 SCT100 33/21 A3000 RMK AO2 LTG DSNT W SLP144 T03330211 10339 20239 58012

KGMU Airport Info (Airnav.com)

KGMU Flight Activity (Flightaware)

Listeners: 0 out of 2022 total

Greer ATIS: 134.250

KGSP Tower (Archives)
Greer, South Carolina, United States

Feed Status: UP
Listen in your browser - HTML5 player(in browser, HTML5)
Click here to listen with your own player(launches your MP3 player)

KGMU 171753Z 23008KT 10SM FEW049 SCT075 SCT100 33/21 A3000 RMK AO2 LTG DSNT W SLP144 T03330211 10339 20239 58012

KGMU Airport Info (Airnav.com)

KGMU Flight Activity (Flightaware)

Listeners: 4 out of 2022 total

Greer Tower: 120.100

KHSV App/Dep (Archives)
Huntsville, Alabama, United States

Feed Status: UP
Listen in your browser - HTML5 player(in browser, HTML5)
Click here to listen with your own player(launches your MP3 player)

KHSV 171753Z 27006KT 10SM SCT045TCU SCT250 33/23 A2999 RMK AO2 SLP146 TCU OHD AND NE T03280233 10333 20239 58014 $

KHSV Airport Info (Airnav.com)

KHSV Flight Activity (Flightaware)

Listeners: 2 out of 2022 total

Huntsville Approach (180-359): 118.050
Huntsville Approach (360-179): 125.600
Huntsville Approach (ASR): 118.750

KHSV ATIS (Archives)
Huntsville, Alabama, United States

Feed Status: UP
Listen in your browser - HTML5 player(in browser, HTML5)
Click here to listen with your own player(launches your MP3 player)

KHSV 171753Z 27006KT 10SM SCT045TCU SCT250 33/23 A2999 RMK AO2 SLP146 TCU OHD AND NE T03280233 10333 20239 58014 $

KHSV Airport Info (Airnav.com)

KHSV Flight Activity (Flightaware)

Listeners: 0 out of 2022 total

Huntsville ATIS: 121.250

KHSV Del/Gnd (VHF) (Archives)
Huntsville, Alabama, United States

Feed Status: UP
Listen in your browser - HTML5 player(in browser, HTML5)
Click here to listen with your own player(launches your MP3 player)

KHSV 171753Z 27006KT 10SM SCT045TCU SCT250 33/23 A2999 RMK AO2 SLP146 TCU OHD AND NE T03280233 10333 20239 58014 $

KHSV Airport Info (Airnav.com)

KHSV Flight Activity (Flightaware)

Listeners: 0 out of 2022 total

Huntsville Clearance: 120.350
Huntsville Ground: 121.900

KHSV Emergency/Guard (Archives)
Huntsville, Alabama, United States

Feed Status: UP
Listen in your browser - HTML5 player(in browser, HTML5)
Click here to listen with your own player(launches your MP3 player)

KHSV 171753Z 27006KT 10SM SCT045TCU SCT250 33/23 A2999 RMK AO2 SLP146 TCU OHD AND NE T03280233 10333 20239 58014 $

KHSV Airport Info (Airnav.com)

KHSV Flight Activity (Flightaware)

Listeners: 0 out of 2022 total

Emergency/Guard: 121.500

KHSV Gnd/Twr (VHF/UHF) (Archives)
Huntsville, Alabama, United States

Feed Status: UP
Listen in your browser - HTML5 player(in browser, HTML5)
Click here to listen with your own player(launches your MP3 player)

KHSV 171753Z 27006KT 10SM SCT045TCU SCT250 33/23 A2999 RMK AO2 SLP146 TCU OHD AND NE T03280233 10333 20239 58014 $

KHSV Airport Info (Airnav.com)

KHSV Flight Activity (Flightaware)

Listeners: 1 out of 2022 total

Huntsville Ground: 121.900
Huntsville Ground: 269.525
Huntsville Tower: 127.600
Huntsville Tower: 350.350

KHSV Gnd/Twr/App/Dep (Archives)
Huntsville, Alabama, United States

Feed Status: UP
Listen in your browser - HTML5 player(in browser, HTML5)
Click here to listen with your own player(launches your MP3 player)

KHSV 171753Z 27006KT 10SM SCT045TCU SCT250 33/23 A2999 RMK AO2 SLP146 TCU OHD AND NE T03280233 10333 20239 58014 $

KHSV Airport Info (Airnav.com)

KHSV Flight Activity (Flightaware)

Listeners: 0 out of 2022 total

Huntsville Approach (180-359): 118.050
Huntsville Approach (360-179): 125.600
Huntsville Approach (ASR): 118.750
Huntsville Ground: 121.900
Huntsville Tower: 127.600

KHSV Tower (VHF) (Archives)
Huntsville, Alabama, United States

Feed Status: UP
Listen in your browser - HTML5 player(in browser, HTML5)
Click here to listen with your own player(launches your MP3 player)

KHSV 171753Z 27006KT 10SM SCT045TCU SCT250 33/23 A2999 RMK AO2 SLP146 TCU OHD AND NE T03280233 10333 20239 58014 $

KHSV Airport Info (Airnav.com)

KHSV Flight Activity (Flightaware)

Listeners: 0 out of 2022 total

Huntsville Tower: 127.600

KBTR/KHZR/L38 Del/Gnd/Twr/App/CTAF
New Roads, Louisiana, United States

Feed Status: DOWN
Offline since: 2023-10-29 21:18:22 UTC

KBTR 171807Z 30019G30KT 10SM VCTS FEW028 BKN043 BKN060 28/20 A3006 RMK AO2 PK WND 28032/1756 WSHFT 1752 LTG DSNT ALQDS T02780200

KBTR Airport Info (Airnav.com)

Baton Rouge Approach/Departure (East): 126.500
Baton Rouge Approach/Departure (Military): 278.300
Baton Rouge Approach/Departure (West): 120.300
Baton Rouge Clearance Delivery: 119.400
Baton Rouge Ground: 121.900
Baton Rouge Tower (Military): 257.800
Baton Rouge Tower/CTAF: 118.450
Baton Rouge UNICOM: 122.950
Houston Center (App/Dep when Approach closed): 338.250
Houston Center (App/Dep when Approach closed): 126.350
Louisiana Regional L38 CTAF: 123.000
United Airlines: 129.925

KICT App/Dep (All) (Archives)
Wichita, Kansas, United States

Feed Status: UP
Listen in your browser - HTML5 player(in browser, HTML5)
Click here to listen with your own player(launches your MP3 player)

KICT 171753Z 07010G20KT 10SM FEW180 30/15 A3011 RMK AO2 PK WND 06026/1719 SLP178 T03000150 10306 20228 53017

KICT Airport Info (Airnav.com)

KICT Flight Activity (Flightaware)

Listeners: 3 out of 2022 total

Wichita Approach: 125.500
Wichita Approach (East): 134.850
Wichita Approach (West): 126.700

KICT Approach (East) (Archives)
Wichita, Kansas, United States

Feed Status: UP
Listen in your browser - HTML5 player(in browser, HTML5)
Click here to listen with your own player(launches your MP3 player)

KICT 171753Z 07010G20KT 10SM FEW180 30/15 A3011 RMK AO2 PK WND 06026/1719 SLP178 T03000150 10306 20228 53017

KICT Airport Info (Airnav.com)

KICT Flight Activity (Flightaware)

Listeners: 0 out of 2022 total

Wichita Approach (East): 134.850

KICT Approach (West) (Archives)
Wichita, Kansas, United States

Feed Status: UP
Listen in your browser - HTML5 player(in browser, HTML5)
Click here to listen with your own player(launches your MP3 player)

KICT 171753Z 07010G20KT 10SM FEW180 30/15 A3011 RMK AO2 PK WND 06026/1719 SLP178 T03000150 10306 20228 53017

KICT Airport Info (Airnav.com)

KICT Flight Activity (Flightaware)

Listeners: 1 out of 2022 total

Wichita Approach (West): 126.700

KICT Approach 125.5 (Archives)
Wichita, Kansas, United States

Feed Status: UP
Listen in your browser - HTML5 player(in browser, HTML5)
Click here to listen with your own player(launches your MP3 player)

KICT 171753Z 07010G20KT 10SM FEW180 30/15 A3011 RMK AO2 PK WND 06026/1719 SLP178 T03000150 10306 20228 53017

KICT Airport Info (Airnav.com)

KICT Flight Activity (Flightaware)

Listeners: 0 out of 2022 total

Wichita Approach: 125.500

KICT ATIS (Archives)
Wichita, Kansas, United States

Feed Status: UP
Listen in your browser - HTML5 player(in browser, HTML5)
Click here to listen with your own player(launches your MP3 player)

KICT 171753Z 07010G20KT 10SM FEW180 30/15 A3011 RMK AO2 PK WND 06026/1719 SLP178 T03000150 10306 20228 53017

KICT Airport Info (Airnav.com)

KICT Flight Activity (Flightaware)

Listeners: 0 out of 2022 total

Wichita ATIS: 125.150

KICT Ground/Tower (Archives)
Wichita, Kansas, United States

Feed Status: UP
Listen in your browser - HTML5 player(in browser, HTML5)
Click here to listen with your own player(launches your MP3 player)

KICT 171753Z 07010G20KT 10SM FEW180 30/15 A3011 RMK AO2 PK WND 06026/1719 SLP178 T03000150 10306 20228 53017

KICT Airport Info (Airnav.com)

KICT Flight Activity (Flightaware)

Listeners: 0 out of 2022 total

Wichita Ground: 121.900
Wichita Tower: 118.200

KIND Ground (Archives)
Indianapolis, Indiana, United States

Feed Status: UP
Listen in your browser - HTML5 player(in browser, HTML5)
Click here to listen with your own player(launches your MP3 player)

KIND 171754Z 28011KT 10SM FEW035 BKN043CB BKN100 28/20 A2994 RMK AO2 SLP131 CB N AND SW MOV E TCU ALQDS T02830200 10289 20228 51004

KIND Airport Info (Airnav.com)

KIND Flight Activity (Flightaware)

Listeners: 0 out of 2022 total

Indianapolis Ground: 121.900

KIND Tower (Archives)
Indianapolis, Indiana, United States

Feed Status: UP
Listen in your browser - HTML5 player(in browser, HTML5)
Click here to listen with your own player(launches your MP3 player)

KIND 171754Z 28011KT 10SM FEW035 BKN043CB BKN100 28/20 A2994 RMK AO2 SLP131 CB N AND SW MOV E TCU ALQDS T02830200 10289 20228 51004

KIND Airport Info (Airnav.com)

KIND Flight Activity (Flightaware)

Listeners: 0 out of 2022 total

Indianapolis Tower (Primary): 120.900

KCID Gnd/Twr/App/KIOW (Archives)
Iowa City, Iowa, United States

Feed Status: UP
Listen in your browser - HTML5 player(in browser, HTML5)
Click here to listen with your own player(launches your MP3 player)

KCID 171752Z 34011KT 10SM FEW047 SCT055 24/16 A3009 RMK AO2 SLP185 T02440156 10256 20178 51012

KCID Airport Info (Airnav.com)

KCID Flight Activity (Flightaware)

Listeners: 0 out of 2022 total

Cedar Rapids Approach (091-269): 119.700
Cedar Rapids Approach (270-090): 134.050
Cedar Rapids Clearance Delivery: 125.450
Cedar Rapids Ground (0500-2330): 121.600
Cedar Rapids Tower (0500-2330): 118.700
UNICOM C17 (Marion) and surrounding area: 122.700
UNICOM IA24 Green Castle: 122.900
UNICOM KIOW (Iowa City) and surrounding area: 122.800

KISP (NY Approach) (Archives)
Islip, New York, United States

Feed Status: UP
Listen in your browser - HTML5 player(in browser, HTML5)
Click here to listen with your own player(launches your MP3 player)

KISP 171756Z 19008KT 10SM FEW035 FEW090 SCT250 29/22 A2982 RMK AO2 SLP096 T02890222 10294 20256 58018

KISP Airport Info (Airnav.com)

KISP Flight Activity (Flightaware)

Listeners: 1 out of 2022 total

New York Approach/Departure (Islip): 120.050

KISP Tower (Archives)
Islip, New York, United States

Feed Status: UP
Listen in your browser - HTML5 player(in browser, HTML5)
Click here to listen with your own player(launches your MP3 player)

KISP 171756Z 19008KT 10SM FEW035 FEW090 SCT250 29/22 A2982 RMK AO2 SLP096 T02890222 10294 20256 58018

KISP Airport Info (Airnav.com)

KISP Flight Activity (Flightaware)

Listeners: 4 out of 2022 total

Islip Tower: 119.300

New York Approach (VIKKY Sector) (Archives)
Islip, New York, United States

Feed Status: UP
Listen in your browser - HTML5 player(in browser, HTML5)
Click here to listen with your own player(launches your MP3 player)


Listeners: 0 out of 2022 total

New York Approach (VIKKY Sector): 128.625

KJAN Gnd/Twr/App/Dep (Archives)
Jackson, Mississippi, United States

Feed Status: UP
Listen in your browser - HTML5 player(in browser, HTML5)
Click here to listen with your own player(launches your MP3 player)

KJAN 171754Z 28007G15KT 10SM FEW040 SCT049 BKN065 34/23 A3002 RMK AO2 SLP158 T03440233 10350 20256 58017

KJAN Airport Info (Airnav.com)

KJAN Flight Activity (Flightaware)

Listeners: 2 out of 2022 total

Jackson Approach/Departure: 123.900
Jackson Approach/Departure: 125.250
Jackson Ground: 121.700
Jackson Tower: 120.900

KJAX Approach/Departure #1 (Archives)
Jacksonville, Florida, United States

Feed Status: UP
Listen in your browser - HTML5 player(in browser, HTML5)
Click here to listen with your own player(launches your MP3 player)

KJAX 171817Z 28010G29KT 1SM TSRA BR SCT012 BKN044CB OVC085 24/22 A3011 RMK AO2 PK WND 28036/1801 WSHFT 1801 CONS LTGICCGCC OHD TS OHD MOV NE P0075 T02390217 RVRNO $

KJAX Airport Info (Airnav.com)

KJAX Flight Activity (Flightaware)

Listeners: 1 out of 2022 total

Jacksonville Approach/Departure: 127.000
Jacksonville Approach/Departure: 124.900
Jacksonville Approach/Departure: 123.800
Jacksonville Approach/Departure: 120.750
Jacksonville Approach/Departure: 118.000
Jacksonville Approach/Departure: 119.000
Jacksonville Approach/Departure: 127.775
Jacksonville Approach/Departure: 132.775

KJAX ATIS (Archives)
Jacksonville, Florida, United States

Feed Status: UP
Listen in your browser - HTML5 player(in browser, HTML5)
Click here to listen with your own player(launches your MP3 player)

KJAX 171817Z 28010G29KT 1SM TSRA BR SCT012 BKN044CB OVC085 24/22 A3011 RMK AO2 PK WND 28036/1801 WSHFT 1801 CONS LTGICCGCC OHD TS OHD MOV NE P0075 T02390217 RVRNO $

KJAX Airport Info (Airnav.com)

KJAX Flight Activity (Flightaware)

Listeners: 0 out of 2022 total

Jacksonville D-ATIS: 125.850

KJAX Gnd/Twr (Archives)
Jacksonville, Florida, United States

Feed Status: UP
Listen in your browser - HTML5 player(in browser, HTML5)
Click here to listen with your own player(launches your MP3 player)

KJAX 171817Z 28010G29KT 1SM TSRA BR SCT012 BKN044CB OVC085 24/22 A3011 RMK AO2 PK WND 28036/1801 WSHFT 1801 CONS LTGICCGCC OHD TS OHD MOV NE P0075 T02390217 RVRNO $

KJAX Airport Info (Airnav.com)

KJAX Flight Activity (Flightaware)

Listeners: 0 out of 2022 total

Jacksonville Ground: 121.900
Jacksonville Tower: 118.300

KJPX CTAF/Tower (Archives)
East Hampton, New York, United States

Feed Status: UP
Listen in your browser - HTML5 player(in browser, HTML5)
Click here to listen with your own player(launches your MP3 player)

KHTO Airport Info (Airnav.com)

KHTO Flight Activity (Flightaware)

Listeners: 0 out of 2022 total

East Hampton CTAF/Tower: 125.225

KLAN Del/Gnd/Twr/App (Archives)
Lansing, Michigan, United States

Feed Status: UP
Listen in your browser - HTML5 player(in browser, HTML5)
Click here to listen with your own player(launches your MP3 player)

KLAN 171753Z 31012KT 10SM SCT044 SCT055 27/17 A2991 RMK AO2 SLP123 60000 T02670167 10267 20189 52001

KLAN Airport Info (Airnav.com)

KLAN Flight Activity (Flightaware)

Listeners: 0 out of 2022 total

CTAF/UNICOM (K60G): 122.900
CTAF/UNICOM (KTEW/4D0): 122.700
Emergency/Guard: 121.500
Great Lakes Approach: 127.300
Great Lakes Approach/Departure (North): 133.475
Great Lakes Approach/Departure (South): 118.650
Lansing Clearance Delivery: 123.675
Lansing Ground: 121.900
Lansing Tower: 119.900
Lansing UNICOM: 122.950

KLBB Gnd/Twr/App (Archives)
Lubbock, Texas, United States

Feed Status: UP
Listen in your browser - HTML5 player(in browser, HTML5)
Click here to listen with your own player(launches your MP3 player)

KLBB 171753Z VRB05KT 10SM FEW055 FEW130 BKN150 32/17 A3016 RMK AO2 SLP151 T03220167 10322 20228 51012

KLBB Airport Info (Airnav.com)

KLBB Flight Activity (Flightaware)

Listeners: 4 out of 2022 total

Emergency/Guard: 121.500
Hub City Aviation: 123.500
Lubbock Approach/Departure: 119.200
Lubbock Ground: 121.900
Lubbock Tower: 120.500

KCMH App/Dep (134.0) (Archives)
Columbus, Ohio, United States

Feed Status: UP
Listen in your browser - HTML5 player(in browser, HTML5)
Click here to listen with your own player(launches your MP3 player)

KCMH 171751Z VRB04KT 10SM FEW015 SCT023 BKN055 26/21 A2989 RMK AO2 LTG DSNT NE RAB10E40 SLP113 P0039 60039 T02610211 10306 20233 58004

KCMH Airport Info (Airnav.com)

KCMH Flight Activity (Flightaware)

Listeners: 2 out of 2022 total

Columbus Approach (South): 134.000

KCMH App/Dep (South/UHF)
Columbus, Ohio, United States

Feed Status: DOWN
Offline since: 2024-01-16 18:27:05 UTC

KCMH 171751Z VRB04KT 10SM FEW015 SCT023 BKN055 26/21 A2989 RMK AO2 LTG DSNT NE RAB10E40 SLP113 P0039 60039 T02610211 10306 20233 58004

KCMH Airport Info (Airnav.com)

Columbus Approach/Departure (South/Mil): 279.600

KLEX Gnd/Twr/App/Dep (Archives)
Lexington, Kentucky, United States

Feed Status: UP
Listen in your browser - HTML5 player(in browser, HTML5)
Click here to listen with your own player(launches your MP3 player)

KLEX 171754Z 26008KT 10SM FEW018 SCT027 27/22 A2998 RMK AO2 SLP143 60000 T02720217 10272 20222 50003

KLEX Airport Info (Airnav.com)

KLEX Flight Activity (Flightaware)

Listeners: 2 out of 2022 total

Lexington Approach: 120.150
Lexington Approach: 120.750
Lexington Ground: 121.900
Lexington Tower: 119.100

KLNK Approach (Archives)
Lincoln, Nebraska, United States

Feed Status: UP
Listen in your browser - HTML5 player(in browser, HTML5)
Click here to listen with your own player(launches your MP3 player)

KLNK 171754Z 06008KT 8SM CLR 28/17 A3017 RMK AO2 SLP206 T02780167 10278 20189 50005

KLNK Airport Info (Airnav.com)

KLNK Flight Activity (Flightaware)

Listeners: 0 out of 2022 total

Lincoln Approach: 124.000

KLNK ATIS (Archives)
Lincoln, Nebraska, United States

Feed Status: UP
Listen in your browser - HTML5 player(in browser, HTML5)
Click here to listen with your own player(launches your MP3 player)

KLNK 171754Z 06008KT 8SM CLR 28/17 A3017 RMK AO2 SLP206 T02780167 10278 20189 50005

KLNK Airport Info (Airnav.com)

KLNK Flight Activity (Flightaware)

Listeners: 0 out of 2022 total

Lincoln ATIS: 118.050

KLNK Ground (Archives)
Lincoln, Nebraska, United States

Feed Status: UP
Listen in your browser - HTML5 player(in browser, HTML5)
Click here to listen with your own player(launches your MP3 player)

KLNK 171754Z 06008KT 8SM CLR 28/17 A3017 RMK AO2 SLP206 T02780167 10278 20189 50005

KLNK Airport Info (Airnav.com)

KLNK Flight Activity (Flightaware)

Listeners: 0 out of 2022 total

Lincoln Ground: 121.900

KLNK Tower (Archives)
Lincoln, Nebraska, United States

Feed Status: UP
Listen in your browser - HTML5 player(in browser, HTML5)
Click here to listen with your own player(launches your MP3 player)

KLNK 171754Z 06008KT 8SM CLR 28/17 A3017 RMK AO2 SLP206 T02780167 10278 20189 50005

KLNK Airport Info (Airnav.com)

KLNK Flight Activity (Flightaware)

Listeners: 0 out of 2022 total

Lincoln Tower: 118.500

KLNK Twr/App (Archives)
Lincoln, Nebraska, United States

Feed Status: UP
Listen in your browser - HTML5 player(in browser, HTML5)
Click here to listen with your own player(launches your MP3 player)

KLNK 171754Z 06008KT 8SM CLR 28/17 A3017 RMK AO2 SLP206 T02780167 10278 20189 50005

KLNK Airport Info (Airnav.com)

KLNK Flight Activity (Flightaware)

Listeners: 1 out of 2022 total

Lincoln Approach: 124.000
Lincoln Tower: 118.500

KODO/KMAF/KMDD Misc (Archives)
Midland, Texas, United States

Feed Status: UP
Listen in your browser - HTML5 player(in browser, HTML5)
Click here to listen with your own player(launches your MP3 player)

KODO 171753Z AUTO 09006KT 10SM CLR 33/16 A3012 RMK AO2 SLP142 T03280161 10328 20250 56004

KODO Airport Info (Airnav.com)

KODO Flight Activity (Flightaware)

Listeners: 1 out of 2022 total

Midland Airpark CTAF: 122.700
Midland Approach: 124.600
Midland Tower: 118.700
Odessa CTAF: 123.000

KODO/KMAF/KMDD Misc (Archives)
Midland, Texas, United States

Feed Status: UP
Listen in your browser - HTML5 player(in browser, HTML5)
Click here to listen with your own player(launches your MP3 player)

KODO 171753Z AUTO 09006KT 10SM CLR 33/16 A3012 RMK AO2 SLP142 T03280161 10328 20250 56004

KODO Airport Info (Airnav.com)

KODO Flight Activity (Flightaware)

Listeners: 1 out of 2022 total

Midland Airpark CTAF: 122.700
Midland Approach: 124.600
Midland Tower: 118.700
Odessa CTAF: 123.000

Chicago App/Dep (S. Sat Sector 1) (Archives)
Chicago, Illinois, United States

Feed Status: UP
Listen in your browser - HTML5 player(in browser, HTML5)
Click here to listen with your own player(launches your MP3 player)

KMDW 171753Z 30012G19KT 10SM FEW060 28/13 A2996 RMK AO2 SLP134 T02830133 10283 20228 50007

KMDW Airport Info (Airnav.com)

KMDW Flight Activity (Flightaware)

Listeners: 1 out of 2022 total

Chicago Approach/Departure (South Satellite Sector 1): 128.200

Chicago App/Dep (S. Sat Sector 2) (Archives)
Chicago, Illinois, United States

Feed Status: UP
Listen in your browser - HTML5 player(in browser, HTML5)
Click here to listen with your own player(launches your MP3 player)

KMDW 171753Z 30012G19KT 10SM FEW060 28/13 A2996 RMK AO2 SLP134 T02830133 10283 20228 50007

KMDW Airport Info (Airnav.com)

KMDW Flight Activity (Flightaware)

Listeners: 0 out of 2022 total

Chicago Approach/Departure (South Satellite Sector 2): 119.350

Chicago Approach (MDW/LOT) (Archives)
Chicago, Illinois, United States

Feed Status: UP
Listen in your browser - HTML5 player(in browser, HTML5)
Click here to listen with your own player(launches your MP3 player)

KMDW 171753Z 30012G19KT 10SM FEW060 28/13 A2996 RMK AO2 SLP134 T02830133 10283 20228 50007

KMDW Airport Info (Airnav.com)

KMDW Flight Activity (Flightaware)

Listeners: 1 out of 2022 total

Chicago Approach/Departure (South Satellite Sector 1): 128.200
Chicago Approach/Departure (South Satellite Sector 2): 119.350

KMDW App/Dep (Archives)
Chicago, Illinois, United States

Feed Status: UP
Listen in your browser - HTML5 player(in browser, HTML5)
Click here to listen with your own player(launches your MP3 player)

KORD 171751Z 33010G20KT 10SM SCT050 27/14 A2997 RMK AO2 SLP142 T02720139 10272 20217 51009

KORD Airport Info (Airnav.com)

KORD Flight Activity (Flightaware)

Listeners: 2 out of 2022 total

Chicago Approach/Departure (South Satellite Sector 1): 128.200
Chicago Approach/Departure (South Satellite Sector 2): 119.350

KMDW ATIS (Archives)
Chicago, Illinois, United States

Feed Status: UP
Listen in your browser - HTML5 player(in browser, HTML5)
Click here to listen with your own player(launches your MP3 player)

KMDW 171753Z 30012G19KT 10SM FEW060 28/13 A2996 RMK AO2 SLP134 T02830133 10283 20228 50007

KMDW Airport Info (Airnav.com)

KMDW Flight Activity (Flightaware)

Listeners: 0 out of 2022 total

Midway ATIS: 132.750

KMDW Clearance/Metering (Archives)
Chicago, Illinois, United States

Feed Status: UP
Listen in your browser - HTML5 player(in browser, HTML5)
Click here to listen with your own player(launches your MP3 player)

KMDW 171753Z 30012G19KT 10SM FEW060 28/13 A2996 RMK AO2 SLP134 T02830133 10283 20228 50007

KMDW Airport Info (Airnav.com)

KMDW Flight Activity (Flightaware)

Listeners: 0 out of 2022 total

Midway Clearance Delivery/Metering: 124.625

KMDW Ground #1 (Archives)
Chicago, Illinois, United States

Feed Status: UP
Listen in your browser - HTML5 player(in browser, HTML5)
Click here to listen with your own player(launches your MP3 player)

KMDW 171753Z 30012G19KT 10SM FEW060 28/13 A2996 RMK AO2 SLP134 T02830133 10283 20228 50007

KMDW Airport Info (Airnav.com)

KMDW Flight Activity (Flightaware)

Listeners: 0 out of 2022 total

Midway Ground: 118.075

KMDW Ground #2 (Archives)
Chicago, Illinois, United States

Feed Status: UP
Listen in your browser - HTML5 player(in browser, HTML5)
Click here to listen with your own player(launches your MP3 player)

KMDW 171753Z 30012G19KT 10SM FEW060 28/13 A2996 RMK AO2 SLP134 T02830133 10283 20228 50007

KMDW Airport Info (Airnav.com)

KMDW Flight Activity (Flightaware)

Listeners: 0 out of 2022 total

Midway Ground: 118.075

KMDW Ground/Tower (Archives)
Chicago, Illinois, United States

Feed Status: UP
Listen in your browser - HTML5 player(in browser, HTML5)
Click here to listen with your own player(launches your MP3 player)

KMDW 171753Z 30012G19KT 10SM FEW060 28/13 A2996 RMK AO2 SLP134 T02830133 10283 20228 50007

KMDW Airport Info (Airnav.com)

KMDW Flight Activity (Flightaware)

Listeners: 0 out of 2022 total

Midway Ground: 118.075
Midway Tower: 135.200

KMDW Ground/Tower (Archives)
Chicago, Illinois, United States

Feed Status: UP
Listen in your browser - HTML5 player(in browser, HTML5)
Click here to listen with your own player(launches your MP3 player)

KMDW 171753Z 30012G19KT 10SM FEW060 28/13 A2996 RMK AO2 SLP134 T02830133 10283 20228 50007

KMDW Airport Info (Airnav.com)

KMDW Flight Activity (Flightaware)

Listeners: 1 out of 2022 total

Midway Ground: 118.075
Midway Tower: 135.200

KMDW Tower #1 (Archives)
Chicago, Illinois, United States

Feed Status: UP
Listen in your browser - HTML5 player(in browser, HTML5)
Click here to listen with your own player(launches your MP3 player)

KMDW 171753Z 30012G19KT 10SM FEW060 28/13 A2996 RMK AO2 SLP134 T02830133 10283 20228 50007

KMDW Airport Info (Airnav.com)

KMDW Flight Activity (Flightaware)

Listeners: 5 out of 2022 total

Midway Tower: 135.200

KMDW Tower #2 (Archives)
Chicago, Illinois, United States

Feed Status: UP
Listen in your browser - HTML5 player(in browser, HTML5)
Click here to listen with your own player(launches your MP3 player)

KMDW 171753Z 30012G19KT 10SM FEW060 28/13 A2996 RMK AO2 SLP134 T02830133 10283 20228 50007

KMDW Airport Info (Airnav.com)

KMDW Flight Activity (Flightaware)

Listeners: 0 out of 2022 total

Midway Tower: 135.200

KMGY App/Dep
Dayton, Ohio, United States

Feed Status: DOWN
Offline since: 2024-07-17 18:50:40 UTC

KMGY 171753Z AUTO 24011KT 10SM SCT033 SCT045 29/20 A2991 RMK AO2 SLP118 T02940200 10294 20239 58005

KMGY Airport Info (Airnav.com)

Dayton Approach/Departure: 118.850

NORCAL App (EXPO/127.4) (Archives)
Sacramento, California, United States

Feed Status: UP
Listen in your browser - HTML5 player(in browser, HTML5)
Click here to listen with your own player(launches your MP3 player)

KMHR 171815Z AUTO 00000KT 10SM CLR 23/10 A3000 RMK A01

KMHR Airport Info (Airnav.com)

KMHR Flight Activity (Flightaware)

Listeners: 0 out of 2022 total

NORCAL Approach (EXPO Sector): 127.400

KMHT App/Dep (Fitzy Sector) (Archives)
Manchester, New Hampshire, United States

Feed Status: UP
Listen in your browser - HTML5 player(in browser, HTML5)
Click here to listen with your own player(launches your MP3 player)

KMHT 171753Z 18012G20KT 10SM SCT040 SCT150 BKN200 33/19 A2979 RMK AO2 SLP093 T03330189 10339 20244 58015

KMHT Airport Info (Airnav.com)

KMHT Flight Activity (Flightaware)

Listeners: 0 out of 2022 total

Boston Approach (Fitzy Sector): 124.900

KMHT ATIS #1 (Archives)
Manchester, New Hampshire, United States

Feed Status: UP
Listen in your browser - HTML5 player(in browser, HTML5)
Click here to listen with your own player(launches your MP3 player)

KMHT 171753Z 18012G20KT 10SM SCT040 SCT150 BKN200 33/19 A2979 RMK AO2 SLP093 T03330189 10339 20244 58015

KMHT Airport Info (Airnav.com)

KMHT Flight Activity (Flightaware)

Listeners: 0 out of 2022 total

Manchester ATIS: 119.550

KMHT ATIS #2 (Archives)
Manchester, New Hampshire, United States

Feed Status: UP
Listen in your browser - HTML5 player(in browser, HTML5)
Click here to listen with your own player(launches your MP3 player)

KMHT 171753Z 18012G20KT 10SM SCT040 SCT150 BKN200 33/19 A2979 RMK AO2 SLP093 T03330189 10339 20244 58015

KMHT Airport Info (Airnav.com)

KMHT Flight Activity (Flightaware)

Listeners: 0 out of 2022 total

Manchester ATIS: 119.550

KMHT Boston App/Dep #1 (Archives)
Manchester, New Hampshire, United States

Feed Status: UP
Listen in your browser - HTML5 player(in browser, HTML5)
Click here to listen with your own player(launches your MP3 player)

KMHT 171753Z 18012G20KT 10SM SCT040 SCT150 BKN200 33/19 A2979 RMK AO2 SLP093 T03330189 10339 20244 58015

KMHT Airport Info (Airnav.com)

KMHT Flight Activity (Flightaware)

Listeners: 0 out of 2022 total

Boston Approach (backup): 125.825
Boston Approach (Fitzy Sector): 124.900
Boston Approach (MHT/West Sector): 134.750
Boston Approach (Tommy Sector): 127.350

KMHT Boston App/Dep #2 (Archives)
Manchester, New Hampshire, United States

Feed Status: UP
Listen in your browser - HTML5 player(in browser, HTML5)
Click here to listen with your own player(launches your MP3 player)

KMHT 171753Z 18012G20KT 10SM SCT040 SCT150 BKN200 33/19 A2979 RMK AO2 SLP093 T03330189 10339 20244 58015

KMHT Airport Info (Airnav.com)

KMHT Flight Activity (Flightaware)

Listeners: 0 out of 2022 total

Boston Approach (Fitzy Sector): 124.900
Boston Approach (MHT/West Sector): 134.750
Boston Approach (Tommy Sector): 127.350

KMHT Boston App/Dep #3 (Archives)
Manchester, New Hampshire, United States

Feed Status: UP
Listen in your browser - HTML5 player(in browser, HTML5)
Click here to listen with your own player(launches your MP3 player)

KMHT 171753Z 18012G20KT 10SM SCT040 SCT150 BKN200 33/19 A2979 RMK AO2 SLP093 T03330189 10339 20244 58015

KMHT Airport Info (Airnav.com)

KMHT Flight Activity (Flightaware)

Listeners: 0 out of 2022 total

Boston Approach (Fitzy Sector): 124.900
Boston Approach (MHT/West Sector): 134.750
Boston Approach (Tommy Sector): 127.350

KMHT Boston App/Dep #3 (Archives)
Manchester, New Hampshire, United States

Feed Status: UP
Listen in your browser - HTML5 player(in browser, HTML5)
Click here to listen with your own player(launches your MP3 player)

KASH 171756Z VRB05KT 10SM BKN120 31/21 A2981 RMK AO2 SLP099 T03060206 10317 20244 58014

KASH Airport Info (Airnav.com)

KASH Flight Activity (Flightaware)

Listeners: 0 out of 2022 total

Boston Approach (Fitzy Sector): 124.900

KMHT Del/Gnd/Twr (Archives)
Manchester, New Hampshire, United States

Feed Status: UP
Listen in your browser - HTML5 player(in browser, HTML5)
Click here to listen with your own player(launches your MP3 player)

KMHT 171753Z 18012G20KT 10SM SCT040 SCT150 BKN200 33/19 A2979 RMK AO2 SLP093 T03330189 10339 20244 58015

KMHT Airport Info (Airnav.com)

KMHT Flight Activity (Flightaware)

Listeners: 0 out of 2022 total

Airport Response 01: 158.730
Airport Response 02: 158.340
Airport Response 03: 159.720
Manchester Clearance Delivery: 135.900
Manchester Ground: 121.900
Manchester Tower: 121.300

KMHT Del/Gnd/Twr #2 (Archives)
Manchester, New Hampshire, United States

Feed Status: UP
Listen in your browser - HTML5 player(in browser, HTML5)
Click here to listen with your own player(launches your MP3 player)

KMHT 171753Z 18012G20KT 10SM SCT040 SCT150 BKN200 33/19 A2979 RMK AO2 SLP093 T03330189 10339 20244 58015

KMHT Airport Info (Airnav.com)

KMHT Flight Activity (Flightaware)

Listeners: 0 out of 2022 total

Manchester Clearance Delivery: 135.900
Manchester Ground: 121.900
Manchester Tower: 121.300

KMHT Del/Gnd/Twr/App (Archives)
Manchester, New Hampshire, United States

Feed Status: UP
Listen in your browser - HTML5 player(in browser, HTML5)
Click here to listen with your own player(launches your MP3 player)

KMHT 171753Z 18012G20KT 10SM SCT040 SCT150 BKN200 33/19 A2979 RMK AO2 SLP093 T03330189 10339 20244 58015

KMHT Airport Info (Airnav.com)

KMHT Flight Activity (Flightaware)

Listeners: 0 out of 2022 total

Airport Response 01: 158.730
Airport Response 02: 158.340
Airport Response 03: 159.720
Boston Approach (backup): 125.825
Boston Approach (Fitzy Sector): 124.900
Boston Approach (MHT/West Sector): 134.750
Emergency/Guard: 121.500
Manchester Clearance Delivery: 135.900
Manchester Ground: 121.900
Manchester Tower: 121.300

KMHT Ground (Archives)
Manchester, New Hampshire, United States

Feed Status: UP
Listen in your browser - HTML5 player(in browser, HTML5)
Click here to listen with your own player(launches your MP3 player)

KMHT 171753Z 18012G20KT 10SM SCT040 SCT150 BKN200 33/19 A2979 RMK AO2 SLP093 T03330189 10339 20244 58015

KMHT Airport Info (Airnav.com)

KMHT Flight Activity (Flightaware)

Listeners: 0 out of 2022 total

Manchester Ground: 121.900

KMHT Tower #1 (Archives)
Manchester, New Hampshire, United States

Feed Status: UP
Listen in your browser - HTML5 player(in browser, HTML5)
Click here to listen with your own player(launches your MP3 player)

KMHT 171753Z 18012G20KT 10SM SCT040 SCT150 BKN200 33/19 A2979 RMK AO2 SLP093 T03330189 10339 20244 58015

KMHT Airport Info (Airnav.com)

KMHT Flight Activity (Flightaware)

Listeners: 0 out of 2022 total

Manchester Tower: 121.300

KMHT Tower #2 (Archives)
Manchester, New Hampshire, United States

Feed Status: UP
Listen in your browser - HTML5 player(in browser, HTML5)
Click here to listen with your own player(launches your MP3 player)

KMHT 171753Z 18012G20KT 10SM SCT040 SCT150 BKN200 33/19 A2979 RMK AO2 SLP093 T03330189 10339 20244 58015

KMHT Airport Info (Airnav.com)

KMHT Flight Activity (Flightaware)

Listeners: 0 out of 2022 total

Manchester Tower: 121.300

KMHT Tower #3 (Archives)
Manchester, New Hampshire, United States

Feed Status: UP
Listen in your browser - HTML5 player(in browser, HTML5)
Click here to listen with your own player(launches your MP3 player)

KMHT 171753Z 18012G20KT 10SM SCT040 SCT150 BKN200 33/19 A2979 RMK AO2 SLP093 T03330189 10339 20244 58015

KMHT Airport Info (Airnav.com)

KMHT Flight Activity (Flightaware)

Listeners: 0 out of 2022 total

Manchester Tower: 121.300

KMKE Approach/Departure (Archives)
Milwaukee, Wisconsin, United States

Feed Status: UP
Listen in your browser - HTML5 player(in browser, HTML5)
Click here to listen with your own player(launches your MP3 player)

KMKE 171752Z 32013G19KT 10SM FEW049 SCT060 24/11 A2998 RMK AO2 SLP147 T02440106 10256 20206 51010

KMKE Airport Info (Airnav.com)

KMKE Flight Activity (Flightaware)

Listeners: 4 out of 2022 total

Milwaukee Approach: 118.000
Milwaukee Approach: 125.350
Milwaukee Approach: 126.500

KMKE Ground (Archives)
Milwaukee, Wisconsin, United States

Feed Status: UP
Listen in your browser - HTML5 player(in browser, HTML5)
Click here to listen with your own player(launches your MP3 player)

KMKE 171752Z 32013G19KT 10SM FEW049 SCT060 24/11 A2998 RMK AO2 SLP147 T02440106 10256 20206 51010

KMKE Airport Info (Airnav.com)

KMKE Flight Activity (Flightaware)

Listeners: 0 out of 2022 total

Milwaukee Ground: 121.800
Muskegon Ground: 121.600
Timmerman Ground: 121.700

KMKE Tower (Archives)
Milwaukee, Wisconsin, United States

Feed Status: UP
Listen in your browser - HTML5 player(in browser, HTML5)
Click here to listen with your own player(launches your MP3 player)

KMKE 171752Z 32013G19KT 10SM FEW049 SCT060 24/11 A2998 RMK AO2 SLP147 T02440106 10256 20206 51010

KMKE Airport Info (Airnav.com)

KMKE Flight Activity (Flightaware)

Listeners: 1 out of 2022 total

Milwaukee Tower: 124.575

KMLI App/Dep (Archives)
Moline, Illinois, United States

Feed Status: UP
Listen in your browser - HTML5 player(in browser, HTML5)
Click here to listen with your own player(launches your MP3 player)

KMLI 171752Z 30012G21KT 10SM CLR 28/14 A3004 RMK AO2 SLP169 T02780139 10278 20200 51009

KMLI Airport Info (Airnav.com)

KMLI Flight Activity (Flightaware)

Listeners: out of 2022 total

Quad City Approach/Departure (N/NE): 125.950
Quad City Approach/Departure (S/SE): 133.275

KMLI ATIS (Archives)
Moline, Illinois, United States

Feed Status: UP
Listen in your browser - HTML5 player(in browser, HTML5)
Click here to listen with your own player(launches your MP3 player)

KMLI 171752Z 30012G21KT 10SM CLR 28/14 A3004 RMK AO2 SLP169 T02780139 10278 20200 51009

KMLI Airport Info (Airnav.com)

KMLI Flight Activity (Flightaware)

Listeners: 0 out of 2022 total

Quad City ATIS: 121.200

KMLI Tower (Archives)
Moline, Illinois, United States

Feed Status: UP
Listen in your browser - HTML5 player(in browser, HTML5)
Click here to listen with your own player(launches your MP3 player)

KMLI 171752Z 30012G21KT 10SM CLR 28/14 A3004 RMK AO2 SLP169 T02780139 10278 20200 51009

KMLI Airport Info (Airnav.com)

KMLI Flight Activity (Flightaware)

Listeners: 0 out of 2022 total

Quad City Tower: 119.400

KMRY App/Dep (Archives)
Monterey, California, United States

Feed Status: UP
Listen in your browser - HTML5 player(in browser, HTML5)
Click here to listen with your own player(launches your MP3 player)

KMRY 171754Z 36005KT 10SM CLR 17/12 A3005 RMK AO2 SLP188 T01720117 10172 20117 58001

KMRY Airport Info (Airnav.com)

KMRY Flight Activity (Flightaware)

Listeners: 0 out of 2022 total

NORCAL Approach (Fremont Sector/Monterey West): 133.000
NORCAL Approach (Seca Sector/Monterey East): 127.150

KMRY ATIS (Archives)
Monterey, California, United States

Feed Status: UP
Listen in your browser - HTML5 player(in browser, HTML5)
Click here to listen with your own player(launches your MP3 player)

KMRY 171754Z 36005KT 10SM CLR 17/12 A3005 RMK AO2 SLP188 T01720117 10172 20117 58001

KMRY Airport Info (Airnav.com)

KMRY Flight Activity (Flightaware)

Listeners: 0 out of 2022 total

Monterey ATIS: 119.250

KMRY Del/Gnd/Twr (Archives)
Monterey, California, United States

Feed Status: UP
Listen in your browser - HTML5 player(in browser, HTML5)
Click here to listen with your own player(launches your MP3 player)

KMRY 171754Z 36005KT 10SM CLR 17/12 A3005 RMK AO2 SLP188 T01720117 10172 20117 58001

KMRY Airport Info (Airnav.com)

KMRY Flight Activity (Flightaware)

Listeners: 1 out of 2022 total

Monterey Clearance Delivery: 135.450
Monterey Ground: 120.875
Monterey Tower: 118.400

KMSN Approach/Departure (Archives)
Madison, Wisconsin, United States

Feed Status: UP
Listen in your browser - HTML5 player(in browser, HTML5)
Click here to listen with your own player(launches your MP3 player)

KMSN 171753Z 34009KT 300V360 10SM BKN047 24/12 A3004 RMK AO2 SLP167 T02390122 10239 20183 51010

KMSN Airport Info (Airnav.com)

KMSN Flight Activity (Flightaware)

Listeners: 1 out of 2022 total

Madison Approach/Departure: 120.100
Madison Approach/Departure: 135.450

KMSN ATIS (Archives)
Madison, Wisconsin, United States

Feed Status: UP
Listen in your browser - HTML5 player(in browser, HTML5)
Click here to listen with your own player(launches your MP3 player)

KMSN 171753Z 34009KT 300V360 10SM BKN047 24/12 A3004 RMK AO2 SLP167 T02390122 10239 20183 51010

KMSN Airport Info (Airnav.com)

KMSN Flight Activity (Flightaware)

Listeners: 0 out of 2022 total

Madison ATIS: 124.650

KMSN Clearance Delivery (Archives)
Madison, Wisconsin, United States

Feed Status: UP
Listen in your browser - HTML5 player(in browser, HTML5)
Click here to listen with your own player(launches your MP3 player)

KMSN 171753Z 34009KT 300V360 10SM BKN047 24/12 A3004 RMK AO2 SLP167 T02390122 10239 20183 51010

KMSN Airport Info (Airnav.com)

KMSN Flight Activity (Flightaware)

Listeners: 0 out of 2022 total

Madison Clearance Delivery: 121.625

KMSN Emergency/Guard (Archives)
Madison, Wisconsin, United States

Feed Status: UP
Listen in your browser - HTML5 player(in browser, HTML5)
Click here to listen with your own player(launches your MP3 player)

KMSN 171753Z 34009KT 300V360 10SM BKN047 24/12 A3004 RMK AO2 SLP167 T02390122 10239 20183 51010

KMSN Airport Info (Airnav.com)

KMSN Flight Activity (Flightaware)

Listeners: 0 out of 2022 total

Emergency/Guard: 121.500

KMSN Ground (Archives)
Madison, Wisconsin, United States

Feed Status: UP
Listen in your browser - HTML5 player(in browser, HTML5)
Click here to listen with your own player(launches your MP3 player)

KMSN 171753Z 34009KT 300V360 10SM BKN047 24/12 A3004 RMK AO2 SLP167 T02390122 10239 20183 51010

KMSN Airport Info (Airnav.com)

KMSN Flight Activity (Flightaware)

Listeners: 0 out of 2022 total

Madison Ground: 121.900

KMSN Tower (Archives)
Madison, Wisconsin, United States

Feed Status: UP
Listen in your browser - HTML5 player(in browser, HTML5)
Click here to listen with your own player(launches your MP3 player)

KMSN 171753Z 34009KT 300V360 10SM BKN047 24/12 A3004 RMK AO2 SLP167 T02390122 10239 20183 51010

KMSN Airport Info (Airnav.com)

KMSN Flight Activity (Flightaware)

Listeners: 1 out of 2022 total

Madison Tower: 119.300

KMSN Twr/App (Archives)
Madison, Wisconsin, United States

Feed Status: UP
Listen in your browser - HTML5 player(in browser, HTML5)
Click here to listen with your own player(launches your MP3 player)

KMSN 171753Z 34009KT 300V360 10SM BKN047 24/12 A3004 RMK AO2 SLP167 T02390122 10239 20183 51010

KMSN Airport Info (Airnav.com)

KMSN Flight Activity (Flightaware)

Listeners: 3 out of 2022 total

Emergency / GUARD: 121.500
Madison Approach (East): 120.100
Madison Approach (West): 135.450
Madison Tower: 119.300

KMYR Gnd/Twr/App (Archives)
Myrtle Beach, South Carolina, United States

Feed Status: UP
Listen in your browser - HTML5 player(in browser, HTML5)
Click here to listen with your own player(launches your MP3 player)

KMYR 171756Z 16014KT 10SM CLR 32/27 A3002 RMK AO2 SLP164 6//// T03170267 10317 20278 58003

KMYR Airport Info (Airnav.com)

KMYR Flight Activity (Flightaware)

Listeners: 6 out of 2022 total

Myrtle Beach Approach/Departure: 119.200
Myrtle Beach Approach/Departure: 127.400
Myrtle Beach ATIS (top of hour): 123.925
Myrtle Beach Ground: 120.300
Myrtle Beach Tower: 128.450

KMYR Gnd/Twr/App (UHF) (Archives)
Myrtle Beach, South Carolina, United States

Feed Status: UP
Listen in your browser - HTML5 player(in browser, HTML5)
Click here to listen with your own player(launches your MP3 player)

KMYR 171756Z 16014KT 10SM CLR 32/27 A3002 RMK AO2 SLP164 6//// T03170267 10317 20278 58003

KMYR Airport Info (Airnav.com)

KMYR Flight Activity (Flightaware)

Listeners: 2 out of 2022 total

Emergency/Guard: 243.000
Myrtle Beach Approach/Departure (171-321 degrees) : 257.950
Myrtle Beach Approach/Departure (322-170 degrees): 350.300
Myrtle Beach Ground: 275.800
Myrtle Beach Tower: 259.300
PMSV (Pilot-to-Meteorological Service): 239.800

KPNS App/Dep 120.65 (Archives)
Pensacola, Florida, United States

Feed Status: UP
Listen in your browser - HTML5 player(in browser, HTML5)
Click here to listen with your own player(launches your MP3 player)

KPNS 171753Z VRB05KT 10SM CLR 31/22 A3003 RMK AO2 LTG DSNT ALQDS SLP171 60012 T03110217 10322 20261 58007

KPNS Airport Info (Airnav.com)

KPNS Flight Activity (Flightaware)

Listeners: 1 out of 2022 total

Pensacola Approach/Departure: 120.650

KOAK Del/Gnd/Twr (Archives)
Oakland, California, United States

Feed Status: UP
Listen in your browser - HTML5 player(in browser, HTML5)
Click here to listen with your own player(launches your MP3 player)

KOAK 171753Z VRB04KT 10SM BKN010 17/13 A3007 RMK AO2 SLP183 T01670133 10167 20144 50004

KOAK Airport Info (Airnav.com)

KOAK Flight Activity (Flightaware)

Listeners: 3 out of 2022 total

Oakland Clearance Delivery: 121.100
Oakland Ground: 121.750
Oakland Ground (North): 121.900
Oakland Tower: 127.200
Oakland Tower (Runways 28L/10R, 28R/10L, 33/15): 118.300

NORCAL Approach (KOAK) (Archives)
Oakland, California, United States

Feed Status: UP
Listen in your browser - HTML5 player(in browser, HTML5)
Click here to listen with your own player(launches your MP3 player)

KOAK 171753Z VRB04KT 10SM BKN010 17/13 A3007 RMK AO2 SLP183 T01670133 10167 20144 50004

KOAK Airport Info (Airnav.com)

KOAK Flight Activity (Flightaware)

Listeners: 0 out of 2022 total

NORCAL Approach (KOAK Rwy 29/27R Final): 125.350
NORCAL Approach (Mulford Sector): 124.400

NORCAL Departure (KSFO/KOAK) (Archives)
Oakland, California, United States

Feed Status: UP
Listen in your browser - HTML5 player(in browser, HTML5)
Click here to listen with your own player(launches your MP3 player)

KOAK 171753Z VRB04KT 10SM BKN010 17/13 A3007 RMK AO2 SLP183 T01670133 10167 20144 50004

KOAK Airport Info (Airnav.com)

KOAK Flight Activity (Flightaware)

Listeners: 0 out of 2022 total

NORCAL Departure (Northeast Departures): 120.900
NORCAL Departure (Northeast Departures): 127.000
NORCAL Departure (Southwest Departures): 127.975
NORCAL Departure (Southwest Departures): 135.100

KOCF Gnd/Twr/App (Archives)
Ocala, Florida, United States

Feed Status: UP
Listen in your browser - HTML5 player(in browser, HTML5)
Click here to listen with your own player(launches your MP3 player)

KOCF 171751Z 30008G17KT 10SM VCTS BKN041 OVC080 32/23 A3009 RMK AO2 LTG DSNT SW-N TSB31 SLP189 T03170233 10333 20244 58009

KOCF Airport Info (Airnav.com)

KOCF Flight Activity (Flightaware)

Listeners: 0 out of 2022 total

Jacksonville Approach (OCF RCO): 118.600
Ocala Ground: 121.400
Ocala Tower: 119.250
UNICOM: 123.000

KODO/KMAF/KMDD Misc (Archives)
Odessa, Texas, United States

Feed Status: UP
Listen in your browser - HTML5 player(in browser, HTML5)
Click here to listen with your own player(launches your MP3 player)

KODO 171753Z AUTO 09006KT 10SM CLR 33/16 A3012 RMK AO2 SLP142 T03280161 10328 20250 56004

KODO Airport Info (Airnav.com)

KODO Flight Activity (Flightaware)

Listeners: 1 out of 2022 total

Midland Airpark CTAF: 122.700
Midland Approach: 124.600
Midland Tower: 118.700
Odessa CTAF: 123.000

KOFF Gnd/Twr/App/ZMP
Omaha, Nebraska, United States

Feed Status: DOWN
Offline since: 2023-05-28 23:50:22 UTC

KOFF 171755Z 06008KT 10SM FEW048 27/13 A3015 RMK AO2A SLP206 T02740133 10277 20205 50005 $

KOFF Airport Info (Airnav.com)

Emergency/Guard: 121.500
Minneapolis Center (Sector 27 Low): 119.600
Offutt AFB Ground: 121.700
Offutt AFB Tower: 123.700
Omaha Approach/Departure (East): 124.500
Omaha Approach/Departure (West): 120.100

KOKC App/Dep (NE) (Archives)
Oklahoma City, Oklahoma, United States

Feed Status: UP
Listen in your browser - HTML5 player(in browser, HTML5)
Click here to listen with your own player(launches your MP3 player)

KOKC 171822Z 33008KT 10SM SCT012 BKN026 BKN041 25/22 A3009 RMK AO2 RAE14 P0002 T02500222

KOKC Airport Info (Airnav.com)

KOKC Flight Activity (Flightaware)

Listeners: 1 out of 2022 total

Oke City Approach/Departure: 124.200

KOKC App/Dep (SW) (Archives)
Oklahoma City, Oklahoma, United States

Feed Status: UP
Listen in your browser - HTML5 player(in browser, HTML5)
Click here to listen with your own player(launches your MP3 player)

KOKC 171822Z 33008KT 10SM SCT012 BKN026 BKN041 25/22 A3009 RMK AO2 RAE14 P0002 T02500222

KOKC Airport Info (Airnav.com)

KOKC Flight Activity (Flightaware)

Listeners: 0 out of 2022 total

Oke City Approach/Departure: 124.600

KOKC ATIS (Archives)
Oklahoma City, Oklahoma, United States

Feed Status: UP
Listen in your browser - HTML5 player(in browser, HTML5)
Click here to listen with your own player(launches your MP3 player)

KOKC 171822Z 33008KT 10SM SCT012 BKN026 BKN041 25/22 A3009 RMK AO2 RAE14 P0002 T02500222

KOKC Airport Info (Airnav.com)

KOKC Flight Activity (Flightaware)

Listeners: 1 out of 2022 total

Rogers ATIS: 125.850

KOKC Clearance Delivery (Archives)
Oklahoma City, Oklahoma, United States

Feed Status: UP
Listen in your browser - HTML5 player(in browser, HTML5)
Click here to listen with your own player(launches your MP3 player)

KOKC 171822Z 33008KT 10SM SCT012 BKN026 BKN041 25/22 A3009 RMK AO2 RAE14 P0002 T02500222

KOKC Airport Info (Airnav.com)

KOKC Flight Activity (Flightaware)

Listeners: 0 out of 2022 total

Rogers Clearance Delivery: 124.350

KOKC Emergency/Guard (Archives)
Oklahoma City, Oklahoma, United States

Feed Status: UP
Listen in your browser - HTML5 player(in browser, HTML5)
Click here to listen with your own player(launches your MP3 player)

KOKC 171822Z 33008KT 10SM SCT012 BKN026 BKN041 25/22 A3009 RMK AO2 RAE14 P0002 T02500222

KOKC Airport Info (Airnav.com)

KOKC Flight Activity (Flightaware)

Listeners: 0 out of 2022 total

Emergency/Guard: 121.500

KOKC Ground (Archives)
Oklahoma City, Oklahoma, United States

Feed Status: UP
Listen in your browser - HTML5 player(in browser, HTML5)
Click here to listen with your own player(launches your MP3 player)

KOKC 171822Z 33008KT 10SM SCT012 BKN026 BKN041 25/22 A3009 RMK AO2 RAE14 P0002 T02500222

KOKC Airport Info (Airnav.com)

KOKC Flight Activity (Flightaware)

Listeners: 0 out of 2022 total

Rogers Ground: 121.900

KOKC Tower (Archives)
Oklahoma City, Oklahoma, United States

Feed Status: UP
Listen in your browser - HTML5 player(in browser, HTML5)
Click here to listen with your own player(launches your MP3 player)

KOKC 171822Z 33008KT 10SM SCT012 BKN026 BKN041 25/22 A3009 RMK AO2 RAE14 P0002 T02500222

KOKC Airport Info (Airnav.com)

KOKC Flight Activity (Flightaware)

Listeners: 0 out of 2022 total

Rogers Tower: 119.350
Rogers Tower: 120.250
Rogers Tower (UHF): 269.450

KONT Del/Gnd/Twr/App #1 (Archives)
Ontario, California, United States

Feed Status: UP
Listen in your browser - HTML5 player(in browser, HTML5)
Click here to listen with your own player(launches your MP3 player)

KONT 171753Z 16003KT 10SM FEW110 BKN170 26/12 A2999 RMK AO2 SLP142 T02560117 10256 20189 56003

KONT Airport Info (Airnav.com)

KONT Flight Activity (Flightaware)

Listeners: 1 out of 2022 total

Ontario Clearance Delivery: 118.100
Ontario Ground: 121.900
Ontario Tower: 120.600
SOCAL Approach/Departure (N-NE): 127.000
SOCAL Approach/Departure (NE-S): 134.000
SOCAL Approach/Departure (S-SW): 135.400
SOCAL Approach/Departure (SW-N): 125.500

KONT Delivery (Archives)
Ontario, California, United States

Feed Status: UP
Listen in your browser - HTML5 player(in browser, HTML5)
Click here to listen with your own player(launches your MP3 player)

KONT 171753Z 16003KT 10SM FEW110 BKN170 26/12 A2999 RMK AO2 SLP142 T02560117 10256 20189 56003

KONT Airport Info (Airnav.com)

KONT Flight Activity (Flightaware)

Listeners: 1 out of 2022 total

Ontario Clearance Delivery: 118.100

KONT Ground (Archives)
Ontario, California, United States

Feed Status: UP
Listen in your browser - HTML5 player(in browser, HTML5)
Click here to listen with your own player(launches your MP3 player)

KONT 171753Z 16003KT 10SM FEW110 BKN170 26/12 A2999 RMK AO2 SLP142 T02560117 10256 20189 56003

KONT Airport Info (Airnav.com)

KONT Flight Activity (Flightaware)

Listeners: 1 out of 2022 total

Ontario Ground: 121.900

KONT Tower (Archives)
Ontario, California, United States

Feed Status: UP
Listen in your browser - HTML5 player(in browser, HTML5)
Click here to listen with your own player(launches your MP3 player)

KONT 171753Z 16003KT 10SM FEW110 BKN170 26/12 A2999 RMK AO2 SLP142 T02560117 10256 20189 56003

KONT Airport Info (Airnav.com)

KONT Flight Activity (Flightaware)

Listeners: 2 out of 2022 total

Ontario Tower: 120.600

SOCAL App/Dep (KONT NE) (Archives)
Ontario, California, United States

Feed Status: UP
Listen in your browser - HTML5 player(in browser, HTML5)
Click here to listen with your own player(launches your MP3 player)

KONT 171753Z 16003KT 10SM FEW110 BKN170 26/12 A2999 RMK AO2 SLP142 T02560117 10256 20189 56003

KONT Airport Info (Airnav.com)

KONT Flight Activity (Flightaware)

Listeners: 0 out of 2022 total

SOCAL Approach/Departure (N-NE): 127.000

SOCAL App/Dep (KONT NW) (Archives)
Ontario, California, United States

Feed Status: UP
Listen in your browser - HTML5 player(in browser, HTML5)
Click here to listen with your own player(launches your MP3 player)

KONT 171753Z 16003KT 10SM FEW110 BKN170 26/12 A2999 RMK AO2 SLP142 T02560117 10256 20189 56003

KONT Airport Info (Airnav.com)

KONT Flight Activity (Flightaware)

Listeners: 0 out of 2022 total

SOCAL Approach/Departure (SW-N): 125.500

SOCAL App/Dep (KONT SE) (Archives)
Ontario, California, United States

Feed Status: UP
Listen in your browser - HTML5 player(in browser, HTML5)
Click here to listen with your own player(launches your MP3 player)

KONT 171753Z 16003KT 10SM FEW110 BKN170 26/12 A2999 RMK AO2 SLP142 T02560117 10256 20189 56003

KONT Airport Info (Airnav.com)

KONT Flight Activity (Flightaware)

Listeners: 0 out of 2022 total

SOCAL Approach/Departure (NE-S): 134.000

SOCAL App/Dep (KONT SW) (Archives)
Ontario, California, United States

Feed Status: UP
Listen in your browser - HTML5 player(in browser, HTML5)
Click here to listen with your own player(launches your MP3 player)

KONT 171753Z 16003KT 10SM FEW110 BKN170 26/12 A2999 RMK AO2 SLP142 T02560117 10256 20189 56003

KONT Airport Info (Airnav.com)

KONT Flight Activity (Flightaware)

Listeners: 0 out of 2022 total

SOCAL Approach/Departure (S-SW): 135.400

KORF ATIS (Archives)
Norfolk, Virginia, United States

Feed Status: UP
Listen in your browser - HTML5 player(in browser, HTML5)
Click here to listen with your own player(launches your MP3 player)

KORF 171751Z 22013G21KT 10SM CLR 34/24 A2990 RMK AO2 SLP124 T03390239 10344 20278 58013

KORF Airport Info (Airnav.com)

KORF Flight Activity (Flightaware)

Listeners: 0 out of 2022 total

Norfolk ATIS: 127.150

KORF Gnd/Twr/App/Radar (Archives)
Norfolk, Virginia, United States

Feed Status: UP
Listen in your browser - HTML5 player(in browser, HTML5)
Click here to listen with your own player(launches your MP3 player)

KORF 171751Z 22013G21KT 10SM CLR 34/24 A2990 RMK AO2 SLP124 T03390239 10344 20278 58013

KORF Airport Info (Airnav.com)

KORF Flight Activity (Flightaware)

Listeners: 0 out of 2022 total

Norfolk Approach: 353.700
Norfolk Approach: 335.625
Norfolk Approach (West Feder): 119.450
Norfolk Approach/Departure: 125.200
Norfolk Approach/Departure: 126.050
Norfolk Approach/Departure: 127.900
Norfolk Approach/Departure (Discrete): 128.050
Norfolk Approach/Departure (East): 370.925
Norfolk Approach/Departure (West): 360.600
Norfolk Arrival: 118.900
Norfolk Clearance Delivery: 118.500
Norfolk Departure: 379.100
Norfolk Departure: 363.125
Norfolk Ground: 121.900
Norfolk Ground (alternate): 123.950
Norfolk Radar: 266.800
Norfolk Radar: 119.600
Norfolk Radar: 124.825
Norfolk Radar: 288.300
Norfolk Tower: 120.800
Norfolk Tower: 257.800

KORF Ground #1 (Archives)
Norfolk, Virginia, United States

Feed Status: UP
Listen in your browser - HTML5 player(in browser, HTML5)
Click here to listen with your own player(launches your MP3 player)

KORF 171751Z 22013G21KT 10SM CLR 34/24 A2990 RMK AO2 SLP124 T03390239 10344 20278 58013

KORF Airport Info (Airnav.com)

KORF Flight Activity (Flightaware)

Listeners: 0 out of 2022 total

Norfolk Ground: 121.900

KORF Ground #2 (Archives)
Norfolk, Virginia, United States

Feed Status: UP
Listen in your browser - HTML5 player(in browser, HTML5)
Click here to listen with your own player(launches your MP3 player)

KORF 171751Z 22013G21KT 10SM CLR 34/24 A2990 RMK AO2 SLP124 T03390239 10344 20278 58013

KORF Airport Info (Airnav.com)

KORF Flight Activity (Flightaware)

Listeners: 0 out of 2022 total

Norfolk Ground: 121.900

KORF Tower #1 (Archives)
Norfolk, Virginia, United States

Feed Status: UP
Listen in your browser - HTML5 player(in browser, HTML5)
Click here to listen with your own player(launches your MP3 player)

KORF 171751Z 22013G21KT 10SM CLR 34/24 A2990 RMK AO2 SLP124 T03390239 10344 20278 58013

KORF Airport Info (Airnav.com)

KORF Flight Activity (Flightaware)

Listeners: 1 out of 2022 total

Norfolk Tower: 120.800

KORF Tower #2 (Archives)
Norfolk, Virginia, United States

Feed Status: UP
Listen in your browser - HTML5 player(in browser, HTML5)
Click here to listen with your own player(launches your MP3 player)

KORF 171751Z 22013G21KT 10SM CLR 34/24 A2990 RMK AO2 SLP124 T03390239 10344 20278 58013

KORF Airport Info (Airnav.com)

KORF Flight Activity (Flightaware)

Listeners: 0 out of 2022 total

Norfolk Tower: 120.800

Norfolk Approach (Arrival) #1 (Archives)
Norfolk, Virginia, United States

Feed Status: UP
Listen in your browser - HTML5 player(in browser, HTML5)
Click here to listen with your own player(launches your MP3 player)

KORF 171751Z 22013G21KT 10SM CLR 34/24 A2990 RMK AO2 SLP124 T03390239 10344 20278 58013

KORF Airport Info (Airnav.com)

KORF Flight Activity (Flightaware)

Listeners: 1 out of 2022 total

Norfolk Arrival: 118.900

Norfolk Approach (Arrival) #2 (Archives)
Norfolk, Virginia, United States

Feed Status: UP
Listen in your browser - HTML5 player(in browser, HTML5)
Click here to listen with your own player(launches your MP3 player)

KORF 171751Z 22013G21KT 10SM CLR 34/24 A2990 RMK AO2 SLP124 T03390239 10344 20278 58013

KORF Airport Info (Airnav.com)

KORF Flight Activity (Flightaware)

Listeners: 0 out of 2022 total

Norfolk Arrival: 118.900

Norfolk Approach (East Feeder) (Archives)
Norfolk, Virginia, United States

Feed Status: UP
Listen in your browser - HTML5 player(in browser, HTML5)
Click here to listen with your own player(launches your MP3 player)

KORF 171751Z 22013G21KT 10SM CLR 34/24 A2990 RMK AO2 SLP124 T03390239 10344 20278 58013

KORF Airport Info (Airnav.com)

KORF Flight Activity (Flightaware)

Listeners: 0 out of 2022 total

Norfolk Approach/Departure: 126.050

Norfolk Approach (West Feeder) (Archives)
Norfolk, Virginia, United States

Feed Status: UP
Listen in your browser - HTML5 player(in browser, HTML5)
Click here to listen with your own player(launches your MP3 player)

KORF 171751Z 22013G21KT 10SM CLR 34/24 A2990 RMK AO2 SLP124 T03390239 10344 20278 58013

KORF Airport Info (Airnav.com)

KORF Flight Activity (Flightaware)

Listeners: 0 out of 2022 total

Norfolk Approach (West Feeder): 119.450

Norfolk Departure #1 (Archives)
Norfolk, Virginia, United States

Feed Status: UP
Listen in your browser - HTML5 player(in browser, HTML5)
Click here to listen with your own player(launches your MP3 player)

KORF 171751Z 22013G21KT 10SM CLR 34/24 A2990 RMK AO2 SLP124 T03390239 10344 20278 58013

KORF Airport Info (Airnav.com)

KORF Flight Activity (Flightaware)

Listeners: 0 out of 2022 total

Norfolk Approach/Departure: 125.200

Norfolk Departure #2 (Archives)
Norfolk, Virginia, United States

Feed Status: UP
Listen in your browser - HTML5 player(in browser, HTML5)
Click here to listen with your own player(launches your MP3 player)

KORF 171751Z 22013G21KT 10SM CLR 34/24 A2990 RMK AO2 SLP124 T03390239 10344 20278 58013

KORF Airport Info (Airnav.com)

KORF Flight Activity (Flightaware)

Listeners: 0 out of 2022 total

Norfolk Approach/Departure: 125.200

KCMH App/Dep (125.95) (Archives)
Columbus, Ohio, United States

Feed Status: UP
Listen in your browser - HTML5 player(in browser, HTML5)
Click here to listen with your own player(launches your MP3 player)

KCMH 171751Z VRB04KT 10SM FEW015 SCT023 BKN055 26/21 A2989 RMK AO2 LTG DSNT NE RAB10E40 SLP113 P0039 60039 T02610211 10306 20233 58004

KCMH Airport Info (Airnav.com)

KCMH Flight Activity (Flightaware)

Listeners: 3 out of 2022 total

Columbus Approach/Departure (North): 125.950

KPBI App (Final) (Archives)
West Palm Beach, Florida, United States

Feed Status: UP
Listen in your browser - HTML5 player(in browser, HTML5)
Click here to listen with your own player(launches your MP3 player)

KPBI 171753Z 12012KT 10SM SCT030 BKN250 33/24 A3009 RMK AO2 SLP187 T03280239 10333 20294 56007

KPBI Airport Info (Airnav.com)

KPBI Flight Activity (Flightaware)

Listeners: 0 out of 2022 total

Palm Beach Approach (PBI Final): 125.000

KPBI App (North) (Archives)
West Palm Beach, Florida, United States

Feed Status: UP
Listen in your browser - HTML5 player(in browser, HTML5)
Click here to listen with your own player(launches your MP3 player)

KPBI 171753Z 12012KT 10SM SCT030 BKN250 33/24 A3009 RMK AO2 SLP187 T03280239 10333 20294 56007

KPBI Airport Info (Airnav.com)

KPBI Flight Activity (Flightaware)

Listeners: 0 out of 2022 total

Palm Beach Approach (North): 124.600

KPBI App (North/South) (Archives)
West Palm Beach, Florida, United States

Feed Status: UP
Listen in your browser - HTML5 player(in browser, HTML5)
Click here to listen with your own player(launches your MP3 player)

KPBI 171753Z 12012KT 10SM SCT030 BKN250 33/24 A3009 RMK AO2 SLP187 T03280239 10333 20294 56007

KPBI Airport Info (Airnav.com)

KPBI Flight Activity (Flightaware)

Listeners: 0 out of 2022 total

Palm Beach Approach (North): 124.600
Palm Beach Approach (South): 125.200

KPBI App (South) (Archives)
West Palm Beach, Florida, United States

Feed Status: UP
Listen in your browser - HTML5 player(in browser, HTML5)
Click here to listen with your own player(launches your MP3 player)

KPBI 171753Z 12012KT 10SM SCT030 BKN250 33/24 A3009 RMK AO2 SLP187 T03280239 10333 20294 56007

KPBI Airport Info (Airnav.com)

KPBI Flight Activity (Flightaware)

Listeners: 0 out of 2022 total

Palm Beach Approach (South): 125.200

KPBI ATIS (Archives)
West Palm Beach, Florida, United States

Feed Status: UP
Listen in your browser - HTML5 player(in browser, HTML5)
Click here to listen with your own player(launches your MP3 player)

KPBI 171753Z 12012KT 10SM SCT030 BKN250 33/24 A3009 RMK AO2 SLP187 T03280239 10333 20294 56007

KPBI Airport Info (Airnav.com)

KPBI Flight Activity (Flightaware)

Listeners: 0 out of 2022 total

West Palm Beach ATIS: 123.750

KPBI Clearance Delivery (Archives)
West Palm Beach, Florida, United States

Feed Status: UP
Listen in your browser - HTML5 player(in browser, HTML5)
Click here to listen with your own player(launches your MP3 player)

KPBI 171753Z 12012KT 10SM SCT030 BKN250 33/24 A3009 RMK AO2 SLP187 T03280239 10333 20294 56007

KPBI Airport Info (Airnav.com)

KPBI Flight Activity (Flightaware)

Listeners: 0 out of 2022 total

Palm Beach Clearance Delivery: 121.600

KPBI Dep (North) (Archives)
West Palm Beach, Florida, United States

Feed Status: UP
Listen in your browser - HTML5 player(in browser, HTML5)
Click here to listen with your own player(launches your MP3 player)

KPBI 171753Z 12012KT 10SM SCT030 BKN250 33/24 A3009 RMK AO2 SLP187 T03280239 10333 20294 56007

KPBI Airport Info (Airnav.com)

KPBI Flight Activity (Flightaware)

Listeners: 0 out of 2022 total

Palm Beach Departure (North): 128.300

KPBI Dep (North/South) (Archives)
West Palm Beach, Florida, United States

Feed Status: UP
Listen in your browser - HTML5 player(in browser, HTML5)
Click here to listen with your own player(launches your MP3 player)

KPBI 171753Z 12012KT 10SM SCT030 BKN250 33/24 A3009 RMK AO2 SLP187 T03280239 10333 20294 56007

KPBI Airport Info (Airnav.com)

KPBI Flight Activity (Flightaware)

Listeners: 0 out of 2022 total

Palm Beach Departure (North): 128.300
Palm Beach Departure (South): 127.350

KPBI Dep (South) (Archives)
West Palm Beach, Florida, United States

Feed Status: UP
Listen in your browser - HTML5 player(in browser, HTML5)
Click here to listen with your own player(launches your MP3 player)

KPBI 171753Z 12012KT 10SM SCT030 BKN250 33/24 A3009 RMK AO2 SLP187 T03280239 10333 20294 56007

KPBI Airport Info (Airnav.com)

KPBI Flight Activity (Flightaware)

Listeners: 0 out of 2022 total

Palm Beach Departure (South): 127.350

KPBI Emergency/Guard (Archives)
West Palm Beach, Florida, United States

Feed Status: UP
Listen in your browser - HTML5 player(in browser, HTML5)
Click here to listen with your own player(launches your MP3 player)

KPBI 171753Z 12012KT 10SM SCT030 BKN250 33/24 A3009 RMK AO2 SLP187 T03280239 10333 20294 56007

KPBI Airport Info (Airnav.com)

KPBI Flight Activity (Flightaware)

Listeners: 0 out of 2022 total

Emergency/Guard: 121.500

KPBI GA Gate Hold (Archives)
West Palm Beach, Florida, United States

Feed Status: UP
Listen in your browser - HTML5 player(in browser, HTML5)
Click here to listen with your own player(launches your MP3 player)

KPBI 171753Z 12012KT 10SM SCT030 BKN250 33/24 A3009 RMK AO2 SLP187 T03280239 10333 20294 56007

KPBI Airport Info (Airnav.com)

KPBI Flight Activity (Flightaware)

Listeners: 0 out of 2022 total

KPBI Gate Hold (General Aviation): 118.750

KPBI Gnd/Twr (Archives)
West Palm Beach, Florida, United States

Feed Status: UP
Listen in your browser - HTML5 player(in browser, HTML5)
Click here to listen with your own player(launches your MP3 player)

KPBI 171753Z 12012KT 10SM SCT030 BKN250 33/24 A3009 RMK AO2 SLP187 T03280239 10333 20294 56007

KPBI Airport Info (Airnav.com)

KPBI Flight Activity (Flightaware)

Listeners: 0 out of 2022 total

Palm Beach Ground: 121.900
Palm Beach Tower: 119.100

KPBI Ground (Archives)
West Palm Beach, Florida, United States

Feed Status: UP
Listen in your browser - HTML5 player(in browser, HTML5)
Click here to listen with your own player(launches your MP3 player)

KPBI 171753Z 12012KT 10SM SCT030 BKN250 33/24 A3009 RMK AO2 SLP187 T03280239 10333 20294 56007

KPBI Airport Info (Airnav.com)

KPBI Flight Activity (Flightaware)

Listeners: 0 out of 2022 total

Palm Beach Ground: 121.900

KPBI Tower (Archives)
West Palm Beach, Florida, United States

Feed Status: UP
Listen in your browser - HTML5 player(in browser, HTML5)
Click here to listen with your own player(launches your MP3 player)

KPBI 171753Z 12012KT 10SM SCT030 BKN250 33/24 A3009 RMK AO2 SLP187 T03280239 10333 20294 56007

KPBI Airport Info (Airnav.com)

KPBI Flight Activity (Flightaware)

Listeners: 1 out of 2022 total

Palm Beach Tower: 119.100

KPDX App/Dep (North) (Archives)
Portland, Oregon, United States

Feed Status: UP
Listen in your browser - HTML5 player(in browser, HTML5)
Click here to listen with your own player(launches your MP3 player)

KPDX 171753Z VRB05KT 10SM FEW150 SCT250 22/12 A3001 RMK AO2 SLP160 ACC NE-SE T02220117 10222 20178 53002

KPDX Airport Info (Airnav.com)

KPDX Flight Activity (Flightaware)

Listeners: 2 out of 2022 total

Portland Approach (280-099 deg): 124.350

KPDX Approach (Final) #1
Portland, Oregon, United States

Feed Status: DOWN
Offline since: 2024-07-17 18:40:05 UTC

KPDX 171753Z VRB05KT 10SM FEW150 SCT250 22/12 A3001 RMK AO2 SLP160 ACC NE-SE T02220117 10222 20178 53002

KPDX Airport Info (Airnav.com)

Portland Approach (Final): 126.900

KPDX Approach (Final) #2 (Archives)
Portland, Oregon, United States

Feed Status: UP
Listen in your browser - HTML5 player(in browser, HTML5)
Click here to listen with your own player(launches your MP3 player)

KPDX 171753Z VRB05KT 10SM FEW150 SCT250 22/12 A3001 RMK AO2 SLP160 ACC NE-SE T02220117 10222 20178 53002

KPDX Airport Info (Airnav.com)

KPDX Flight Activity (Flightaware)

Listeners: 0 out of 2022 total

Portland Approach (Final): 126.900

KPDX ATIS (Archives)
Portland, Oregon, United States

Feed Status: UP
Listen in your browser - HTML5 player(in browser, HTML5)
Click here to listen with your own player(launches your MP3 player)

KPDX 171753Z VRB05KT 10SM FEW150 SCT250 22/12 A3001 RMK AO2 SLP160 ACC NE-SE T02220117 10222 20178 53002

KPDX Airport Info (Airnav.com)

KPDX Flight Activity (Flightaware)

Listeners: 0 out of 2022 total

Portland ATIS: 128.350

KPDX Clearance Delivery (Archives)
Portland, Oregon, United States

Feed Status: UP
Listen in your browser - HTML5 player(in browser, HTML5)
Click here to listen with your own player(launches your MP3 player)

KPDX 171753Z VRB05KT 10SM FEW150 SCT250 22/12 A3001 RMK AO2 SLP160 ACC NE-SE T02220117 10222 20178 53002

KPDX Airport Info (Airnav.com)

KPDX Flight Activity (Flightaware)

Listeners: 0 out of 2022 total

Portland Clearance Delivery: 120.125

KPDX Del/Gnd (Archives)
Portland, Oregon, United States

Feed Status: UP
Listen in your browser - HTML5 player(in browser, HTML5)
Click here to listen with your own player(launches your MP3 player)

KPDX 171753Z VRB05KT 10SM FEW150 SCT250 22/12 A3001 RMK AO2 SLP160 ACC NE-SE T02220117 10222 20178 53002

KPDX Airport Info (Airnav.com)

KPDX Flight Activity (Flightaware)

Listeners: 0 out of 2022 total

Portland Clearance Delivery: 120.125
Portland Ground: 121.900

KPDX Ground (Archives)
Portland, Oregon, United States

Feed Status: UP
Listen in your browser - HTML5 player(in browser, HTML5)
Click here to listen with your own player(launches your MP3 player)

KPDX 171753Z VRB05KT 10SM FEW150 SCT250 22/12 A3001 RMK AO2 SLP160 ACC NE-SE T02220117 10222 20178 53002

KPDX Airport Info (Airnav.com)

KPDX Flight Activity (Flightaware)

Listeners: 0 out of 2022 total

Portland Ground: 121.900

KPDX Tower (Both) (Archives)
Portland, Oregon, United States

Feed Status: UP
Listen in your browser - HTML5 player(in browser, HTML5)
Click here to listen with your own player(launches your MP3 player)

KPDX 171753Z VRB05KT 10SM FEW150 SCT250 22/12 A3001 RMK AO2 SLP160 ACC NE-SE T02220117 10222 20178 53002

KPDX Airport Info (Airnav.com)

KPDX Flight Activity (Flightaware)

Listeners: 1 out of 2022 total

Portland Tower: 126.350
Portland Tower: 123.775
Portland Tower: 118.700

KPDX Tower (Primary) (Archives)
Portland, Oregon, United States

Feed Status: UP
Listen in your browser - HTML5 player(in browser, HTML5)
Click here to listen with your own player(launches your MP3 player)

KPDX 171753Z VRB05KT 10SM FEW150 SCT250 22/12 A3001 RMK AO2 SLP160 ACC NE-SE T02220117 10222 20178 53002

KPDX Airport Info (Airnav.com)

KPDX Flight Activity (Flightaware)

Listeners: 1 out of 2022 total

Portland Tower: 123.775

KPDX Tower (Rwy 10L/28R 118.7) (Archives)
Portland, Oregon, United States

Feed Status: UP
Listen in your browser - HTML5 player(in browser, HTML5)
Click here to listen with your own player(launches your MP3 player)

KPDX 171753Z VRB05KT 10SM FEW150 SCT250 22/12 A3001 RMK AO2 SLP160 ACC NE-SE T02220117 10222 20178 53002

KPDX Airport Info (Airnav.com)

KPDX Flight Activity (Flightaware)

Listeners: 0 out of 2022 total

Portland Tower: 118.700

KPDX Tower (Rwy 10L/28R 126.35) (Archives)
Portland, Oregon, United States

Feed Status: UP
Listen in your browser - HTML5 player(in browser, HTML5)
Click here to listen with your own player(launches your MP3 player)

KPDX 171753Z VRB05KT 10SM FEW150 SCT250 22/12 A3001 RMK AO2 SLP160 ACC NE-SE T02220117 10222 20178 53002

KPDX Airport Info (Airnav.com)

KPDX Flight Activity (Flightaware)

Listeners: 0 out of 2022 total

Portland Tower: 126.350

KPNS App/Dep 118.6 (Archives)
Pensacola, Florida, United States

Feed Status: UP
Listen in your browser - HTML5 player(in browser, HTML5)
Click here to listen with your own player(launches your MP3 player)

KPNS 171753Z VRB05KT 10SM CLR 31/22 A3003 RMK AO2 LTG DSNT ALQDS SLP171 60012 T03110217 10322 20261 58007

KPNS Airport Info (Airnav.com)

KPNS Flight Activity (Flightaware)

Listeners: 0 out of 2022 total

Pensacola Approach/Departure: 118.600

KPNS App/Dep 119.0 (Archives)
Pensacola, Florida, United States

Feed Status: UP
Listen in your browser - HTML5 player(in browser, HTML5)
Click here to listen with your own player(launches your MP3 player)

KPNS 171753Z VRB05KT 10SM CLR 31/22 A3003 RMK AO2 LTG DSNT ALQDS SLP171 60012 T03110217 10322 20261 58007

KPNS Airport Info (Airnav.com)

KPNS Flight Activity (Flightaware)

Listeners: 0 out of 2022 total

Pensacola Approach/Departure: 119.000

KPNS App/Dep 120.65 (Archives)
Pensacola, Florida, United States

Feed Status: UP
Listen in your browser - HTML5 player(in browser, HTML5)
Click here to listen with your own player(launches your MP3 player)

KPNS 171753Z VRB05KT 10SM CLR 31/22 A3003 RMK AO2 LTG DSNT ALQDS SLP171 60012 T03110217 10322 20261 58007

KPNS Airport Info (Airnav.com)

KPNS Flight Activity (Flightaware)

Listeners: 1 out of 2022 total

Pensacola Approach/Departure: 120.650

KPNS App/Dep 125.35 (Archives)
Pensacola, Florida, United States

Feed Status: UP
Listen in your browser - HTML5 player(in browser, HTML5)
Click here to listen with your own player(launches your MP3 player)

KPNS 171753Z VRB05KT 10SM CLR 31/22 A3003 RMK AO2 LTG DSNT ALQDS SLP171 60012 T03110217 10322 20261 58007

KPNS Airport Info (Airnav.com)

KPNS Flight Activity (Flightaware)

Listeners: 0 out of 2022 total

Pensacola Approach/Departure: 125.350

KPNS App/Dep 127.35/278.8 (Archives)
Pensacola, Florida, United States

Feed Status: UP
Listen in your browser - HTML5 player(in browser, HTML5)
Click here to listen with your own player(launches your MP3 player)

KPNS 171753Z VRB05KT 10SM CLR 31/22 A3003 RMK AO2 LTG DSNT ALQDS SLP171 60012 T03110217 10322 20261 58007

KPNS Airport Info (Airnav.com)

KPNS Flight Activity (Flightaware)

Listeners: 0 out of 2022 total

Pensacola Approach/Departure: 127.350
Pensacola Approach/Departure: 278.700
Pensacola Approach/Departure: 353.600

KPNS ATIS (Archives)
Pensacola, Florida, United States

Feed Status: UP
Listen in your browser - HTML5 player(in browser, HTML5)
Click here to listen with your own player(launches your MP3 player)

KPNS 171753Z VRB05KT 10SM CLR 31/22 A3003 RMK AO2 LTG DSNT ALQDS SLP171 60012 T03110217 10322 20261 58007

KPNS Airport Info (Airnav.com)

KPNS Flight Activity (Flightaware)

Listeners: 0 out of 2022 total

Pensacola ATIS: 121.250

KPNS Clearance Delivery (Archives)
Pensacola, Florida, United States

Feed Status: UP
Listen in your browser - HTML5 player(in browser, HTML5)
Click here to listen with your own player(launches your MP3 player)

KPNS 171753Z VRB05KT 10SM CLR 31/22 A3003 RMK AO2 LTG DSNT ALQDS SLP171 60012 T03110217 10322 20261 58007

KPNS Airport Info (Airnav.com)

KPNS Flight Activity (Flightaware)

Listeners: 0 out of 2022 total

Pensacola Clearance Delivery: 123.725

KPNS Del/Gnd/Twr (Archives)
Pensacola, Florida, United States

Feed Status: UP
Listen in your browser - HTML5 player(in browser, HTML5)
Click here to listen with your own player(launches your MP3 player)

KPNS 171753Z VRB05KT 10SM CLR 31/22 A3003 RMK AO2 LTG DSNT ALQDS SLP171 60012 T03110217 10322 20261 58007

KPNS Airport Info (Airnav.com)

KPNS Flight Activity (Flightaware)

Listeners: 0 out of 2022 total

Pensacola Clearance Delivery: 123.725
Pensacola Clearance Delivery: 256.875
Pensacola Ground: 121.900
Pensacola Ground: 348.600
Pensacola Tower: 119.900
Pensacola Tower: 257.800

KPNS Ground (Archives)
Pensacola, Florida, United States

Feed Status: UP
Listen in your browser - HTML5 player(in browser, HTML5)
Click here to listen with your own player(launches your MP3 player)

KPNS 171753Z VRB05KT 10SM CLR 31/22 A3003 RMK AO2 LTG DSNT ALQDS SLP171 60012 T03110217 10322 20261 58007

KPNS Airport Info (Airnav.com)

KPNS Flight Activity (Flightaware)

Listeners: 0 out of 2022 total

Pensacola Ground: 121.900

KPNS Tower #2 (Archives)
Pensacola, Florida, United States

Feed Status: UP
Listen in your browser - HTML5 player(in browser, HTML5)
Click here to listen with your own player(launches your MP3 player)

KPNS 171753Z VRB05KT 10SM CLR 31/22 A3003 RMK AO2 LTG DSNT ALQDS SLP171 60012 T03110217 10322 20261 58007

KPNS Airport Info (Airnav.com)

KPNS Flight Activity (Flightaware)

Listeners: 0 out of 2022 total

Pensacola Tower: 119.900

KPNS Tower #3 (Archives)
Pensacola, Florida, United States

Feed Status: UP
Listen in your browser - HTML5 player(in browser, HTML5)
Click here to listen with your own player(launches your MP3 player)

KPNS 171753Z VRB05KT 10SM CLR 31/22 A3003 RMK AO2 LTG DSNT ALQDS SLP171 60012 T03110217 10322 20261 58007

KPNS Airport Info (Airnav.com)

KPNS Flight Activity (Flightaware)

Listeners: 0 out of 2022 total

Pensacola Tower: 119.900

KPVD App/Dep (Archives)
Providence, Rhode Island, United States

Feed Status: UP
Listen in your browser - HTML5 player(in browser, HTML5)
Click here to listen with your own player(launches your MP3 player)

KPVD 171751Z 15011KT 10SM FEW025 FEW110 SCT140 SCT300 29/23 A2984 RMK AO2 SLP102 T02890233 10294 20261 58018

KPVD Airport Info (Airnav.com)

KPVD Flight Activity (Flightaware)

Listeners: 2 out of 2022 total

Providence Approach: 127.900
Providence Approach: 125.750
Providence Approach/Departure (RHODY Sector): 123.675

KPVD ATIS (Archives)
Providence, Rhode Island, United States

Feed Status: UP
Listen in your browser - HTML5 player(in browser, HTML5)
Click here to listen with your own player(launches your MP3 player)

KPVD 171751Z 15011KT 10SM FEW025 FEW110 SCT140 SCT300 29/23 A2984 RMK AO2 SLP102 T02890233 10294 20261 58018

KPVD Airport Info (Airnav.com)

KPVD Flight Activity (Flightaware)

Listeners: 0 out of 2022 total

Providence ATIS: 124.200

KPVD Clearance Delivery (Archives)
Providence, Rhode Island, United States

Feed Status: UP
Listen in your browser - HTML5 player(in browser, HTML5)
Click here to listen with your own player(launches your MP3 player)

KPVD 171751Z 15011KT 10SM FEW025 FEW110 SCT140 SCT300 29/23 A2984 RMK AO2 SLP102 T02890233 10294 20261 58018

KPVD Airport Info (Airnav.com)

KPVD Flight Activity (Flightaware)

Listeners: 0 out of 2022 total

Providence Clearance Delivery: 126.650

KPVD Ground (Archives)
Providence, Rhode Island, United States

Feed Status: UP
Listen in your browser - HTML5 player(in browser, HTML5)
Click here to listen with your own player(launches your MP3 player)

KPVD 171751Z 15011KT 10SM FEW025 FEW110 SCT140 SCT300 29/23 A2984 RMK AO2 SLP102 T02890233 10294 20261 58018

KPVD Airport Info (Airnav.com)

KPVD Flight Activity (Flightaware)

Listeners: 0 out of 2022 total

Providence Ground: 121.900

KPVD Tower (Archives)
Providence, Rhode Island, United States

Feed Status: UP
Listen in your browser - HTML5 player(in browser, HTML5)
Click here to listen with your own player(launches your MP3 player)

KPVD 171751Z 15011KT 10SM FEW025 FEW110 SCT140 SCT300 29/23 A2984 RMK AO2 SLP102 T02890233 10294 20261 58018

KPVD Airport Info (Airnav.com)

KPVD Flight Activity (Flightaware)

Listeners: 0 out of 2022 total

Providence Tower: 120.700

KPWM App/Dep #1 (Archives)
Portland, Maine, United States

Feed Status: UP
Listen in your browser - HTML5 player(in browser, HTML5)
Click here to listen with your own player(launches your MP3 player)

KPWM 171751Z 18011G19KT 10SM SCT045 29/21 A2979 RMK AO2 SLP086 T02940211 10306 20250 58007

KPWM Airport Info (Airnav.com)

KPWM Flight Activity (Flightaware)

Listeners: 0 out of 2022 total

Portland Approach (South): 119.750

KPWM App/Dep #2 (Archives)
Portland, Maine, United States

Feed Status: UP
Listen in your browser - HTML5 player(in browser, HTML5)
Click here to listen with your own player(launches your MP3 player)

KPWM 171751Z 18011G19KT 10SM SCT045 29/21 A2979 RMK AO2 SLP086 T02940211 10306 20250 58007

KPWM Airport Info (Airnav.com)

KPWM Flight Activity (Flightaware)

Listeners: 0 out of 2022 total

Portland Approach (South): 119.750

KPWM Gnd/Tower (Archives)
Portland, Maine, United States

Feed Status: UP
Listen in your browser - HTML5 player(in browser, HTML5)
Click here to listen with your own player(launches your MP3 player)

KPWM 171751Z 18011G19KT 10SM SCT045 29/21 A2979 RMK AO2 SLP086 T02940211 10306 20250 58007

KPWM Airport Info (Airnav.com)

KPWM Flight Activity (Flightaware)

Listeners: 5 out of 2022 total

Portland Clearance Delivery: 121.900
Portland Ground: 121.900
Portland Tower: 120.900

KPWM Gnd/Twr/App (Archives)
Portland, Maine, United States

Feed Status: UP
Listen in your browser - HTML5 player(in browser, HTML5)
Click here to listen with your own player(launches your MP3 player)

KPWM 171751Z 18011G19KT 10SM SCT045 29/21 A2979 RMK AO2 SLP086 T02940211 10306 20250 58007

KPWM Airport Info (Airnav.com)

KPWM Flight Activity (Flightaware)

Listeners: 1 out of 2022 total

Portland Approach (South): 119.750
Portland Clearance Delivery: 121.900
Portland Ground: 121.900
Portland Tower: 120.900

KPWM Tower #1 (Archives)
Portland, Maine, United States

Feed Status: UP
Listen in your browser - HTML5 player(in browser, HTML5)
Click here to listen with your own player(launches your MP3 player)

KPWM 171751Z 18011G19KT 10SM SCT045 29/21 A2979 RMK AO2 SLP086 T02940211 10306 20250 58007

KPWM Airport Info (Airnav.com)

KPWM Flight Activity (Flightaware)

Listeners: 0 out of 2022 total

Portland Tower: 120.900

KPWM Tower #2 (Archives)
Portland, Maine, United States

Feed Status: UP
Listen in your browser - HTML5 player(in browser, HTML5)
Click here to listen with your own player(launches your MP3 player)

KPWM 171751Z 18011G19KT 10SM SCT045 29/21 A2979 RMK AO2 SLP086 T02940211 10306 20250 58007

KPWM Airport Info (Airnav.com)

KPWM Flight Activity (Flightaware)

Listeners: 0 out of 2022 total

Portland Tower: 120.900

KRDU Approach (Archives)
Raleigh/Durham, North Carolina, United States

Feed Status: UP
Listen in your browser - HTML5 player(in browser, HTML5)
Click here to listen with your own player(launches your MP3 player)

KRDU 171751Z VRB05KT 10SM SCT038TCU BKN250 34/24 A2994 RMK AO2 SLP130 TCU ALQDS T03440239 10350 20267 56011

KRDU Airport Info (Airnav.com)

KRDU Flight Activity (Flightaware)

Listeners: 0 out of 2022 total

Raleigh Approach: 124.950
Raleigh Approach: 127.675

KRDU Approach/Departure (Archives)
Raleigh/Durham, North Carolina, United States

Feed Status: UP
Listen in your browser - HTML5 player(in browser, HTML5)
Click here to listen with your own player(launches your MP3 player)

KRDU 171751Z VRB05KT 10SM SCT038TCU BKN250 34/24 A2994 RMK AO2 SLP130 TCU ALQDS T03440239 10350 20267 56011

KRDU Airport Info (Airnav.com)

KRDU Flight Activity (Flightaware)

Listeners: 0 out of 2022 total

Raleigh Approach: 124.950
Raleigh Approach: 127.675
Raleigh Departure: 125.300
Raleigh Departure: 132.350

KRDU Departure (Archives)
Raleigh/Durham, North Carolina, United States

Feed Status: UP
Listen in your browser - HTML5 player(in browser, HTML5)
Click here to listen with your own player(launches your MP3 player)

KRDU 171751Z VRB05KT 10SM SCT038TCU BKN250 34/24 A2994 RMK AO2 SLP130 TCU ALQDS T03440239 10350 20267 56011

KRDU Airport Info (Airnav.com)

KRDU Flight Activity (Flightaware)

Listeners: 1 out of 2022 total

Raleigh Departure: 132.350
Raleigh Departure: 125.300

KRDU Departure 132.35
Raleigh/Durham, North Carolina, United States

Feed Status: DOWN
Offline since: 2024-04-23 22:21:06 UTC

KRDU 171751Z VRB05KT 10SM SCT038TCU BKN250 34/24 A2994 RMK AO2 SLP130 TCU ALQDS T03440239 10350 20267 56011

KRDU Airport Info (Airnav.com)

Raleigh Departure: 132.350

KRDU Tower (Archives)
Raleigh/Durham, North Carolina, United States

Feed Status: UP
Listen in your browser - HTML5 player(in browser, HTML5)
Click here to listen with your own player(launches your MP3 player)

KRDU 171751Z VRB05KT 10SM SCT038TCU BKN250 34/24 A2994 RMK AO2 SLP130 TCU ALQDS T03440239 10350 20267 56011

KRDU Airport Info (Airnav.com)

KRDU Flight Activity (Flightaware)

Listeners: 0 out of 2022 total

Raleigh Tower (East: Rwys 05R/23L, 14/32): 127.450
Raleigh Tower (West: Rwy 05L/23R): 119.300

KRNO Clearance Delivery (Archives)
Reno, Nevada, United States

Feed Status: UP
Listen in your browser - HTML5 player(in browser, HTML5)
Click here to listen with your own player(launches your MP3 player)

KRNO 171755Z 00000KT 10SM CLR 29/01 A3017 RMK AO2 SLP151 FU ALF ALQDS T02890006 10300 20183 58003

KRNO Airport Info (Airnav.com)

KRNO Flight Activity (Flightaware)

Listeners: 0 out of 2022 total

Reno Clearance Delivery: 124.900

KRNO Del/Gnd/Twr (Archives)
Reno, Nevada, United States

Feed Status: UP
Listen in your browser - HTML5 player(in browser, HTML5)
Click here to listen with your own player(launches your MP3 player)

KRNO 171755Z 00000KT 10SM CLR 29/01 A3017 RMK AO2 SLP151 FU ALF ALQDS T02890006 10300 20183 58003

KRNO Airport Info (Airnav.com)

KRNO Flight Activity (Flightaware)

Listeners: 1 out of 2022 total

Reno Clearance Delivery: 124.900
Reno Ground: 121.900
Reno Tower: 118.700

KRNO Del/Gnd/Twr (Archives)
Reno, Nevada, United States

Feed Status: UP
Listen in your browser - HTML5 player(in browser, HTML5)
Click here to listen with your own player(launches your MP3 player)

KRNO 171755Z 00000KT 10SM CLR 29/01 A3017 RMK AO2 SLP151 FU ALF ALQDS T02890006 10300 20183 58003

KRNO Airport Info (Airnav.com)

KRNO Flight Activity (Flightaware)

Listeners: 1 out of 2022 total

Reno Clearance Delivery: 124.900
Reno Ground: 121.900
Reno Tower: 118.700

KRNO Del/Gnd/Twr/App/ZOA (Archives)
Reno, Nevada, United States

Feed Status: UP
Listen in your browser - HTML5 player(in browser, HTML5)
Click here to listen with your own player(launches your MP3 player)

KRNO 171755Z 00000KT 10SM CLR 29/01 A3017 RMK AO2 SLP151 FU ALF ALQDS T02890006 10300 20183 58003

KRNO Airport Info (Airnav.com)

KRNO Flight Activity (Flightaware)

Listeners: 4 out of 2022 total

Emergency/Guard: 121.500
NORCAL Approach (Reno North): 126.300
NORCAL Approach (Reno South): 119.200
Oakland Center (Zone 45, Lo): 128.800
Reno Clearance Delivery: 124.900
Reno Ground: 121.900
Reno Tower: 118.700

KRNO Emergency/Guard (Archives)
Reno, Nevada, United States

Feed Status: UP
Listen in your browser - HTML5 player(in browser, HTML5)
Click here to listen with your own player(launches your MP3 player)

KRNO 171755Z 00000KT 10SM CLR 29/01 A3017 RMK AO2 SLP151 FU ALF ALQDS T02890006 10300 20183 58003

KRNO Airport Info (Airnav.com)

KRNO Flight Activity (Flightaware)

Listeners: 0 out of 2022 total

Emergency/Guard: 121.500

KRNO Ground (Archives)
Reno, Nevada, United States

Feed Status: UP
Listen in your browser - HTML5 player(in browser, HTML5)
Click here to listen with your own player(launches your MP3 player)

KRNO 171755Z 00000KT 10SM CLR 29/01 A3017 RMK AO2 SLP151 FU ALF ALQDS T02890006 10300 20183 58003

KRNO Airport Info (Airnav.com)

KRNO Flight Activity (Flightaware)

Listeners: 0 out of 2022 total

Reno Ground: 121.900

KRNO NORCAL App/Dep (Archives)
Reno, Nevada, United States

Feed Status: UP
Listen in your browser - HTML5 player(in browser, HTML5)
Click here to listen with your own player(launches your MP3 player)

KRNO 171755Z 00000KT 10SM CLR 29/01 A3017 RMK AO2 SLP151 FU ALF ALQDS T02890006 10300 20183 58003

KRNO Airport Info (Airnav.com)

KRNO Flight Activity (Flightaware)

Listeners: 1 out of 2022 total

NORCAL Approach (Reno North): 126.300
NORCAL Approach (Reno South): 119.200

KRNO NORCAL App/Dep (North) (Archives)
Reno, Nevada, United States

Feed Status: UP
Listen in your browser - HTML5 player(in browser, HTML5)
Click here to listen with your own player(launches your MP3 player)

KRNO 171755Z 00000KT 10SM CLR 29/01 A3017 RMK AO2 SLP151 FU ALF ALQDS T02890006 10300 20183 58003

KRNO Airport Info (Airnav.com)

KRNO Flight Activity (Flightaware)

Listeners: 0 out of 2022 total

NORCAL Approach (Reno North): 126.300

KRNO NORCAL App/Dep (South) (Archives)
Reno, Nevada, United States

Feed Status: UP
Listen in your browser - HTML5 player(in browser, HTML5)
Click here to listen with your own player(launches your MP3 player)

KRNO 171755Z 00000KT 10SM CLR 29/01 A3017 RMK AO2 SLP151 FU ALF ALQDS T02890006 10300 20183 58003

KRNO Airport Info (Airnav.com)

KRNO Flight Activity (Flightaware)

Listeners: 0 out of 2022 total

NORCAL Approach (Reno South): 119.200

KRNO Tower (Archives)
Reno, Nevada, United States

Feed Status: UP
Listen in your browser - HTML5 player(in browser, HTML5)
Click here to listen with your own player(launches your MP3 player)

KRNO 171755Z 00000KT 10SM CLR 29/01 A3017 RMK AO2 SLP151 FU ALF ALQDS T02890006 10300 20183 58003

KRNO Airport Info (Airnav.com)

KRNO Flight Activity (Flightaware)

Listeners: 1 out of 2022 total

Reno Tower: 118.700

KROA App/Dep #1 (Archives)
Roanoke, Virginia, United States

Feed Status: UP
Listen in your browser - HTML5 player(in browser, HTML5)
Click here to listen with your own player(launches your MP3 player)

KROA 171754Z 25008G17KT 10SM FEW044 35/19 A2993 RMK AO2 SLP121 T03500189 10356 20228 58019

KROA Airport Info (Airnav.com)

KROA Flight Activity (Flightaware)

Listeners: 0 out of 2022 total

Roanoke Approach: 118.150
Roanoke Approach: 126.900

KROA App/Dep #2 (Archives)
Roanoke, Virginia, United States

Feed Status: UP
Listen in your browser - HTML5 player(in browser, HTML5)
Click here to listen with your own player(launches your MP3 player)

KROA 171754Z 25008G17KT 10SM FEW044 35/19 A2993 RMK AO2 SLP121 T03500189 10356 20228 58019

KROA Airport Info (Airnav.com)

KROA Flight Activity (Flightaware)

Listeners: 0 out of 2022 total

Roanoke Approach: 118.150
Roanoke Approach: 126.900
Roanoke Approach: 135.000

KROA ATIS (Archives)
Roanoke, Virginia, United States

Feed Status: UP
Listen in your browser - HTML5 player(in browser, HTML5)
Click here to listen with your own player(launches your MP3 player)

KROA 171754Z 25008G17KT 10SM FEW044 35/19 A2993 RMK AO2 SLP121 T03500189 10356 20228 58019

KROA Airport Info (Airnav.com)

KROA Flight Activity (Flightaware)

Listeners: 0 out of 2022 total

Roanoke ATIS: 132.375

KROA Clearance Delivery (Archives)
Roanoke, Virginia, United States

Feed Status: UP
Listen in your browser - HTML5 player(in browser, HTML5)
Click here to listen with your own player(launches your MP3 player)

KROA 171754Z 25008G17KT 10SM FEW044 35/19 A2993 RMK AO2 SLP121 T03500189 10356 20228 58019

KROA Airport Info (Airnav.com)

KROA Flight Activity (Flightaware)

Listeners: 0 out of 2022 total

Roanoke Clearance Delivery: 119.700

KROA Del/Gnd (Archives)
Roanoke, Virginia, United States

Feed Status: UP
Listen in your browser - HTML5 player(in browser, HTML5)
Click here to listen with your own player(launches your MP3 player)

KROA 171754Z 25008G17KT 10SM FEW044 35/19 A2993 RMK AO2 SLP121 T03500189 10356 20228 58019

KROA Airport Info (Airnav.com)

KROA Flight Activity (Flightaware)

Listeners: 0 out of 2022 total

Roanoke Clearance Delivery: 119.700
Roanoke Ground: 121.900

KROA Gnd/Twr (Archives)
Roanoke, Virginia, United States

Feed Status: UP
Listen in your browser - HTML5 player(in browser, HTML5)
Click here to listen with your own player(launches your MP3 player)

KROA 171754Z 25008G17KT 10SM FEW044 35/19 A2993 RMK AO2 SLP121 T03500189 10356 20228 58019

KROA Airport Info (Airnav.com)

KROA Flight Activity (Flightaware)

Listeners: 0 out of 2022 total

Roanoke Ground: 121.900
Roanoke Tower: 118.300

KROA Gnd/Twr/App (Archives)
Roanoke, Virginia, United States

Feed Status: UP
Listen in your browser - HTML5 player(in browser, HTML5)
Click here to listen with your own player(launches your MP3 player)

KROA 171754Z 25008G17KT 10SM FEW044 35/19 A2993 RMK AO2 SLP121 T03500189 10356 20228 58019

KROA Airport Info (Airnav.com)

KROA Flight Activity (Flightaware)

Listeners: 0 out of 2022 total

Roanoke Approach: 126.900
Roanoke Approach: 118.150
Roanoke Ground: 121.900
Roanoke Tower: 118.300

KROA Ground (Archives)
Roanoke, Virginia, United States

Feed Status: UP
Listen in your browser - HTML5 player(in browser, HTML5)
Click here to listen with your own player(launches your MP3 player)

KROA 171754Z 25008G17KT 10SM FEW044 35/19 A2993 RMK AO2 SLP121 T03500189 10356 20228 58019

KROA Airport Info (Airnav.com)

KROA Flight Activity (Flightaware)

Listeners: 0 out of 2022 total

Roanoke Ground: 121.900

KROA Tower (Archives)
Roanoke, Virginia, United States

Feed Status: UP
Listen in your browser - HTML5 player(in browser, HTML5)
Click here to listen with your own player(launches your MP3 player)

KROA 171754Z 25008G17KT 10SM FEW044 35/19 A2993 RMK AO2 SLP121 T03500189 10356 20228 58019

KROA Airport Info (Airnav.com)

KROA Flight Activity (Flightaware)

Listeners: 0 out of 2022 total

Roanoke Tower: 118.300

KROC Approach (Archives)
Rochester, New York, United States

Feed Status: UP
Listen in your browser - HTML5 player(in browser, HTML5)
Click here to listen with your own player(launches your MP3 player)

KROC 171754Z 28008KT 10SM FEW016 FEW055 BKN140 BKN220 24/19 A2985 RMK AO2 SLP106 60000 T02440189 10244 20222 56002

KROC Airport Info (Airnav.com)

KROC Flight Activity (Flightaware)

Listeners: 0 out of 2022 total

Rochester Approach: 119.550
Rochester Approach: 123.700

KROC Del/Gnd/Twr (Archives)
Rochester, New York, United States

Feed Status: UP
Listen in your browser - HTML5 player(in browser, HTML5)
Click here to listen with your own player(launches your MP3 player)

KROC 171754Z 28008KT 10SM FEW016 FEW055 BKN140 BKN220 24/19 A2985 RMK AO2 SLP106 60000 T02440189 10244 20222 56002

KROC Airport Info (Airnav.com)

KROC Flight Activity (Flightaware)

Listeners: 1 out of 2022 total

Rochester Clearance Delivery: 118.800
Rochester Ground: 121.700
Rochester Tower: 118.300

KROC Delivery/Ground (Archives)
Rochester, New York, United States

Feed Status: UP
Listen in your browser - HTML5 player(in browser, HTML5)
Click here to listen with your own player(launches your MP3 player)

KROC 171754Z 28008KT 10SM FEW016 FEW055 BKN140 BKN220 24/19 A2985 RMK AO2 SLP106 60000 T02440189 10244 20222 56002

KROC Airport Info (Airnav.com)

KROC Flight Activity (Flightaware)

Listeners: 0 out of 2022 total

Rochester Clearance Delivery: 118.800
Rochester Ground: 121.700

KROC Tower (Archives)
Rochester, New York, United States

Feed Status: UP
Listen in your browser - HTML5 player(in browser, HTML5)
Click here to listen with your own player(launches your MP3 player)

KROC 171754Z 28008KT 10SM FEW016 FEW055 BKN140 BKN220 24/19 A2985 RMK AO2 SLP106 60000 T02440189 10244 20222 56002

KROC Airport Info (Airnav.com)

KROC Flight Activity (Flightaware)

Listeners: 0 out of 2022 total

Rochester Tower: 118.300

KROG/KXNA/KVBT/Misc (Archives)
Rogers, Arkansas, United States

Feed Status: UP
Listen in your browser - HTML5 player(in browser, HTML5)
Click here to listen with your own player(launches your MP3 player)

KROG 171758Z 30003KT 10SM CLR 25/20 A3008 RMK AO2 SLP168 60013 T02500200 10256 20217 51017

KROG Airport Info (Airnav.com)

KROG Flight Activity (Flightaware)

Listeners: 0 out of 2022 total

Bentonville CTAF: 122.975
Northwest Regional Tower: 127.100
Razorback Approach/Departure (East): 126.600
Rogers Tower: 119.375

KRSW Gnd/Twr/App/Dep (Archives)
Fort Myers, Florida, United States

Feed Status: UP
Listen in your browser - HTML5 player(in browser, HTML5)
Click here to listen with your own player(launches your MP3 player)

KRSW 171753Z 18006KT 10SM FEW043 33/23 A3006 RMK AO2 SLP178 T03280228 10328 20250 58010

KRSW Airport Info (Airnav.com)

KRSW Flight Activity (Flightaware)

Listeners: 5 out of 2022 total

Ft. Myers Approach/Departure (060-240): 119.750
Ft. Myers Approach/Departure (241-330): 125.150
Ft. Myers Approach/Departure (331-059): 126.800
Ft. Myers Ground: 121.900
Ft. Myers Tower: 128.750

KSAT App/Dep (Archives)
San Antonio, Texas, United States

Feed Status: UP
Listen in your browser - HTML5 player(in browser, HTML5)
Click here to listen with your own player(launches your MP3 player)

KSAT 171751Z VRB04KT 10SM SCT048 BKN250 33/22 A3003 RMK AO2 SLP149 T03330217 10339 20261 53002

KSAT Airport Info (Airnav.com)

KSAT Flight Activity (Flightaware)

Listeners: 1 out of 2022 total

San Antonio Approach/Departure: 127.100
San Antonio Approach/Departure: 125.700
San Antonio Approach/Departure (091-140): 128.050
San Antonio Approach/Departure (141-270): 118.050
San Antonio Approach/Departure (271-359): 125.100
San Antonio Approach/Departure (360-090): 124.450

KSAT Ground (Archives)
San Antonio, Texas, United States

Feed Status: UP
Listen in your browser - HTML5 player(in browser, HTML5)
Click here to listen with your own player(launches your MP3 player)

KSAT 171751Z VRB04KT 10SM SCT048 BKN250 33/22 A3003 RMK AO2 SLP149 T03330217 10339 20261 53002

KSAT Airport Info (Airnav.com)

KSAT Flight Activity (Flightaware)

Listeners: 1 out of 2022 total

San Antonio Ground: 121.900

KSAT Tower (Archives)
San Antonio, Texas, United States

Feed Status: UP
Listen in your browser - HTML5 player(in browser, HTML5)
Click here to listen with your own player(launches your MP3 player)

KSAT 171751Z VRB04KT 10SM SCT048 BKN250 33/22 A3003 RMK AO2 SLP149 T03330217 10339 20261 53002

KSAT Airport Info (Airnav.com)

KSAT Flight Activity (Flightaware)

Listeners: 2 out of 2022 total

San Antonio Tower: 119.800

KSAV App/Dep (Archives)
Savannah, Georgia, United States

Feed Status: UP
Listen in your browser - HTML5 player(in browser, HTML5)
Click here to listen with your own player(launches your MP3 player)

KSAV 171753Z 23006KT 10SM SCT046 BKN250 34/23 A3003 RMK AO2 SLP168 T03390228 10344 20261 58011

KSAV Airport Info (Airnav.com)

KSAV Flight Activity (Flightaware)

Listeners: 0 out of 2022 total

Savannah Approach (011-109): 125.300
Savannah Approach (011-109): 353.775
Savannah Approach (110-269): 120.400
Savannah Approach (110-269): 354.000
Savannah Approach (270-010): 118.400
Savannah Approach (270-010): 371.875

KSAV Del/Gnd (Archives)
Savannah, Georgia, United States

Feed Status: UP
Listen in your browser - HTML5 player(in browser, HTML5)
Click here to listen with your own player(launches your MP3 player)

KSAV 171753Z 23006KT 10SM SCT046 BKN250 34/23 A3003 RMK AO2 SLP168 T03390228 10344 20261 58011

KSAV Airport Info (Airnav.com)

KSAV Flight Activity (Flightaware)

Listeners: 0 out of 2022 total

Savannah Clearance: 291.775
Savannah Clearance Delivery: 119.550
Savannah Ground: 121.900
Savannah Ground: 348.600

KSAV Tower (Archives)
Savannah, Georgia, United States

Feed Status: UP
Listen in your browser - HTML5 player(in browser, HTML5)
Click here to listen with your own player(launches your MP3 player)

KSAV 171753Z 23006KT 10SM SCT046 BKN250 34/23 A3003 RMK AO2 SLP168 T03390228 10344 20261 58011

KSAV Airport Info (Airnav.com)

KSAV Flight Activity (Flightaware)

Listeners: 0 out of 2022 total

Savannah Tower: 125.975
Savannah Tower: 257.800

KSBA App/Dep
Santa Barbara, California, United States

Feed Status: DOWN
Offline since: 2024-06-24 09:55:07 UTC

KSBA 171753Z 20006KT 10SM FEW150 22/16 A3000 RMK AO2 SLP158 T02170156 10222 20150 51007 $

KSBA Airport Info (Airnav.com)

Santa Barbara Approach/Departure: 125.400
Santa Barbara Approach/Departure: 124.150
Santa Barbara Approach/Departure: 120.550

KSBA Del/Ground
Santa Barbara, California, United States

Feed Status: DOWN
Offline since: 2024-06-24 09:45:06 UTC

KSBA 171753Z 20006KT 10SM FEW150 22/16 A3000 RMK AO2 SLP158 T02170156 10222 20150 51007 $

KSBA Airport Info (Airnav.com)

Santa Barbara Clearance Delivery: 132.900
Santa Barbara Ground: 121.700

KSBA Tower
Santa Barbara, California, United States

Feed Status: DOWN
Offline since: 2024-06-20 15:29:22 UTC

KSBA 171753Z 20006KT 10SM FEW150 22/16 A3000 RMK AO2 SLP158 T02170156 10222 20150 51007 $

KSBA Airport Info (Airnav.com)

Santa Barbara Tower: 119.700

KSDF App/Dep #1 (Archives)
Louisville, Kentucky, United States

Feed Status: UP
Listen in your browser - HTML5 player(in browser, HTML5)
Click here to listen with your own player(launches your MP3 player)

KSDF 171756Z 28011KT 10SM SCT038 SCT070 BKN130 OVC200 28/21 A2995 RMK AO2 SLP137 60000 T02830206 10289 20228 50000

KSDF Airport Info (Airnav.com)

KSDF Flight Activity (Flightaware)

Listeners: 0 out of 2022 total

Louisville Approach/Departure: 132.075

KSDF App/Dep #2 (Archives)
Louisville, Kentucky, United States

Feed Status: UP
Listen in your browser - HTML5 player(in browser, HTML5)
Click here to listen with your own player(launches your MP3 player)

KSDF 171756Z 28011KT 10SM SCT038 SCT070 BKN130 OVC200 28/21 A2995 RMK AO2 SLP137 60000 T02830206 10289 20228 50000

KSDF Airport Info (Airnav.com)

KSDF Flight Activity (Flightaware)

Listeners: 0 out of 2022 total

Louisville Approach/Departure: 134.150

KSDF ATIS (Archives)
Louisville, Kentucky, United States

Feed Status: UP
Listen in your browser - HTML5 player(in browser, HTML5)
Click here to listen with your own player(launches your MP3 player)

KSDF 171756Z 28011KT 10SM SCT038 SCT070 BKN130 OVC200 28/21 A2995 RMK AO2 SLP137 60000 T02830206 10289 20228 50000

KSDF Airport Info (Airnav.com)

KSDF Flight Activity (Flightaware)

Listeners: 0 out of 2022 total

Louisville ATIS: 118.725

KSDF Ground/Tower #1 (Archives)
Louisville, Kentucky, United States

Feed Status: UP
Listen in your browser - HTML5 player(in browser, HTML5)
Click here to listen with your own player(launches your MP3 player)

KSDF 171756Z 28011KT 10SM SCT038 SCT070 BKN130 OVC200 28/21 A2995 RMK AO2 SLP137 60000 T02830206 10289 20228 50000

KSDF Airport Info (Airnav.com)

KSDF Flight Activity (Flightaware)

Listeners: 0 out of 2022 total

Louisville Ground: 121.700
Louisville Tower: 124.200

KSDF Thunder Over Louisville Air Show #2 (Archives)
Louisville, Kentucky, United States

Feed Status: UP
Listen in your browser - HTML5 player(in browser, HTML5)
Click here to listen with your own player(launches your MP3 player)

KSDF 171756Z 28011KT 10SM SCT038 SCT070 BKN130 OVC200 28/21 A2995 RMK AO2 SLP137 60000 T02830206 10289 20228 50000

KSDF Airport Info (Airnav.com)

KSDF Flight Activity (Flightaware)

Listeners: 0 out of 2022 total

Air Boss (VHF): 120.300
Air to Air: 126.850

KSFB ATIS (Archives)
Orlando, Florida, United States

Feed Status: UP
Listen in your browser - HTML5 player(in browser, HTML5)
Click here to listen with your own player(launches your MP3 player)

KSFB 171753Z 10SM SCT043 33/23 A3008 RMK AO2 SLP185 T03330233 10333 20239 58006

KSFB Airport Info (Airnav.com)

KSFB Flight Activity (Flightaware)

Listeners: 0 out of 2022 total

Sanford ATIS: 125.975

KSFB Clearance Delivery (Archives)
Orlando, Florida, United States

Feed Status: UP
Listen in your browser - HTML5 player(in browser, HTML5)
Click here to listen with your own player(launches your MP3 player)

KSFB 171753Z 10SM SCT043 33/23 A3008 RMK AO2 SLP185 T03330233 10333 20239 58006

KSFB Airport Info (Airnav.com)

KSFB Flight Activity (Flightaware)

Listeners: 0 out of 2022 total

Sanford Clearance Delivery: 123.975

KSFB Del/Gnd (Archives)
Orlando, Florida, United States

Feed Status: UP
Listen in your browser - HTML5 player(in browser, HTML5)
Click here to listen with your own player(launches your MP3 player)

KSFB 171753Z 10SM SCT043 33/23 A3008 RMK AO2 SLP185 T03330233 10333 20239 58006

KSFB Airport Info (Airnav.com)

KSFB Flight Activity (Flightaware)

Listeners: 0 out of 2022 total

Sanford Clearance Delivery: 123.975
Sanford Ground: 121.350

KSFB Ground (Archives)
Orlando, Florida, United States

Feed Status: UP
Listen in your browser - HTML5 player(in browser, HTML5)
Click here to listen with your own player(launches your MP3 player)

KSFB 171753Z 10SM SCT043 33/23 A3008 RMK AO2 SLP185 T03330233 10333 20239 58006

KSFB Airport Info (Airnav.com)

KSFB Flight Activity (Flightaware)

Listeners: 0 out of 2022 total

Sanford Ground: 121.350

KSFB Tower (Both) (Archives)
Orlando, Florida, United States

Feed Status: UP
Listen in your browser - HTML5 player(in browser, HTML5)
Click here to listen with your own player(launches your MP3 player)

KSFB 171753Z 10SM SCT043 33/23 A3008 RMK AO2 SLP185 T03330233 10333 20239 58006

KSFB Airport Info (Airnav.com)

KSFB Flight Activity (Flightaware)

Listeners: 0 out of 2022 total

Sanford Tower (Runways 9L/27R, 18/36): 120.300
Sanford Tower (Runways 9R/27L, 9C/27C): 135.250

KSFB Tower (Main) (Archives)
Orlando, Florida, United States

Feed Status: UP
Listen in your browser - HTML5 player(in browser, HTML5)
Click here to listen with your own player(launches your MP3 player)

KSFB 171753Z 10SM SCT043 33/23 A3008 RMK AO2 SLP185 T03330233 10333 20239 58006

KSFB Airport Info (Airnav.com)

KSFB Flight Activity (Flightaware)

Listeners: 0 out of 2022 total

Sanford Tower (Runways 9L/27R, 18/36): 120.300

KSFB Tower (South) (Archives)
Orlando, Florida, United States

Feed Status: UP
Listen in your browser - HTML5 player(in browser, HTML5)
Click here to listen with your own player(launches your MP3 player)

KSFB 171753Z 10SM SCT043 33/23 A3008 RMK AO2 SLP185 T03330233 10333 20239 58006

KSFB Airport Info (Airnav.com)

KSFB Flight Activity (Flightaware)

Listeners: 0 out of 2022 total

Sanford Tower (Runways 9R/27L, 9C/27C): 135.250

NORCAL Departure (KSFO/KOAK) (Archives)
San Francisco, California, United States

Feed Status: UP
Listen in your browser - HTML5 player(in browser, HTML5)
Click here to listen with your own player(launches your MP3 player)

KOAK 171753Z VRB04KT 10SM BKN010 17/13 A3007 RMK AO2 SLP183 T01670133 10167 20144 50004

KOAK Airport Info (Airnav.com)

KOAK Flight Activity (Flightaware)

Listeners: 0 out of 2022 total

NORCAL Departure (Northeast Departures): 120.900
NORCAL Departure (Northeast Departures): 127.000
NORCAL Departure (Southwest Departures): 127.975
NORCAL Departure (Southwest Departures): 135.100

KSGF Ground/Tower
Springfield, Missouri, United States

Feed Status: DOWN
Offline since: 2024-07-08 11:28:05 UTC

KSGF 171752Z 00000KT 10SM FEW010 BKN024 BKN034 24/22 A3004 RMK AO2 SLP161 60107 T02440217 10250 20206 50017

KSGF Airport Info (Airnav.com)

Springfield Ground: 121.900
Springfield Tower: 119.900

KSJC D-ATIS (Archives)
San Jose, California, United States

Feed Status: UP
Listen in your browser - HTML5 player(in browser, HTML5)
Click here to listen with your own player(launches your MP3 player)

KSJC 171753Z 36007KT 10SM FEW009 20/12 A3006 RMK AO2 SLP177 60000 T02000122 10206 20161 50003

KSJC Airport Info (Airnav.com)

KSJC Flight Activity (Flightaware)

Listeners: 0 out of 2022 total

San Jose D-ATIS: 126.950

KSJC Del/Gnd/Misc (Archives)
San Jose, California, United States

Feed Status: UP
Listen in your browser - HTML5 player(in browser, HTML5)
Click here to listen with your own player(launches your MP3 player)

KSJC 171753Z 36007KT 10SM FEW009 20/12 A3006 RMK AO2 SLP177 60000 T02000122 10206 20161 50003

KSJC Airport Info (Airnav.com)

KSJC Flight Activity (Flightaware)

Listeners: 0 out of 2022 total

Alaska Airlines Ops: 131.200
American Airlines Ops: 129.200
Atlantic Aviation (San Jose Jet Center): 129.800
Emergency/Guard: 121.500
Horizon Air Ops: 132.000
San Jose Clearance Delivery: 118.000
San Jose Ground: 121.700
Signature Flight Support: 129.050
Southwest Airlines Ops: 464.625
Southwest Airlines Ops: 131.700

KSJC Ground (Archives)
San Jose, California, United States

Feed Status: UP
Listen in your browser - HTML5 player(in browser, HTML5)
Click here to listen with your own player(launches your MP3 player)

KSJC 171753Z 36007KT 10SM FEW009 20/12 A3006 RMK AO2 SLP177 60000 T02000122 10206 20161 50003

KSJC Airport Info (Airnav.com)

KSJC Flight Activity (Flightaware)

Listeners: 0 out of 2022 total

San Jose Ground: 121.700

KSJC NORCAL Approach #1 (Archives)
San Jose, California, United States

Feed Status: UP
Listen in your browser - HTML5 player(in browser, HTML5)
Click here to listen with your own player(launches your MP3 player)

KSJC 171753Z 36007KT 10SM FEW009 20/12 A3006 RMK AO2 SLP177 60000 T02000122 10206 20161 50003

KSJC Airport Info (Airnav.com)

KSJC Flight Activity (Flightaware)

Listeners: 1 out of 2022 total

Emergency/Guard: 121.500
NORCAL Approach: 135.200
NORCAL Approach "LICKE" SJC Final: 120.100

KSJC NORCAL Approach #2 (Archives)
San Jose, California, United States

Feed Status: UP
Listen in your browser - HTML5 player(in browser, HTML5)
Click here to listen with your own player(launches your MP3 player)

KSJC 171753Z 36007KT 10SM FEW009 20/12 A3006 RMK AO2 SLP177 60000 T02000122 10206 20161 50003

KSJC Airport Info (Airnav.com)

KSJC Flight Activity (Flightaware)

Listeners: 0 out of 2022 total

NORCAL Approach "LICKE" SJC Final: 120.100
NORCAL Approach "TOGA": 121.300

KSJC NORCAL Departure (Archives)
San Jose, California, United States

Feed Status: UP
Listen in your browser - HTML5 player(in browser, HTML5)
Click here to listen with your own player(launches your MP3 player)

KSJC 171753Z 36007KT 10SM FEW009 20/12 A3006 RMK AO2 SLP177 60000 T02000122 10206 20161 50003

KSJC Airport Info (Airnav.com)

KSJC Flight Activity (Flightaware)

Listeners: 0 out of 2022 total

NORCAL Departure: 121.300

KSJC Tower #1 (Archives)
San Jose, California, United States

Feed Status: UP
Listen in your browser - HTML5 player(in browser, HTML5)
Click here to listen with your own player(launches your MP3 player)

KSJC 171753Z 36007KT 10SM FEW009 20/12 A3006 RMK AO2 SLP177 60000 T02000122 10206 20161 50003

KSJC Airport Info (Airnav.com)

KSJC Flight Activity (Flightaware)

Listeners: 0 out of 2022 total

San Jose Tower: 124.000

KSJC Tower #2 (Archives)
San Jose, California, United States

Feed Status: UP
Listen in your browser - HTML5 player(in browser, HTML5)
Click here to listen with your own player(launches your MP3 player)

KSJC 171753Z 36007KT 10SM FEW009 20/12 A3006 RMK AO2 SLP177 60000 T02000122 10206 20161 50003

KSJC Airport Info (Airnav.com)

KSJC Flight Activity (Flightaware)

Listeners: 0 out of 2022 total

San Jose Tower: 124.000
San Jose Tower: 120.700

NORCAL Approach (Buttes Sector) (Archives)
Sacramento, California, United States

Feed Status: UP
Listen in your browser - HTML5 player(in browser, HTML5)
Click here to listen with your own player(launches your MP3 player)

KSMF 171753Z 30003KT 10SM CLR 23/12 A3001 RMK AO2 SLP161 FU DSNT SW AND NW T02280122 10233 20139 50003

KSMF Airport Info (Airnav.com)

KSMF Flight Activity (Flightaware)

Listeners: 1 out of 2022 total

NORCAL Approach (Buttes Sector): 125.400

NORCAL Approach (Delta Sector) (Archives)
Sacramento, California, United States

Feed Status: UP
Listen in your browser - HTML5 player(in browser, HTML5)
Click here to listen with your own player(launches your MP3 player)

KSMF 171753Z 30003KT 10SM CLR 23/12 A3001 RMK AO2 SLP161 FU DSNT SW AND NW T02280122 10233 20139 50003

KSMF Airport Info (Airnav.com)

KSMF Flight Activity (Flightaware)

Listeners: 1 out of 2022 total

NORCAL Approach (Delta Sector): 125.250

NORCAL Approach (Expo Sector) (Archives)
Sacramento, California, United States

Feed Status: UP
Listen in your browser - HTML5 player(in browser, HTML5)
Click here to listen with your own player(launches your MP3 player)

KSMF 171753Z 30003KT 10SM CLR 23/12 A3001 RMK AO2 SLP161 FU DSNT SW AND NW T02280122 10233 20139 50003

KSMF Airport Info (Airnav.com)

KSMF Flight Activity (Flightaware)

Listeners: 1 out of 2022 total

NORCAL Approach (Expo Sector): 127.400

KSNA Del/Gnd
Santa Ana, California, United States

Feed Status: DOWN
Offline since: 2024-07-17 07:50:39 UTC

KSNA 171753Z 23008KT 10SM SCT015 BKN045 BKN120 22/16 A2999 RMK AO2 SLP154 T02170161 10228 20194 50003 $

KSNA Airport Info (Airnav.com)

John Wayne Clearance (IFR): 118.000
John Wayne Clearance (VFR): 121.850
John Wayne Ground (East): 120.800
John Wayne Ground (West): 132.250

KSNA Del/Gnd/Twr/App (Archives)
Santa Ana, California, United States

Feed Status: UP
Listen in your browser - HTML5 player(in browser, HTML5)
Click here to listen with your own player(launches your MP3 player)

KSNA 171753Z 23008KT 10SM SCT015 BKN045 BKN120 22/16 A2999 RMK AO2 SLP154 T02170161 10228 20194 50003 $

KSNA Airport Info (Airnav.com)

KSNA Flight Activity (Flightaware)

Listeners: 0 out of 2022 total

John Wayne Clearance Delivery: 121.850
John Wayne Ground: 120.800
John Wayne Tower: 119.900
John Wayne Tower: 126.800
SoCal Approach (NE/SW): 128.100
SoCal Approach (NW/NE): 121.300
SoCal Approach (SE): 124.100

KSRQ App/Dep (Archives)
Sarasota/Bradenton, Florida, United States

Feed Status: UP
Listen in your browser - HTML5 player(in browser, HTML5)
Click here to listen with your own player(launches your MP3 player)

KSRQ 171753Z 23009KT 10SM FEW050 FEW060 32/24 A3007 RMK AO2 LTG DSNT N SLP182 T03220244 10322 20256 58004

KSRQ Airport Info (Airnav.com)

KSRQ Flight Activity (Flightaware)

Listeners: 0 out of 2022 total

Tampa Approach/Departure: 119.650
Tampa Approach/Departure: 124.950

KSRQ Del/Gnd (Archives)
Sarasota/Bradenton, Florida, United States

Feed Status: UP
Listen in your browser - HTML5 player(in browser, HTML5)
Click here to listen with your own player(launches your MP3 player)

KSRQ 171753Z 23009KT 10SM FEW050 FEW060 32/24 A3007 RMK AO2 LTG DSNT N SLP182 T03220244 10322 20256 58004

KSRQ Airport Info (Airnav.com)

KSRQ Flight Activity (Flightaware)

Listeners: 0 out of 2022 total

Sarasota Clearance Delivery: 118.250
Sarasota Ground: 121.900

KSRQ Tower (Archives)
Sarasota/Bradenton, Florida, United States

Feed Status: UP
Listen in your browser - HTML5 player(in browser, HTML5)
Click here to listen with your own player(launches your MP3 player)

KSRQ 171753Z 23009KT 10SM FEW050 FEW060 32/24 A3007 RMK AO2 LTG DSNT N SLP182 T03220244 10322 20256 58004

KSRQ Airport Info (Airnav.com)

KSRQ Flight Activity (Flightaware)

Listeners: 0 out of 2022 total

Sarasota Tower: 120.100
Sarasota Tower: 256.800

KSYR App/Dep (Archives)
Syracuse, New York, United States

Feed Status: UP
Listen in your browser - HTML5 player(in browser, HTML5)
Click here to listen with your own player(launches your MP3 player)

KSYR 171754Z 26007KT 10SM SCT025 BKN040 BKN100 BKN200 28/21 A2982 RMK AO2 SLP090 T02830206 10283 20256 58005 $

KSYR Airport Info (Airnav.com)

KSYR Flight Activity (Flightaware)

Listeners: 0 out of 2022 total

Syracuse Approach: 126.125

KSYR ATIS (Archives)
Syracuse, New York, United States

Feed Status: UP
Listen in your browser - HTML5 player(in browser, HTML5)
Click here to listen with your own player(launches your MP3 player)

KSYR 171754Z 26007KT 10SM SCT025 BKN040 BKN100 BKN200 28/21 A2982 RMK AO2 SLP090 T02830206 10283 20256 58005 $

KSYR Airport Info (Airnav.com)

KSYR Flight Activity (Flightaware)

Listeners: 0 out of 2022 total

Syracuse ATIS: 124.225

KSYR Clearance Delivery (Archives)
Syracuse, New York, United States

Feed Status: UP
Listen in your browser - HTML5 player(in browser, HTML5)
Click here to listen with your own player(launches your MP3 player)

KSYR 171754Z 26007KT 10SM SCT025 BKN040 BKN100 BKN200 28/21 A2982 RMK AO2 SLP090 T02830206 10283 20256 58005 $

KSYR Airport Info (Airnav.com)

KSYR Flight Activity (Flightaware)

Listeners: 0 out of 2022 total

Syracuse Clearance Delivery: 125.050

KSYR Ground (Archives)
Syracuse, New York, United States

Feed Status: UP
Listen in your browser - HTML5 player(in browser, HTML5)
Click here to listen with your own player(launches your MP3 player)

KSYR 171754Z 26007KT 10SM SCT025 BKN040 BKN100 BKN200 28/21 A2982 RMK AO2 SLP090 T02830206 10283 20256 58005 $

KSYR Airport Info (Airnav.com)

KSYR Flight Activity (Flightaware)

Listeners: 0 out of 2022 total

Syracuse Ground: 121.700

KSYR Ground/Tower (Archives)
Syracuse, New York, United States

Feed Status: UP
Listen in your browser - HTML5 player(in browser, HTML5)
Click here to listen with your own player(launches your MP3 player)

KSYR 171754Z 26007KT 10SM SCT025 BKN040 BKN100 BKN200 28/21 A2982 RMK AO2 SLP090 T02830206 10283 20256 58005 $

KSYR Airport Info (Airnav.com)

KSYR Flight Activity (Flightaware)

Listeners: 0 out of 2022 total

Syracuse Ground: 121.700
Syracuse Tower: 120.300

KSYR Tower (Archives)
Syracuse, New York, United States

Feed Status: UP
Listen in your browser - HTML5 player(in browser, HTML5)
Click here to listen with your own player(launches your MP3 player)

KSYR 171754Z 26007KT 10SM SCT025 BKN040 BKN100 BKN200 28/21 A2982 RMK AO2 SLP090 T02830206 10283 20256 58005 $

KSYR Airport Info (Airnav.com)

KSYR Flight Activity (Flightaware)

Listeners: 0 out of 2022 total


KSYR Tower/Approach (Archives)
Syracuse, New York, United States

Feed Status: UP
Listen in your browser - HTML5 player(in browser, HTML5)
Click here to listen with your own player(launches your MP3 player)

KSYR 171754Z 26007KT 10SM SCT025 BKN040 BKN100 BKN200 28/21 A2982 RMK AO2 SLP090 T02830206 10283 20256 58005 $

KSYR Airport Info (Airnav.com)

KSYR Flight Activity (Flightaware)

Listeners: 3 out of 2022 total

Syracuse Approach: 134.275
Syracuse Approach: 126.125
Syracuse Tower: 120.300

KTLH Del/Gnd/Twr/App (Archives)
Tallahassee, Florida, United States

Feed Status: UP
Listen in your browser - HTML5 player(in browser, HTML5)
Click here to listen with your own player(launches your MP3 player)

KTLH 171815Z 20005KT 10SM SCT028 SCT085 BKN250 27/22 A3007 RMK AO2 TSE09 PRESFR CB DSNT ALQDS MOV N T02670222

KTLH Airport Info (Airnav.com)

KTLH Flight Activity (Flightaware)

Listeners: 1 out of 2022 total

Tallahassee Approach/Departure: 135.800
Tallahassee Approach/Departure: 128.700
Tallahassee Approach/Departure: 133.850
Tallahassee Clearance Delivery: 126.650
Tallahassee Ground: 121.900
Tallahassee Tower: 118.700

KTOL Del/Gnd/Twr/App (Archives)
Toledo, Ohio, United States

Feed Status: UP
Listen in your browser - HTML5 player(in browser, HTML5)
Click here to listen with your own player(launches your MP3 player)

KTOL 171752Z VRB04KT 10SM CLR 27/16 A2991 RMK AO2 SLP121 T02720156 10278 20217 50002

KTOL Airport Info (Airnav.com)

KTOL Flight Activity (Flightaware)

Listeners: 1 out of 2022 total

Toledo Approach (East): 126.100
Toledo Approach (West): 134.350
Toledo Clearance Delivery: 121.750
Toledo Ground: 121.900
Toledo Tower: 118.100

KTUL Del/Gnd/Twr/App (Archives)
Tulsa, Oklahoma, United States

Feed Status: UP
Listen in your browser - HTML5 player(in browser, HTML5)
Click here to listen with your own player(launches your MP3 player)

KTUL 171753Z 31003KT 10SM SCT015 BKN035 OVC110 26/23 A3004 RMK AO2 SLP164 60000 T02610233 10261 20239 53009

KTUL Airport Info (Airnav.com)

KTUL Flight Activity (Flightaware)

Listeners: 2 out of 2022 total

Emergency/Guard: 121.500
Tulsa Approach (175-354deg): 124.000
Tulsa Approach (355-174deg): 119.100
Tulsa Approach (Final): 132.100
Tulsa Approach/Departure (KRVS): 134.700
Tulsa Clearance: 134.050
Tulsa Ground: 121.900
Tulsa Tower (Rwy 18R/36L): 118.700
Tulsa Tower (Rwys 18L/36R, 08/26): 121.200

KDMA/KTUS Twr/Ops/ZAB (Archives)
Tucson, Arizona, United States

Feed Status: UP
Listen in your browser - HTML5 player(in browser, HTML5)
Click here to listen with your own player(launches your MP3 player)

KTUS 171753Z 34010G16KT 10SM CLR 36/14 A3003 RMK AO2 SLP112 T03560139 10356 20261 58007

KTUS Airport Info (Airnav.com)

KTUS Flight Activity (Flightaware)

Listeners: 4 out of 2022 total

357FS Ops: 139.725
358FS Ops: 138.500
Albuquerque Center (Sector 47 Silver City/Low/UHF): 327.150
Albuquerque Center (Sector 90 San Simon/High/UHF): 281.500
AWACS: 364.200
BigFoot: 234.800
BigFoot: 271.000
Davis-Monthan AFB: 253.500
Tucson 162FW SOS IOPS: 392.200
Tucson Tower (UHF): 257.800

KTUS Del/Gnd/Twr/App/KDMA (Archives)
Tucson, Arizona, United States

Feed Status: UP
Listen in your browser - HTML5 player(in browser, HTML5)
Click here to listen with your own player(launches your MP3 player)

KTUS 171753Z 34010G16KT 10SM CLR 36/14 A3003 RMK AO2 SLP112 T03560139 10356 20261 58007

KTUS Airport Info (Airnav.com)

KTUS Flight Activity (Flightaware)

Listeners: 1 out of 2022 total

KDMA Tower: 118.850
Tucson Approach (alt): 124.000
Tucson Approach (East/South): 125.100
Tucson Approach (Mil): 269.550
Tucson Approach (North): 119.400
Tucson Approach (Practice Areas): 125.900
Tucson Clearance Delivery: 126.650
Tucson Ground: 120.025
Tucson Tower: 118.300
Tucson Tower (alt): 119.000

KTYS Del/Gnd/Twr/App (Archives)
Knoxville, Tennessee, United States

Feed Status: UP
Listen in your browser - HTML5 player(in browser, HTML5)
Click here to listen with your own player(launches your MP3 player)

KTYS 171753Z 23016G24KT 10SM SCT042 BKN250 34/21 A2997 RMK AO2 SLP136 T03440206 10344 20239 58010

KTYS Airport Info (Airnav.com)

KTYS Flight Activity (Flightaware)

Listeners: 1 out of 2022 total

Knoxville Approach/Departure: 123.900
Knoxville Approach/Departure: 120.650
Knoxville Approach/Departure: 360.800
Knoxville Approach/Departure: 353.600
Knoxville Approach/Departure: 118.000
Knoxville Clearance Delivery: 121.650
Knoxville Ground: 348.600
Knoxville Ground: 121.900
Knoxville Tower: 257.800
Knoxville Tower: 121.200

KROG/KXNA/KVBT/Misc (Archives)
Bentonville, Arkansas, United States

Feed Status: UP
Listen in your browser - HTML5 player(in browser, HTML5)
Click here to listen with your own player(launches your MP3 player)

KROG 171758Z 30003KT 10SM CLR 25/20 A3008 RMK AO2 SLP168 60013 T02500200 10256 20217 51017

KROG Airport Info (Airnav.com)

KROG Flight Activity (Flightaware)

Listeners: 0 out of 2022 total

Bentonville CTAF: 122.975
Northwest Regional Tower: 127.100
Razorback Approach/Departure (East): 126.600
Rogers Tower: 119.375

KROG/KXNA/KVBT/Misc (Archives)
Fayetteville/Springdale/Rogers, Arkansas, United States

Feed Status: UP
Listen in your browser - HTML5 player(in browser, HTML5)
Click here to listen with your own player(launches your MP3 player)

KROG 171758Z 30003KT 10SM CLR 25/20 A3008 RMK AO2 SLP168 60013 T02500200 10256 20217 51017

KROG Airport Info (Airnav.com)

KROG Flight Activity (Flightaware)

Listeners: 0 out of 2022 total

Bentonville CTAF: 122.975
Northwest Regional Tower: 127.100
Razorback Approach/Departure (East): 126.600
Rogers Tower: 119.375

KBTR/KHZR/L38 Del/Gnd/Twr/App/CTAF
Gonzales, Louisiana, United States

Feed Status: DOWN
Offline since: 2023-10-29 21:18:22 UTC

KBTR 171807Z 30019G30KT 10SM VCTS FEW028 BKN043 BKN060 28/20 A3006 RMK AO2 PK WND 28032/1756 WSHFT 1752 LTG DSNT ALQDS T02780200

KBTR Airport Info (Airnav.com)

Baton Rouge Approach/Departure (East): 126.500
Baton Rouge Approach/Departure (Military): 278.300
Baton Rouge Approach/Departure (West): 120.300
Baton Rouge Clearance Delivery: 119.400
Baton Rouge Ground: 121.900
Baton Rouge Tower (Military): 257.800
Baton Rouge Tower/CTAF: 118.450
Baton Rouge UNICOM: 122.950
Houston Center (App/Dep when Approach closed): 338.250
Houston Center (App/Dep when Approach closed): 126.350
Louisiana Regional L38 CTAF: 123.000
United Airlines: 129.925

PANC Del/Gnd/App (Archives)
Anchorage, Alaska, United States

Feed Status: UP
Listen in your browser - HTML5 player(in browser, HTML5)
Click here to listen with your own player(launches your MP3 player)

PANC 171753Z 20005KT 10SM FEW015 BKN050 13/09 A2988 RMK AO2 SLP119 60000 T01280094 10128 20106 58005

PANC Airport Info (Airnav.com)

PANC Flight Activity (Flightaware)

Listeners: 3 out of 2022 total

Anchorage Approach/Dep (046-205 deg): 126.400
Anchorage Approach/Dep (206-249 deg): 123.800
Anchorage Approach/Dep (250-330 deg <=1500'): 119.100
Anchorage Approach/Dep (250-330 deg >1500'): 118.600
Anchorage Approach/Dep (331-045 deg <=2500'): 119.100
Anchorage Clearance: 119.400
Anchorage Ground: 121.900

PANC Del/Gnd/Twr/App (Archives)
Anchorage, Alaska, United States

Feed Status: UP
Listen in your browser - HTML5 player(in browser, HTML5)
Click here to listen with your own player(launches your MP3 player)

PANC 171753Z 20005KT 10SM FEW015 BKN050 13/09 A2988 RMK AO2 SLP119 60000 T01280094 10128 20106 58005

PANC Airport Info (Airnav.com)

PANC Flight Activity (Flightaware)

Listeners: 3 out of 2022 total

Anchorage Approach/Dep (046-205 deg): 126.400
Anchorage Approach/Dep (206-249 deg): 123.800
Anchorage Approach/Dep (250-330 deg <=1500'): 119.100
Anchorage Approach/Dep (250-330 deg >1500'): 118.600
Anchorage Approach/Dep (331-045 deg <=2500'): 119.100
Anchorage Clearance: 119.400
Anchorage Ground: 121.900
Anchorage Tower: 118.300

PANC Tower (Archives)
Anchorage, Alaska, United States

Feed Status: UP
Listen in your browser - HTML5 player(in browser, HTML5)
Click here to listen with your own player(launches your MP3 player)

PANC 171753Z 20005KT 10SM FEW015 BKN050 13/09 A2988 RMK AO2 SLP119 60000 T01280094 10128 20106 58005

PANC Airport Info (Airnav.com)

PANC Flight Activity (Flightaware)

Listeners: 4 out of 2022 total

Anchorage Tower: 118.300

PHOG ATIS (Archives)
Kahului, Hawaii, United States

Feed Status: UP
Listen in your browser - HTML5 player(in browser, HTML5)
Click here to listen with your own player(launches your MP3 player)

PHOG 171754Z 05011G20KT 10SM FEW040 SCT060 26/17 A3006 RMK AO2 SLP183 T02560172 10256 20211 53012

PHOG Airport Info (Airnav.com)

PHOG Flight Activity (Flightaware)

Listeners: 1 out of 2022 total

Maui ATIS: 128.600

PHOG Clearance Delivery (Archives)
Kahului, Hawaii, United States

Feed Status: UP
Listen in your browser - HTML5 player(in browser, HTML5)
Click here to listen with your own player(launches your MP3 player)

PHOG 171754Z 05011G20KT 10SM FEW040 SCT060 26/17 A3006 RMK AO2 SLP183 T02560172 10256 20211 53012

PHOG Airport Info (Airnav.com)

PHOG Flight Activity (Flightaware)

Listeners: 1 out of 2022 total

Maui Clearance Delivery: 120.600

PHOG Del/Gnd/Twr/App (Archives)
Kahului, Hawaii, United States

Feed Status: UP
Listen in your browser - HTML5 player(in browser, HTML5)
Click here to listen with your own player(launches your MP3 player)

PHOG 171754Z 05011G20KT 10SM FEW040 SCT060 26/17 A3006 RMK AO2 SLP183 T02560172 10256 20211 53012

PHOG Airport Info (Airnav.com)

PHOG Flight Activity (Flightaware)

Listeners: 0 out of 2022 total

HCF Approach (Maui/North): 120.200
HCF Approach (Maui/South): 119.500
Maui Clearance Delivery: 120.600
Maui Ground: 121.900
Maui Tower: 118.700

PHOG Ground (Archives)
Kahului, Hawaii, United States

Feed Status: UP
Listen in your browser - HTML5 player(in browser, HTML5)
Click here to listen with your own player(launches your MP3 player)

PHOG 171754Z 05011G20KT 10SM FEW040 SCT060 26/17 A3006 RMK AO2 SLP183 T02560172 10256 20211 53012

PHOG Airport Info (Airnav.com)

PHOG Flight Activity (Flightaware)

Listeners: 1 out of 2022 total

Maui Ground: 121.900

PHOG HCF App (N/S) (Archives)
Kahului, Hawaii, United States

Feed Status: UP
Listen in your browser - HTML5 player(in browser, HTML5)
Click here to listen with your own player(launches your MP3 player)

PHOG 171754Z 05011G20KT 10SM FEW040 SCT060 26/17 A3006 RMK AO2 SLP183 T02560172 10256 20211 53012

PHOG Airport Info (Airnav.com)

PHOG Flight Activity (Flightaware)

Listeners: 0 out of 2022 total

HCF Approach (Maui/North): 120.200
HCF Approach (Maui/South): 119.500

PHOG HCF App (North) (Archives)
Kahului, Hawaii, United States

Feed Status: UP
Listen in your browser - HTML5 player(in browser, HTML5)
Click here to listen with your own player(launches your MP3 player)

PHOG 171754Z 05011G20KT 10SM FEW040 SCT060 26/17 A3006 RMK AO2 SLP183 T02560172 10256 20211 53012

PHOG Airport Info (Airnav.com)

PHOG Flight Activity (Flightaware)

Listeners: 0 out of 2022 total

HCF Approach (Maui/North): 120.200

PHOG HCF App (South) (Archives)
Kahului, Hawaii, United States

Feed Status: UP
Listen in your browser - HTML5 player(in browser, HTML5)
Click here to listen with your own player(launches your MP3 player)

PHOG 171754Z 05011G20KT 10SM FEW040 SCT060 26/17 A3006 RMK AO2 SLP183 T02560172 10256 20211 53012

PHOG Airport Info (Airnav.com)

PHOG Flight Activity (Flightaware)

Listeners: 1 out of 2022 total

HCF Approach (Maui/South): 119.500

PHOG Tower (Archives)
Kahului, Hawaii, United States

Feed Status: UP
Listen in your browser - HTML5 player(in browser, HTML5)
Click here to listen with your own player(launches your MP3 player)

PHOG 171754Z 05011G20KT 10SM FEW040 SCT060 26/17 A3006 RMK AO2 SLP183 T02560172 10256 20211 53012

PHOG Airport Info (Airnav.com)

PHOG Flight Activity (Flightaware)

Listeners: 0 out of 2022 total

Maui Tower: 118.700

TJSJ Center/Oceanic (Archives)
San Juan, Puerto Rico, United States

Feed Status: UP
Listen in your browser - HTML5 player(in browser, HTML5)
Click here to listen with your own player(launches your MP3 player)

TJSJ 171756Z 08015KT 10SM FEW040 SCT080 33/24 A3004 RMK AO2 SLP171 60001 T03330244 10344 20289 56012 $

TJSJ Flight Activity (Flightaware)

Listeners: 5 out of 2022 total

Emergency/Guard: 121.500
San Juan Center: 135.700
San Juan Center: 134.300
San Juan Center: 124.350
San Juan Center: 124.220
San Juan Center: 118.750
San Juan Center: 118.150
San Juan Center: 125.000
San Juan Oceanic: 126.700
San Juan Oceanic: 123.650
San Juan Oceanic: 122.200
San Juan Oceanic: 122.600
San Juan Oceanic Backup: 122.100
San Juan Oceanic Backup: 123.600